[[{"header":{"parameterUnit":"m.s-1","parameterCategory":1,"la1":30.6,"la2":28.766,"lo1":-90.7593,"lo2":-88.6598,"dy":0.0162,"dx":0.0183,"nx":116,"ny":114,"refTime":"2023-06-09T06:00:00:Z","depth":0,"parameterNumber":2,"parameterNumberName":"U-component_of_WINDS"},"data":[0.0,0.0,0.0,0.0,0.0,0.0,0.0,0.0,0.0,0.0,0.0,0.0,0.0,0.0,0.0,0.0,0.0,0.0,0.0,0.0,0.0,0.0,0.0,0.0,0.0,0.0,0.0,0.0,0.0,0.0,0.0,0.0,0.0,0.0,0.0,0.0,0.0,0.0,0.0,0.0,0.0,0.0,0.0,0.0,0.0,0.0,0.0,0.0,0.0,0.0,0.0,0.0,0.0,0.0,0.0,0.0,0.0,0.0,0.0,0.0,0.0,0.0,0.0,0.0,0.0,0.0,0.0,0.0,0.0,0.0,0.0,0.0,0.0,0.0,0.0,0.0,0.0,0.0,0.0,0.0,0.0,0.0,0.0,0.0,0.0,0.0,0.0,0.0,0.0,0.0,0.0,0.0,0.0,0.0,0.0,0.0,0.0,0.0,0.0,0.0,0.0,0.0,0.0,0.0,0.0,0.0,0.0,0.0,0.0,0.0,0.0,0.0,0.0,0.0,0.0,0.0,0.0,0.0,0.0,0.0,0.0,0.0,0.0,0.0,0.0,0.0,0.0,0.0,0.0,0.0,0.0,0.0,0.0,0.0,0.0,0.0,0.0,0.0,0.0,0.0,0.0,0.0,0.0,0.0,0.0,0.0,0.0,0.0,0.0,0.0,0.0,0.0,0.0,0.0,0.0,0.0,0.0,0.0,0.0,0.0,0.0,0.0,0.0,0.0,0.0,0.0,0.0,0.0,0.0,0.0,0.0,0.0,0.0,0.0,0.0,0.0,0.0,0.0,0.0,0.0,0.0,0.0,0.0,0.0,0.0,0.0,0.0,0.0,0.0,0.0,0.0,0.0,0.0,0.0,0.0,0.0,0.0,0.0,0.0,0.0,0.0,0.0,0.0,0.0,0.0,0.0,0.0,0.0,0.0,0.0,0.0,0.0,0.0,0.0,0.0,0.0,0.0,0.0,0.0,0.0,0.0,0.0,0.0,0.0,0.0,0.0,0.0,0.0,0.0,0.0,0.0,0.0,0.0,0.0,0.0,0.0,0.0,0.0,0.0,0.0,0.0,0.0,0.0,0.0,0.0,0.0,0.0,0.0,0.0,0.0,0.0,0.0,0.0,0.0,0.0,0.0,0.0,0.0,0.0,0.0,0.0,0.0,0.0,0.0,0.0,0.0,0.0,0.0,0.0,0.0,0.0,0.0,0.0,0.0,0.0,0.0,0.0,0.0,0.0,0.0,0.0,0.0,0.0,0.0,0.0,0.0,0.0,0.0,0.0,0.0,0.0,0.0,0.0,0.0,0.0,0.0,0.0,0.0,0.0,0.0,0.0,0.0,0.0,0.0,0.0,0.0,0.0,0.0,0.0,0.0,0.0,0.0,0.0,0.0,0.0,0.0,0.0,0.0,0.0,0.0,0.0,0.0,0.0,0.0,0.0,0.0,0.0,0.0,0.0,0.0,0.0,0.0,0.0,0.0,0.0,0.0,0.0,0.0,0.0,0.0,0.0,0.0,0.0,0.0,0.0,0.0,0.0,0.0,0.0,0.0,0.0,0.0,0.0,0.0,0.0,0.0,0.0,0.0,0.0,0.0,0.0,0.0,0.0,0.0,0.0,0.0,0.0,0.0,0.0,0.0,0.0,0.0,0.0,0.0,0.0,0.0,0.0,0.0,0.0,0.0,0.0,0.0,0.0,0.0,0.0,0.0,0.0,0.0,0.0,0.0,0.0,0.0,0.0,0.0,0.0,0.0,0.0,0.0,0.0,0.0,0.0,0.0,0.0,0.0,0.0,0.0,0.0,0.0,0.0,0.0,0.0,0.0,0.0,0.0,0.0,0.0,0.0,0.0,0.0,0.0,0.0,0.0,0.0,0.0,0.0,0.0,0.0,0.0,0.0,0.0,0.0,0.0,0.0,0.0,0.0,0.0,0.0,0.0,0.0,0.0,0.0,0.0,0.0,0.0,0.0,0.0,0.0,0.0,0.0,0.0,0.0,0.0,0.0,0.0,0.0,0.0,0.0,0.0,0.0,0.0,0.0,0.0,0.0,0.0,0.0,0.0,0.0,0.0,0.0,0.0,0.0,0.0,0.0,0.0,0.0,0.0,0.0,0.0,0.0,0.0,0.0,0.0,0.0,0.0,0.0,0.0,0.0,0.0,0.0,0.0,0.0,0.0,0.0,0.0,0.0,0.0,0.0,0.0,0.0,0.0,0.0,0.0,0.0,0.0,0.0,0.0,0.0,0.0,0.0,0.0,0.0,0.0,0.0,0.0,0.0,0.0,0.0,0.0,0.0,0.0,0.0,0.0,0.0,0.0,0.0,0.0,0.0,0.0,0.0,0.0,0.0,0.0,0.0,0.0,0.0,0.0,0.0,0.0,0.0,0.0,0.0,0.0,0.0,0.0,0.0,0.0,0.0,0.0,0.0,0.0,0.0,0.0,0.0,0.0,0.0,0.0,0.0,0.0,0.0,0.0,0.0,0.0,0.0,0.0,0.0,0.0,0.0,0.0,0.0,0.0,0.0,0.0,0.0,0.0,0.0,0.0,0.0,0.0,0.0,0.0,0.0,0.0,0.0,0.0,0.0,0.0,0.0,0.0,0.0,0.0,0.0,0.0,0.0,0.0,0.0,0.0,0.0,0.0,0.0,0.0,0.0,0.0,0.0,0.0,0.0,0.0,0.0,0.0,0.0,0.0,0.0,0.0,0.0,0.0,0.0,0.0,0.0,0.0,0.0,0.0,0.0,0.0,0.0,0.0,0.0,0.0,0.0,0.0,0.0,0.0,0.0,0.0,0.0,0.0,0.0,0.0,0.0,0.0,0.0,0.0,0.0,0.0,0.0,0.0,0.0,0.0,0.0,0.0,0.0,0.0,0.0,0.0,0.0,0.0,0.0,0.0,0.0,0.0,0.0,0.0,0.0,0.0,0.0,0.0,0.0,0.0,0.0,0.0,0.0,0.0,0.0,0.0,0.0,0.0,0.0,0.0,0.0,0.0,0.0,0.0,0.0,0.0,0.0,0.0,0.0,0.0,0.0,0.0,0.0,0.0,0.0,0.0,0.0,0.0,0.0,0.0,0.0,0.0,0.0,0.0,0.0,0.0,0.0,0.0,0.0,0.0,0.0,0.0,0.0,0.0,0.0,0.0,0.0,0.0,0.0,0.0,0.0,0.0,0.0,0.0,0.0,0.0,0.0,0.0,0.0,0.0,0.0,0.0,0.0,0.0,0.0,0.0,0.0,0.0,0.0,0.0,0.0,0.0,0.0,0.0,0.0,0.0,0.0,0.0,0.0,0.0,0.0,0.0,0.0,0.0,0.0,0.0,0.0,0.0,0.0,0.0,0.0,0.0,0.0,0.0,0.0,0.0,0.0,0.0,0.0,0.0,0.0,0.0,0.0,0.0,0.0,0.0,0.0,0.0,0.0,0.0,0.0,0.0,0.0,0.0,0.0,0.0,0.0,0.0,0.0,0.0,0.0,0.0,0.0,0.0,0.0,0.0,0.0,0.0,0.0,0.0,0.0,0.0,0.0,0.0,0.0,0.0,0.0,0.0,0.0,0.0,0.0,0.0,0.0,0.0,0.0,0.0,0.0,0.0,0.0,0.0,0.0,0.0,0.0,0.0,0.0,0.0,0.0,0.0,0.0,0.0,0.0,0.0,0.0,0.0,0.0,0.0,0.0,0.0,0.0,0.0,0.0,0.0,0.0,0.0,0.0,0.0,0.0,0.0,0.0,0.0,0.0,0.0,0.0,0.0,0.0,0.0,0.0,0.0,0.0,0.0,0.0,0.0,0.0,0.0,0.0,0.0,0.0,0.0,0.0,0.0,0.0,0.0,0.0,0.0,0.0,0.0,0.0,0.0,0.0,0.0,0.0,0.0,0.0,0.0,0.0,0.0,0.0,0.0,0.0,0.0,0.0,0.0,0.0,0.0,0.0,0.0,0.0,0.0,0.0,0.0,0.0,0.0,0.0,0.0,0.0,0.0,0.0,0.0,0.0,0.0,0.0,0.0,0.0,0.0,0.0,0.0,0.0,0.0,0.0,0.0,0.0,0.0,0.0,0.0,0.0,0.0,0.0,0.0,0.0,0.0,0.0,0.0,0.0,0.0,0.0,0.0,0.0,0.0,0.0,0.0,0.0,0.0,0.0,0.0,0.0,0.0,0.0,0.0,0.0,0.0,0.0,0.0,0.0,0.0,0.0,0.0,0.0,0.0,0.0,0.0,0.0,0.0,0.0,0.0,0.0,0.0,0.0,0.0,0.0,0.0,0.0,0.0,0.0,0.0,0.0,0.0,0.0,0.0,0.0,0.0,0.0,0.0,0.0,0.0,0.0,0.0,0.0,0.0,0.0,0.0,0.0,0.0,0.0,0.0,0.0,0.0,0.0,0.0,0.0,0.0,0.0,0.0,0.0,0.0,0.0,0.0,0.0,0.0,0.0,0.0,0.0,0.0,0.0,0.0,0.0,0.0,0.0,0.0,0.0,0.0,0.0,0.0,0.0,0.0,0.0,0.0,0.0,0.0,0.0,0.0,0.0,0.0,0.0,0.0,0.0,0.0,0.0,0.0,0.0,0.0,0.0,0.0,0.0,0.0,0.0,0.0,0.0,0.0,0.0,0.0,0.0,0.0,0.0,0.0,0.0,0.0,0.0,0.0,0.0,0.0,0.0,0.0,0.0,0.0,0.0,0.0,0.0,0.0,0.0,0.0,0.0,0.0,0.0,0.0,0.0,0.0,0.0,0.0,0.0,0.0,0.0,0.0,0.0,0.0,0.0,0.0,0.0,0.0,0.0,0.0,0.0,0.0,0.0,0.0,0.0,0.0,0.0,0.0,0.0,0.0,0.0,0.0,0.0,0.0,0.0,0.0,0.0,0.0,0.0,0.0,0.0,0.0,0.0,0.0,0.0,0.0,0.0,0.0,0.0,0.0,0.0,0.0,0.0,0.0,0.0,0.0,0.0,0.0,0.0,0.0,0.0,0.0,0.0,0.0,0.0,0.0,0.0,0.0,0.0,0.0,0.0,0.0,0.0,0.0,0.0,0.0,0.0,0.0,0.0,0.0,0.0,0.0,0.0,0.0,0.0,0.0,0.0,0.0,0.0,0.0,0.0,0.0,0.0,0.0,0.0,0.0,0.0,0.0,0.0,0.0,0.0,0.0,0.0,0.0,0.0,0.0,0.0,0.0,0.0,0.0,0.0,0.0,0.0,0.0,0.0,0.0,0.0,0.0,0.0,0.0,0.0,0.0,0.0,0.0,0.0,0.0,0.0,0.0,0.0,0.0,0.0,0.0,0.0,0.0,0.0,0.0,0.0,0.0,0.0,0.0,0.0,0.0,0.0,0.0,0.0,0.0,0.0,0.0,0.0,0.0,0.0,0.0,0.0,0.0,0.0,0.0,0.0,0.0,0.0,0.0,0.0,0.0,0.0,0.0,0.0,0.0,0.0,0.0,0.0,0.0,0.0,0.0,0.0,0.0,0.0,0.0,0.0,0.0,0.0,0.0,0.0,0.0,0.0,0.0,0.0,0.0,0.0,0.0,0.0,0.0,0.0,0.0,0.0,0.0,0.0,0.0,0.0,0.0,0.0,0.0,0.0,0.0,0.0,0.0,0.0,0.0,0.0,0.0,0.0,0.0,0.0,0.0,0.0,0.0,0.0,0.0,0.0,0.0,0.0,0.0,0.0,0.0,0.0,0.0,0.0,0.0,0.0,0.0,0.0,0.0,0.0,0.0,0.0,0.0,0.0,0.0,0.0,0.0,0.0,0.0,0.0,0.0,0.0,0.0,0.0,0.0,0.0,0.0,0.0,0.0,0.0,0.0,0.0,0.0,0.0,0.0,0.0,0.0,0.0,0.0,0.0,0.0,0.0,0.0,0.0,0.0,0.0,0.0,0.0,0.0,0.0,0.0,0.0,0.0,0.0,0.0,0.0,0.0,0.0,0.0,0.0,0.0,0.0,0.0,0.0,0.0,0.0,0.0,0.0,0.0,0.0,0.0,0.0,0.0,0.0,0.0,0.0,0.0,0.0,0.0,0.0,0.0,0.0,0.0,0.0,0.0,0.0,0.0,0.0,0.0,0.0,0.0,0.0,0.0,-4.5773,-4.4856,0.0,0.0,0.0,0.0,0.0,0.0,0.0,0.0,0.0,0.0,0.0,0.0,0.0,0.0,0.0,0.0,0.0,0.0,0.0,0.0,0.0,0.0,0.0,0.0,0.0,0.0,0.0,0.0,0.0,0.0,0.0,0.0,0.0,0.0,0.0,0.0,0.0,0.0,-3.4184,-3.5034,-3.5551,-3.6347,-3.5771,-3.4004,0.0,0.0,0.0,0.0,0.0,0.0,0.0,0.0,0.0,0.0,0.0,0.0,0.0,0.0,0.0,0.0,0.0,0.0,0.0,0.0,0.0,0.0,0.0,0.0,0.0,0.0,0.0,0.0,0.0,0.0,0.0,0.0,0.0,0.0,0.0,0.0,0.0,0.0,0.0,0.0,0.0,0.0,0.0,0.0,0.0,0.0,0.0,0.0,0.0,0.0,0.0,0.0,0.0,0.0,0.0,0.0,0.0,0.0,0.0,0.0,0.0,0.0,0.0,0.0,0.0,0.0,0.0,0.0,0.0,0.0,-4.7939,-4.6838,0.0,0.0,0.0,0.0,0.0,0.0,0.0,0.0,0.0,0.0,0.0,0.0,0.0,0.0,0.0,0.0,0.0,0.0,0.0,0.0,0.0,0.0,0.0,0.0,-2.7692,-2.6835,-2.6396,0.0,0.0,0.0,0.0,0.0,0.0,0.0,0.0,-3.1153,-3.2323,-3.3972,-3.4976,-3.6671,-3.8961,-3.9312,-3.8212,-3.5922,-3.6545,0.0,0.0,0.0,0.0,0.0,0.0,0.0,0.0,0.0,0.0,0.0,0.0,0.0,0.0,0.0,0.0,0.0,0.0,0.0,0.0,0.0,0.0,0.0,0.0,0.0,0.0,0.0,0.0,0.0,0.0,0.0,0.0,0.0,0.0,0.0,0.0,0.0,0.0,0.0,0.0,0.0,0.0,0.0,0.0,0.0,0.0,0.0,0.0,0.0,0.0,0.0,0.0,0.0,0.0,0.0,0.0,0.0,0.0,0.0,0.0,0.0,0.0,0.0,-5.2698,-5.2444,-5.1867,-5.1977,-5.227,-5.2527,-5.0618,-4.9481,-4.882,-4.7205,0.0,0.0,0.0,0.0,0.0,0.0,0.0,0.0,0.0,0.0,0.0,0.0,0.0,0.0,0.0,0.0,0.0,0.0,0.0,0.0,0.0,-2.7615,-2.6835,-2.6243,-2.6469,-2.6453,0.0,0.0,0.0,0.0,0.0,0.0,-3.2731,-3.3256,-3.4143,-3.5426,-3.6357,-3.818,-4.0745,-4.0127,-4.0299,-4.1076,-4.0007,-3.9593,-3.9512,0.0,0.0,0.0,0.0,0.0,0.0,0.0,0.0,0.0,0.0,0.0,0.0,0.0,0.0,0.0,0.0,0.0,0.0,0.0,0.0,0.0,0.0,0.0,0.0,0.0,0.0,0.0,0.0,0.0,0.0,0.0,0.0,0.0,0.0,0.0,0.0,0.0,0.0,0.0,0.0,0.0,-4.8988,-5.1112,0.0,0.0,0.0,0.0,0.0,0.0,0.0,0.0,0.0,0.0,0.0,0.0,0.0,-5.2895,-5.2652,-5.5463,-5.622,-5.496,-5.7814,-5.8079,-5.6051,-5.6748,-5.6345,-5.5133,-5.5537,0.0,-5.1389,-4.9701,0.0,0.0,0.0,0.0,0.0,0.0,0.0,0.0,0.0,0.0,0.0,0.0,0.0,0.0,0.0,0.0,0.0,0.0,0.0,0.0,0.0,-2.8824,-2.856,-2.8421,-2.8903,-2.9058,-2.8592,0.0,0.0,0.0,0.0,-3.1899,-3.3502,-3.3498,-3.4637,-3.6994,-3.9386,-4.1193,-4.2322,-4.2543,-4.3281,-4.4391,-4.3905,-4.2925,-4.1619,-4.0884,0.0,0.0,0.0,0.0,0.0,0.0,0.0,0.0,0.0,0.0,0.0,0.0,0.0,0.0,0.0,0.0,0.0,0.0,0.0,0.0,0.0,0.0,0.0,0.0,0.0,0.0,0.0,0.0,0.0,0.0,0.0,0.0,0.0,0.0,0.0,0.0,0.0,0.0,0.0,-4.8287,-5.0706,-5.0615,-5.0799,-4.9931,0.0,0.0,0.0,0.0,0.0,0.0,0.0,0.0,0.0,-5.4686,-5.5545,-5.6459,-5.7634,-5.9375,-5.9902,-5.9293,-6.0311,-6.0011,-5.8569,-5.8649,-5.8033,-5.6969,-5.7336,-5.6675,-5.517,-5.2637,-5.0435,-4.8416,0.0,0.0,0.0,0.0,-4.4911,-4.5736,0.0,0.0,0.0,0.0,0.0,0.0,0.0,0.0,0.0,0.0,0.0,0.0,-3.0188,-3.0221,-3.0293,-3.0551,-3.1219,-3.1438,-3.1102,-3.1732,0.0,0.0,-3.2481,-3.3195,-3.453,-3.4835,-3.639,-3.9256,-4.1962,-4.345,-4.3781,-4.4559,-4.5593,-4.6821,-4.6963,-4.6038,-4.4335,-4.3304,-4.1862,-4.0177,0.0,0.0,0.0,0.0,0.0,0.0,0.0,0.0,0.0,0.0,0.0,0.0,0.0,0.0,0.0,0.0,0.0,0.0,0.0,0.0,0.0,0.0,0.0,0.0,0.0,0.0,0.0,0.0,0.0,0.0,0.0,0.0,0.0,0.0,0.0,0.0,0.0,-5.1146,-5.2652,-5.1163,-5.2887,-5.2672,0.0,0.0,0.0,0.0,0.0,0.0,-5.4269,-5.4468,-5.5551,-5.7749,-5.8646,-5.9931,-6.1682,-6.2425,-6.2735,-6.2593,-6.2,-6.1171,-6.0205,-5.9734,-5.8951,-5.7997,-5.7997,-5.7997,-5.7776,-5.4987,-5.3004,-5.1499,-4.926,-4.7755,-4.6911,-4.7535,-4.7755,-4.8012,0.0,0.0,0.0,0.0,0.0,0.0,0.0,0.0,0.0,0.0,0.0,-2.9743,-3.1514,-3.1101,-3.0916,-3.1568,-3.2249,-3.2548,-3.2405,-3.3096,-3.3751,-3.426,-3.4488,-3.5249,-3.6527,-3.8657,-4.0696,-4.2648,-4.3086,-4.3907,-4.5093,-4.5156,-4.6328,-4.8382,-4.8444,-4.8611,-4.86,-4.5959,-4.4329,-4.3306,-4.1423,0.0,0.0,0.0,0.0,0.0,0.0,0.0,0.0,0.0,0.0,0.0,0.0,0.0,0.0,0.0,0.0,0.0,0.0,0.0,0.0,0.0,0.0,0.0,0.0,0.0,0.0,0.0,0.0,0.0,0.0,0.0,0.0,0.0,0.0,0.0,0.0,0.0,0.0,-5.5128,-5.7979,0.0,0.0,0.0,0.0,-5.4766,-5.5579,-5.6797,-5.8409,-5.9269,-6.0425,-6.1932,-6.2667,-6.2869,-6.2519,-6.3596,-6.3879,-6.3431,-6.3402,-6.2584,-6.1001,-6.0545,-5.9501,-5.7997,-5.7997,-5.7997,-5.785,-5.6161,-5.4987,-5.4032,-5.238,-5.0822,-4.9427,-4.9463,-4.9463,-4.95,0.0,0.0,0.0,0.0,0.0,0.0,0.0,0.0,0.0,-2.962,-3.0349,-3.1613,-3.3996,-3.4193,-3.4412,-3.5081,-3.5401,-3.5538,-3.5453,-3.5406,-3.5532,-3.586,-3.6307,-3.714,-3.842,-4.0782,-4.2187,-4.2598,-4.3841,-4.5011,-4.6099,-4.6233,-4.7315,-4.9134,-4.937,-4.9824,-5.0344,-4.8794,-4.7194,-4.56,-4.4259,-4.1854,0.0,0.0,0.0,0.0,0.0,0.0,0.0,0.0,0.0,0.0,0.0,0.0,0.0,0.0,0.0,0.0,0.0,0.0,0.0,0.0,0.0,0.0,0.0,0.0,0.0,0.0,0.0,0.0,0.0,0.0,0.0,0.0,0.0,0.0,0.0,0.0,0.0,-5.9164,-6.2154,0.0,-5.8818,-5.8662,-5.8814,-5.8878,-6.0221,-6.1473,-6.2589,-6.2828,-6.3194,-6.3689,-6.3973,-6.4048,-6.3891,-6.4474,-6.4713,-6.4529,-6.4407,-6.3329,-6.1459,-6.1017,-5.9825,-5.7997,-5.7997,-5.7997,-5.796,-5.7373,-5.6675,-5.5831,-5.473,-5.398,-5.3356,-5.2307,-5.1903,-5.183,0.0,0.0,0.0,0.0,0.0,0.0,0.0,0.0,0.0,-3.0498,-3.1852,-3.3516,-3.5824,-3.6366,-3.683,-3.7506,-3.7541,-3.7397,-3.6995,-3.6817,-3.661,-3.6357,-3.7501,-3.8882,-4.0471,-4.2253,-4.319,-4.3303,-4.4511,-4.5635,-4.6713,-4.6844,-4.7882,-4.9604,-4.9824,-5.0512,-5.1546,-5.0707,-4.922,-4.7383,-4.673,-4.4692,-4.1912,0.0,0.0,0.0,0.0,0.0,0.0,0.0,0.0,0.0,0.0,0.0,0.0,0.0,0.0,0.0,0.0,0.0,0.0,0.0,0.0,0.0,0.0,0.0,0.0,0.0,0.0,0.0,0.0,0.0,0.0,0.0,0.0,0.0,0.0,-5.8485,-6.2395,-6.1944,-6.5887,-6.7141,-6.3385,-6.3728,-6.4124,-6.3895,-6.5199,-6.6031,-6.5973,-6.6125,-6.5745,-6.4896,-6.4896,-6.4822,-6.469,-6.492,-6.509,-6.5166,-6.463,-6.3495,-6.1882,-6.1177,-5.9865,-5.8209,-5.8209,-5.8119,-5.7997,-5.7997,-5.7703,-5.7116,-5.6308,-5.5831,-5.5427,-5.4106,-5.3261,-5.2674,0.0,0.0,0.0,0.0,0.0,0.0,0.0,-2.8039,-2.9966,-3.1326,-3.3414,-3.5332,-3.6856,-3.7378,-3.791,-3.8674,-3.8432,-3.7864,-3.6911,-3.7184,-3.6936,-3.5897,-3.8131,-4.0435,-4.2701,-4.3154,-4.3944,-4.5126,-4.5137,-4.5764,-4.6931,-4.6932,-4.8002,-4.9852,-4.9911,-5.0845,-5.2302,-5.1555,-5.0311,-4.8783,-4.8633,-4.7932,-4.6592,0.0,0.0,0.0,0.0,0.0,0.0,0.0,0.0,0.0,0.0,0.0,0.0,0.0,0.0,0.0,0.0,0.0,0.0,0.0,0.0,0.0,0.0,0.0,0.0,0.0,0.0,0.0,0.0,0.0,0.0,0.0,0.0,0.0,-5.6014,-6.1158,-6.4651,-6.3729,-6.9365,-7.1702,-6.7666,-6.9289,-7.0342,-6.9649,-7.0386,-7.0122,-6.848,-6.9104,-6.8344,-6.5711,-6.5561,-6.5348,-6.4946,-6.4888,-6.504,-6.5322,-6.4073,-6.3048,-6.2214,-6.0979,-5.9755,-5.8628,-5.8607,-5.8391,-5.802,-5.7997,-5.7997,-5.7923,-5.7152,-5.6345,-5.5559,-5.4693,-5.3371,-5.1867,0.0,0.0,0.0,0.0,0.0,0.0,0.0,-2.7917,-2.9847,-3.1637,-3.3941,-3.6034,-3.7568,-3.9142,-3.9966,-3.9682,-3.9578,-3.8914,-3.7543,-3.7513,-3.7927,-3.8842,-4.0178,-4.1779,-4.3669,-4.441,-4.4944,-4.5371,-4.5585,-4.652,-4.8134,-4.8076,-4.9033,-5.0808,-5.0831,-5.1096,-5.1555,-5.197,-5.1515,-5.0494,-5.0459,-4.9413,-4.7727,0.0,0.0,0.0,0.0,0.0,0.0,0.0,0.0,0.0,0.0,0.0,0.0,0.0,0.0,0.0,0.0,0.0,0.0,0.0,0.0,0.0,0.0,0.0,0.0,0.0,0.0,0.0,0.0,0.0,0.0,0.0,-5.7085,-6.0293,-6.028,-6.4993,-6.9085,-7.0858,-7.3763,-7.5075,-7.3602,-7.3307,-7.2831,-7.2034,-7.1658,-7.1244,-7.0793,-7.0417,-6.9606,-6.8227,-6.7132,-6.6255,-6.5578,-6.4638,-6.4149,-6.4111,-6.3404,-6.2417,-6.1193,-6.0946,-6.0186,-5.9026,-5.873,-5.8524,-5.8412,-5.8119,-5.7997,-5.796,-5.7776,-5.7189,-5.6308,-5.4913,-5.3371,-5.1867,0.0,0.0,0.0,0.0,0.0,0.0,0.0,-2.8725,-3.0283,-3.2001,-3.4515,-3.628,-3.6794,-3.8876,-3.9822,-3.8867,-3.8754,-3.8235,-3.7061,-3.7294,-3.8376,-4.0347,-4.1498,-4.2781,-4.4242,-4.5342,-4.5812,-4.5569,-4.6134,-4.7139,-4.8615,-4.8514,-4.9439,-5.1121,-5.0764,-5.0807,-5.1167,-5.1337,-5.1536,-5.1682,-5.1697,-5.0972,-4.983,-4.9119,-4.8359,-4.7509,-4.6269,-4.624,-4.6547,-4.5038,0.0,0.0,0.0,0.0,0.0,0.0,0.0,0.0,0.0,0.0,0.0,0.0,0.0,0.0,0.0,0.0,0.0,0.0,0.0,0.0,0.0,0.0,0.0,0.0,-6.1643,-6.4977,-6.6108,-6.9331,-7.2272,-7.4284,-7.602,-7.676,-7.5999,-7.5309,-7.4496,-7.3498,-7.3033,-7.2432,-7.1757,-7.1268,-7.0292,-6.8753,-6.7608,-6.6672,-6.5918,-6.4592,-6.3889,-6.3834,-6.2841,-6.1942,-6.1142,-6.0858,-6.0259,-5.945,-5.9196,-5.8892,-5.8586,-5.8348,-5.7958,-5.7446,0.0,0.0,0.0,0.0,-5.3004,-5.2307,0.0,0.0,0.0,0.0,0.0,0.0,0.0,-3.0,-3.0923,-3.219,-3.4746,-3.6124,-3.5263,-3.7411,-3.8461,-3.7336,-3.7155,-3.6848,-3.6245,-3.6903,-3.8397,-4.0842,-4.2203,-4.3399,-4.4508,-4.5938,-4.6352,-4.5704,-4.6556,-4.7521,-4.8586,-4.8541,-4.9414,-5.1062,-5.0274,-5.0371,-5.1043,-5.0336,-5.0891,-5.2251,-5.2251,-5.2292,-5.2154,-5.0569,-5.0371,-5.0712,-4.9204,-4.8314,-4.7773,-4.7579,0.0,0.0,0.0,0.0,0.0,0.0,0.0,0.0,0.0,0.0,0.0,0.0,0.0,0.0,0.0,0.0,0.0,0.0,0.0,0.0,0.0,0.0,0.0,0.0,-6.6078,-6.9582,-7.2058,-7.3421,-7.4433,-7.5198,-7.6633,-7.7188,-7.6202,-7.5909,-7.5408,-7.4526,-7.431,-7.3559,-7.2057,-7.1794,0.0,0.0,0.0,-6.6825,-6.644,-6.4676,-6.3886,-6.3985,-6.228,-6.1464,-6.1411,-6.0714,-6.0226,-5.9874,-5.9826,-5.9379,-5.8669,-5.8628,-5.7851,-5.6602,-5.5757,-5.5486,-5.517,-5.2968,-5.2527,-5.2747,0.0,0.0,0.0,0.0,0.0,0.0,0.0,-3.032,-3.0715,-3.1497,-3.3407,-3.482,-3.5155,-3.7094,-3.8273,-3.8034,-3.7851,-3.7669,-3.7562,-3.7375,-3.8505,-4.1176,-4.2307,-4.3458,-4.4737,-4.5506,-4.5905,-4.5866,-4.6099,-4.6989,-4.8502,-4.8451,-4.9368,-5.1101,-5.0913,-5.0933,-5.1082,-5.0996,-5.1125,-5.1435,-5.1435,-5.18,-5.2343,-5.196,-5.1453,-5.0913,-5.0565,-5.1215,-5.2066,-5.0635,-5.0503,-5.0618,-4.8947,-4.7721,0.0,0.0,0.0,0.0,0.0,0.0,0.0,0.0,0.0,0.0,0.0,0.0,0.0,0.0,0.0,0.0,0.0,0.0,0.0,-6.3549,-6.7454,-7.0859,-7.3297,-7.4646,-7.5453,-7.5598,-7.627,-7.6889,-7.7308,-7.5936,-7.5321,-7.6088,-7.4948,-7.4085,-7.3747,-7.2432,-7.1883,-7.2267,-6.8979,-6.7598,-6.8344,-6.4854,-6.3032,-6.2902,-6.1344,0.0,-6.0372,-6.039,-6.0342,-6.027,-5.9937,-5.952,-5.9065,-5.875,-5.7518,-5.5757,-5.495,-5.462,-5.4509,-5.3371,-5.2674,-5.205,0.0,0.0,0.0,0.0,0.0,0.0,0.0,-3.0601,-3.0958,-3.1993,-3.3589,-3.4577,-3.4411,-3.604,-3.6712,-3.5656,-3.5394,-3.5782,-3.6962,-3.7017,-3.8159,-4.0791,-4.1935,-4.2863,-4.3627,-4.4589,-4.5131,-4.5181,-4.5738,-4.6854,-4.8458,-4.8424,-4.9333,-5.0966,-5.0615,-5.0681,-5.1095,-5.0718,-5.0814,-5.1202,-5.1202,-5.1393,-5.176,-5.2168,-5.2063,-5.178,-5.2562,-5.2856,-5.284,-5.284,-5.2569,-5.2097,-5.1597,-5.0673,-4.9503,0.0,0.0,0.0,0.0,0.0,0.0,0.0,0.0,0.0,0.0,0.0,0.0,0.0,0.0,-5.6466,-5.8664,0.0,-6.4684,-6.8126,-7.0658,-7.2691,-7.4076,-7.494,-7.5334,-7.5116,-7.5491,-7.5812,-7.588,-7.5023,-7.4718,-7.5351,-7.4648,-7.4009,-7.3559,-7.2395,-7.1604,-7.1405,-6.8735,-6.7425,-6.7656,-6.4482,-6.2818,-6.2588,-6.0989,-6.0212,-6.0099,-6.0212,-6.0299,-6.0408,-6.0173,-5.9874,-5.9412,-5.8422,-5.7038,-5.5522,-5.4693,-5.4142,-5.3739,-5.3371,-5.2968,-5.2417,0.0,0.0,0.0,0.0,0.0,0.0,0.0,0.0,-3.1748,-3.2857,-3.41,-3.4599,-3.3776,-3.4871,-3.4939,-3.3131,-3.2908,-3.3766,-3.586,-3.6398,-3.7697,-4.0154,-4.1444,-4.2249,-4.2546,-4.3671,-4.4327,-4.4534,-4.5512,-4.6817,-4.8403,-4.8551,-4.9466,-5.0883,-5.0325,-5.0448,-5.1076,-5.0437,-5.0575,-5.1192,-5.1152,-5.1089,-5.109,-5.1784,-5.2019,-5.2128,-5.3481,-5.3061,-5.2022,-5.3486,-5.3147,-5.2305,-5.3219,-5.3,-5.1982,-4.9935,-5.0035,0.0,0.0,0.0,0.0,0.0,0.0,0.0,0.0,-5.2983,-5.3551,-5.8106,-5.92,-6.0621,-6.4757,-6.6628,-6.8708,-7.205,-7.326,-7.3932,-7.4411,-7.4784,-7.476,-7.4117,-7.4562,-7.4738,-7.4347,-7.4109,-7.4115,-7.4413,-7.431,-7.3897,-7.3183,-7.2245,-7.1266,-7.0335,-6.8338,-6.7177,-6.6945,-6.4268,-6.2818,-6.2588,-6.0929,-6.0129,-6.0099,-6.0129,-6.0256,-6.0408,-6.0313,-6.0068,-5.9585,-5.8219,-5.6927,-5.5757,-5.495,-5.4142,-5.3408,-5.3078,-5.2894,-5.2527,0.0,0.0,0.0,0.0,0.0,0.0,0.0,0.0,0.0,-3.327,-3.3799,-3.4131,-3.3981,-3.4049,-3.3879,-3.3208,-3.3364,-3.4009,-3.5235,-3.597,-3.7344,-3.9577,-4.1254,-4.228,-4.268,-4.3134,-4.3782,-4.4685,-4.5525,-4.6752,-4.8403,-4.9187,-5.0078,-5.1005,-5.0975,-5.105,-5.1191,-5.1101,-5.1109,-5.1174,-5.1076,-5.102,-5.0998,-5.0935,-5.0806,-5.0749,-5.0922,-5.0724,-5.0506,-5.0904,-5.1462,-5.2107,-5.3185,-5.3801,-5.3646,-5.1135,-5.0264,-4.925,-4.5723,-4.6081,-4.8251,-5.1775,-5.2151,-5.3787,0.0,-6.1827,-6.1137,-6.5367,-6.7028,-6.7661,-6.7289,-6.9035,-7.0803,-7.1706,-7.244,-7.3178,-7.3983,-7.4402,-7.4102,-7.2615,-7.3422,-7.4426,-7.5076,-7.4222,-7.4039,-7.5187,-7.461,-7.416,-7.4085,-7.2583,-7.2143,-7.3091,-6.9323,-6.7818,-6.8897,-6.4902,-6.2818,-6.2588,-6.1086,-6.027,-6.0099,-6.0285,-6.0394,-6.0356,-6.0,-5.9622,-5.9234,-5.8679,-5.774,-5.6602,-5.5757,-5.495,-5.4106,-5.2637,-5.1683,-5.0949,0.0,0.0,0.0,0.0,0.0,0.0,0.0,0.0,0.0,0.0,-3.3405,-3.3385,-3.2923,-3.2588,-3.2405,-3.2437,-3.2005,-3.2914,-3.5682,-3.4881,-3.6024,-3.9764,-4.0141,-4.0835,-4.2078,-4.2834,-4.3902,-4.5343,-4.6158,-4.7426,-4.9119,-4.9509,-5.019,-5.1062,-5.1122,-5.1128,-5.1093,-5.1194,-5.1185,-5.1099,-5.1025,-5.0797,-5.0538,-5.0577,-4.9696,-4.853,-4.9471,-4.9053,0.0,0.0,-4.9692,-5.0028,-5.1951,-5.248,-5.2046,-5.0336,-5.0399,-5.0844,-5.0085,-4.9852,-5.0729,-5.4409,-5.6174,-5.8351,-6.3608,-6.3676,-6.3837,-6.7944,-6.882,-6.9015,-6.9495,-7.0588,-7.1636,-7.2258,-7.2606,-7.3062,-7.3905,-7.4167,-7.3585,-7.176,-7.3024,-7.3946,-7.3595,-7.3538,-7.3803,-7.4662,-7.4385,-7.4197,-7.4197,-7.262,-7.1551,-7.1247,-6.8563,-6.6994,-6.6726,-6.4067,-6.2579,-6.2277,-6.0827,-6.006,-5.9998,-6.0076,-6.0212,-6.037,-6.0203,-5.9809,-5.9197,-5.9026,-5.7823,-5.6051,-5.5721,-5.4803,-5.3628,-5.2968,-5.2491,-5.2013,0.0,0.0,0.0,0.0,0.0,0.0,0.0,0.0,0.0,0.0,0.0,-3.2862,-3.2218,-3.1785,-3.1632,-3.1839,-3.1105,-3.193,-3.4994,-3.4154,-3.518,-3.8928,-3.9184,-4.0036,-4.167,-4.271,-4.4035,-4.5812,-4.6862,-4.8144,-4.9613,-4.9937,-5.0464,-5.1113,-5.1144,-5.1123,-5.1054,-5.1208,-5.1162,-5.0992,-5.085,-5.0557,-5.0172,-4.9947,-4.8479,-4.6723,-4.7972,-4.722,0.0,0.0,-4.7228,-4.7674,-4.9807,-5.0666,-5.0642,-4.9406,-4.9547,-5.0389,-5.1864,-5.2137,-5.2924,-5.6743,-5.9514,-6.2049,-6.4957,-6.5305,-6.6023,-6.9527,-6.9613,-6.9424,-7.0731,-7.1178,-7.1622,-7.236,-7.2676,-7.3062,-7.3905,-7.3799,-7.315,-7.1692,-7.2653,-7.3064,-7.2177,-7.2838,-7.3589,-7.4174,-7.3972,-7.3972,-7.4197,-7.2845,-7.1357,-6.9896,-6.8236,-6.6692,-6.5229,-6.3643,-6.261,-6.2086,-6.0825,-6.0113,-5.9902,-5.9998,-6.0167,-6.037,-6.0285,-5.9706,-5.8877,-5.8765,-5.7475,-5.5596,-5.5354,-5.4546,-5.3518,-5.3277,-5.2931,-5.2344,0.0,0.0,0.0,0.0,0.0,0.0,0.0,0.0,0.0,0.0,0.0,0.0,0.0,-3.2165,-3.1987,-3.1797,-3.141,-3.154,-3.2365,-3.4107,-3.5477,-3.6292,-3.8775,-4.064,-4.167,-4.271,-4.4035,-4.5812,-4.7442,-4.8717,-4.9613,-5.0617,-5.1075,-5.1103,-5.1088,-5.116,-5.1182,-5.1183,-5.1162,-5.1052,-5.0526,-5.0269,-5.0052,-4.871,-4.7168,-4.5778,-4.6139,0.0,0.0,-4.277,-4.3803,-4.5485,-4.6606,-4.8775,-5.055,-4.8926,-4.7116,-4.6204,-4.8509,-5.0685,-5.3497,-5.8451,-6.1371,-6.4056,-6.7963,-6.8642,-6.9043,-7.1047,-7.0604,-7.0025,-7.0433,-7.0534,-7.0815,-7.1622,-7.2325,-7.3062,-7.3905,-7.3343,-7.2768,-7.2691,-7.2102,-7.1728,-7.1544,-7.2372,-7.3273,-7.416,-7.3409,-7.3296,-7.416,-7.3334,-7.2244,-7.0801,-6.9141,-6.7542,-6.6081,-6.4396,-6.3096,-6.2086,-6.1376,-6.0643,-5.9902,-6.0226,-6.0408,-6.0394,-5.9969,-5.9135,-5.8014,-5.7617,-5.6726,-5.5522,-5.473,-5.4399,-5.4289,-5.3482,-5.2234,-5.0765,0.0,0.0,0.0,0.0,0.0,0.0,0.0,0.0,0.0,0.0,0.0,0.0,0.0,0.0,0.0,0.0,-3.1837,-3.232,-3.3744,-3.359,-3.4594,-3.7098,-3.7928,-3.9319,-4.1453,-4.2919,-4.449,-4.6186,-4.7315,-4.8355,-4.9402,-4.9784,-5.0392,-5.1151,-5.1171,-5.1021,-5.082,-5.0972,-5.1253,-5.1453,-5.001,-4.9628,-4.9678,-4.737,-4.5411,-4.3895,0.0,0.0,-4.1718,-4.2179,-4.2857,-4.3799,-4.5275,-4.6553,-4.7424,-4.6844,-4.7309,-4.8548,-5.1055,-5.3781,-5.7111,-6.1906,-6.4478,-6.6539,-6.9228,-6.9492,-6.9128,-6.9157,-6.7322,-6.5616,-6.5197,-6.5127,-6.5724,-6.755,-6.9376,-7.1166,-7.2957,-7.3448,-7.3194,-7.205,-7.2713,-7.2642,-7.0934,-7.1576,-7.2245,-7.2545,-7.277,-7.3033,-7.3334,-7.3071,-7.2215,-7.0627,-6.8972,-6.7321,-6.5706,-6.4162,-6.2898,-6.1883,-6.0794,-6.0151,-5.9902,-6.0241,-6.0422,-6.037,-6.027,-5.9349,-5.7994,-5.7866,-5.662,-5.4766,-5.4509,-5.4069,-5.3592,-5.3298,-5.2527,-5.1463,0.0,0.0,0.0,0.0,0.0,0.0,0.0,0.0,0.0,0.0,0.0,0.0,0.0,0.0,0.0,0.0,0.0,-3.2564,-3.3415,-3.3332,-3.4204,-3.6369,-3.7196,-3.858,-4.067,-4.2319,-4.3855,-4.5273,-4.6098,-4.7029,-4.8045,-4.8265,-4.8935,-5.0004,-5.0097,-5.0165,-5.0286,-5.0084,-4.9844,-4.9452,-4.7994,-4.7162,-4.6586,-4.5148,-4.367,0.0,0.0,0.0,-4.0677,-4.1253,-4.2072,-4.2995,-4.398,-4.5,-4.6,-4.6922,-4.8477,-5.0622,-5.413,-5.6901,-5.9791,-6.3905,-6.6079,-6.7542,-6.9019,-6.8882,-6.8189,-6.7281,-6.4582,-6.2108,-6.1336,-6.0949,-6.1406,-6.3477,-6.5549,-6.7971,-7.1131,-7.1763,-7.2105,-7.2649,-7.3273,-7.3127,-7.1743,-7.1696,-7.1719,-7.1719,-7.1907,-7.2282,-7.2883,-7.2883,-7.217,-7.0555,-6.9166,-6.7476,-6.5523,-6.4253,-6.3031,-6.1768,-6.0443,-5.9836,-5.9902,-6.0182,-6.0328,-6.037,-6.0256,-5.9197,-5.7561,-5.7416,-5.6006,-5.3959,-5.3959,-5.3665,-5.3203,-5.3203,-5.2711,-5.1867,0.0,0.0,0.0,0.0,0.0,0.0,0.0,0.0,0.0,0.0,0.0,0.0,0.0,0.0,0.0,0.0,0.0,0.0,-3.1691,-3.342,-3.4402,-3.4367,-3.6658,-3.8402,-3.935,-4.094,-4.2159,-4.3051,-4.3882,-4.4713,-4.5571,-4.6049,-4.669,-4.7469,-4.7733,-4.8332,-4.9101,-4.8177,-4.6814,-4.5308,-4.4592,-4.3096,-4.1372,-4.2159,0.0,0.0,0.0,0.0,-4.0286,-4.0106,-4.1504,-4.3299,-4.3177,-4.4517,-4.6689,-4.9196,-5.0589,-5.2368,-5.7366,-5.9752,-6.153,-6.4503,-6.6163,-6.7104,-6.7366,-6.7031,-6.6336,-6.533,-6.2276,-5.9545,-5.8737,-5.807,-5.8141,-5.9791,-6.1476,-6.4179,-6.8849,-6.8884,-7.0062,-7.4307,-7.3747,-7.3201,-7.3703,-7.2548,-7.1757,-7.1644,-7.093,-7.1193,-7.2733,-7.2845,-7.2132,-7.0555,-6.9616,-6.7964,-6.5523,-6.4622,-6.3345,-6.1768,-6.0319,-5.9719,-5.9902,-6.0022,-6.0226,-6.0356,-5.9984,-5.8677,-5.679,-5.6425,-5.5064,-5.3209,-5.3209,-5.3225,-5.3203,-5.3203,-5.2711,-5.194,0.0,0.0,0.0,0.0,0.0,0.0,0.0,0.0,0.0,0.0,0.0,0.0,0.0,0.0,0.0,0.0,0.0,0.0,-3.3794,-3.4398,-3.4816,-3.4957,-3.671,-3.7543,-3.7253,-3.8826,-4.0077,-4.0886,-4.1218,-4.1773,-4.2506,-4.2961,-4.3123,-4.31,-4.3004,-4.2697,-4.2213,-4.1745,-4.1783,-4.2009,0.0,-4.1301,-4.2128,0.0,0.0,0.0,0.0,-4.1826,-4.1747,-4.216,-4.4671,-4.7741,-4.8499,-4.9958,-5.1649,-5.3005,-5.4907,-5.7119,-5.9755,-6.1951,-6.3937,-6.5703,-6.6142,-6.5952,-6.5365,-6.4703,-6.3311,-6.0256,-5.7568,-5.5191,-5.3296,-5.4173,-5.6104,-5.8843,-6.2494,-6.6426,-7.0534,-7.1412,-7.2246,-7.3904,-7.4435,-7.4232,-7.3101,-7.2744,-7.2094,-7.0893,-7.063,-7.093,-7.1944,-7.2019,-7.1531,-7.0517,-6.9053,-6.7401,-6.5523,-6.3458,-6.2219,-6.1768,-6.0319,-5.9719,-5.9902,-6.0022,-6.0226,-6.037,-6.0299,-5.9064,-5.7159,-5.7062,-5.5673,-5.3583,-5.3583,-5.342,-5.3203,-5.3203,-5.3057,-5.2784,0.0,0.0,0.0,0.0,0.0,0.0,0.0,0.0,0.0,0.0,0.0,0.0,0.0,0.0,0.0,0.0,0.0,0.0,0.0,-3.5002,-3.5301,-3.549,-3.6743,-3.7066,-3.6287,-3.7868,-3.8637,-3.8549,0.0,0.0,-4.0174,-4.0185,-4.0216,-4.0198,-3.9727,-3.932,-3.8963,-3.8486,0.0,0.0,0.0,0.0,0.0,0.0,0.0,0.0,0.0,-4.3077,-4.4156,-4.5975,-4.7576,-4.9164,-5.1299,-5.2893,-5.4353,-5.6327,-5.8211,-6.0075,-6.223,-6.3891,-6.5167,-6.5749,-6.5807,-6.512,-6.2792,-6.1703,-6.0129,-5.6357,-5.3548,-5.14,-5.0101,-5.1189,-5.319,-5.5999,-5.9756,-6.4039,-6.8954,-7.0288,-7.1752,-7.4297,-7.5373,-7.5367,-7.4146,-7.4014,-7.3183,-7.1193,-7.0367,-7.0442,-7.1644,-7.1006,-7.0592,-7.048,-6.8527,-6.65,-6.4472,-6.267,-6.1618,-6.1243,-6.004,-5.9633,-5.9902,-5.9982,-6.0167,-6.0422,-6.0422,-5.9147,-5.7078,-5.7078,-5.5655,-5.3464,-5.3464,-5.3359,-5.3203,-5.3203,-5.3004,-5.2564,0.0,0.0,0.0,0.0,0.0,0.0,0.0,0.0,0.0,0.0,0.0,0.0,0.0,0.0,0.0,0.0,0.0,0.0,0.0,0.0,0.0,-3.6054,-3.6895,-3.6942,-3.603,-3.7359,-3.7548,-3.6444,-3.7072,0.0,0.0,0.0,0.0,0.0,0.0,0.0,0.0,0.0,0.0,0.0,0.0,0.0,0.0,0.0,0.0,0.0,-4.2529,-4.4538,-4.6515,-4.9951,-5.027,-4.9912,-5.3412,-5.5064,-5.6372,-5.9544,-6.0856,-6.188,-6.4453,-6.5361,-6.5523,-6.5177,-6.5192,-6.4209,-6.0026,-5.8529,-5.6924,-5.3043,-5.012,-4.824,-4.8099,-4.8872,-5.0417,-5.305,-5.6104,-6.0317,-6.6602,-6.8076,-7.0272,-7.494,-7.6052,-7.6197,-7.5698,-7.5284,-7.4122,-7.1869,-7.0157,-6.982,-7.1284,-6.997,-6.9428,-6.9804,-6.7626,-6.5373,-6.312,-6.2219,-6.1393,-6.0604,-5.9703,-5.949,-5.9853,-5.9885,-6.006,-6.0342,-6.0408,-5.9072,-5.6859,-5.6859,-5.5455,-5.3272,-5.3272,-5.323,-5.3203,-5.3203,-5.2747,-5.205,0.0,0.0,0.0,0.0,0.0,0.0,0.0,0.0,0.0,0.0,-3.2482,-3.3064,0.0,0.0,0.0,0.0,0.0,0.0,0.0,0.0,0.0,0.0,-3.7749,-3.7505,-3.603,-3.6264,-3.6168,-3.5686,-3.5211,-3.5075,0.0,0.0,0.0,0.0,0.0,0.0,0.0,0.0,0.0,0.0,0.0,0.0,0.0,0.0,0.0,0.0,-4.267,-4.4577,-4.6502,-4.9892,-5.2552,-5.5113,-5.8604,-6.022,-6.123,-6.3245,-6.3483,-6.3488,-6.5302,-6.5499,-6.5177,-6.5035,-6.4068,-6.2023,-5.7753,-5.615,-5.417,-4.9341,-4.7437,-4.6425,-4.5817,-4.7397,-5.0171,-5.4419,-5.7684,-6.2073,-6.8919,-7.0007,-7.1362,-7.4761,-7.5378,-7.5446,-7.5281,-7.4076,-7.2883,-7.1794,-7.0157,-6.9332,-6.9594,-6.9369,-6.8318,-6.6425,-6.5298,-6.4209,-6.312,-6.2219,-6.1393,-6.0604,-5.9703,-5.9418,-5.9668,-5.982,-5.9998,-6.0144,-6.0328,-5.9192,-5.7207,-5.7207,-5.5813,-5.3604,-5.3604,-5.3424,-5.3203,-5.3203,-5.3115,-5.2968,0.0,0.0,0.0,0.0,0.0,0.0,0.0,-3.0212,-3.1004,-3.2983,-3.338,-3.3606,-3.3878,-3.4342,-3.4869,0.0,0.0,0.0,0.0,0.0,0.0,0.0,0.0,0.0,-3.6201,-3.6567,-3.6182,-3.499,0.0,-3.4905,-3.5085,-3.4093,-3.3451,-3.2993,-3.0946,-2.9601,-2.8762,0.0,0.0,0.0,-3.2331,-3.4536,0.0,0.0,0.0,0.0,0.0,-4.5191,-4.704,-5.0009,-5.2531,-5.5122,-5.9099,-6.1085,-6.213,-6.3075,-6.3455,-6.3671,-6.422,-6.4546,-6.4734,-6.4646,-6.3272,-6.0608,-5.5482,-5.3363,-5.1135,-4.6541,-4.4975,-4.467,-4.5512,-4.6941,-4.9327,-5.3403,-5.6135,-6.0097,-6.6951,-6.8681,-7.0628,-7.4332,-7.5411,-7.561,-7.4922,-7.4051,-7.2883,-7.1193,-7.0743,-7.033,-6.9917,-6.9053,-6.7438,-6.496,-6.4096,-6.327,-6.2444,-6.1581,-6.0755,-5.9929,-5.9515,-5.94,-5.9616,-5.9803,-5.9982,-6.0099,-6.0313,-5.9132,-5.7029,-5.7029,-5.5619,-5.3461,-5.3461,-5.3318,-5.3203,-5.3203,-5.3203,-5.313,0.0,0.0,0.0,0.0,0.0,0.0,0.0,-3.0099,-3.1389,-3.3813,-3.4273,-3.4331,-3.4158,-3.4573,-3.4972,0.0,0.0,0.0,0.0,0.0,0.0,0.0,0.0,0.0,0.0,0.0,0.0,-3.4775,-3.4872,0.0,0.0,0.0,0.0,0.0,-3.1126,-2.9652,-2.9088,-2.8517,0.0,0.0,0.0,-3.5292,0.0,0.0,0.0,0.0,0.0,-4.5574,-4.7157,-4.9575,-5.1211,-5.2899,-5.6634,-5.9177,-6.0865,-6.1233,-6.2086,-6.2935,-6.3023,-6.369,-6.4351,-6.4292,-6.279,-5.9748,-5.3939,-5.1362,-4.8988,-4.4776,-4.3325,-4.3465,-4.5582,-4.6484,-4.8091,-5.1678,-5.3768,-5.7335,-6.4207,-6.6678,-6.9372,-7.3763,-7.519,-7.543,-7.4439,-7.3738,-7.2485,-7.0367,-7.048,-7.0442,-6.9992,-6.8189,-6.6237,-6.4096,-6.3233,-6.2407,-6.1543,-6.0905,-6.0154,-5.929,-5.929,-5.9364,-5.9563,-5.9753,-5.9934,-6.0053,-6.0144,-5.891,-5.6772,-5.6683,-5.5283,-5.3203,-5.3203,-5.3203,-5.3203,-5.3203,-5.3203,-5.3115,0.0,0.0,0.0,0.0,0.0,0.0,0.0,-2.9783,-3.125,-3.377,-3.4637,-3.5383,-3.64,-3.6627,-3.6401,0.0,0.0,0.0,0.0,0.0,0.0,0.0,0.0,0.0,0.0,0.0,0.0,-3.5597,-3.4618,0.0,0.0,0.0,0.0,0.0,0.0,-3.0385,-2.9496,-2.8647,0.0,0.0,0.0,0.0,0.0,0.0,0.0,0.0,0.0,-4.4977,-4.6005,-4.7778,-4.8743,-4.9515,-5.1166,-5.4344,-5.7635,-5.8631,-5.9765,-6.1085,-6.2942,-6.3858,-6.4292,-6.4212,-6.2704,-5.9678,-5.3916,-5.1362,-4.8988,-4.4776,-4.3325,-4.3289,-4.4904,-4.5256,-4.648,-5.0051,-5.1989,-5.5643,-6.3084,-6.561,-6.8367,-7.3031,-7.3802,-7.3933,-7.3877,-7.193,-7.0309,-6.9407,-6.8039,-6.7513,-6.8189,-6.5936,-6.4209,-6.3233,-6.2369,-6.1543,-6.0717,-6.0642,-6.0154,-5.929,-5.929,-5.9309,-5.9327,-5.9545,-5.9736,-5.9902,-5.9694,-5.8525,-5.6755,-5.6425,-5.5044,-5.3203,-5.3203,-5.3203,-5.3203,-5.3203,-5.3203,-5.3167,0.0,0.0,0.0,0.0,0.0,0.0,-2.8617,-2.9271,-3.0503,-3.2555,-3.3702,-3.4643,-3.5497,-3.6004,-3.6344,-3.6466,0.0,0.0,0.0,0.0,0.0,0.0,0.0,0.0,0.0,0.0,-3.6699,-3.6054,-3.5146,0.0,0.0,0.0,0.0,0.0,0.0,-3.1356,-3.0804,-2.9929,0.0,0.0,0.0,0.0,0.0,0.0,0.0,0.0,0.0,0.0,-4.5675,-4.6046,-4.6668,-4.7212,-4.6674,-4.8302,-5.1028,-5.3883,-5.6171,-5.8134,-5.993,-6.1834,-6.3416,-6.3749,-6.1018,-5.7311,-5.376,-5.0018,-4.6551,-4.412,-4.3155,-4.3289,-4.4834,-4.5341,-4.6292,-4.8651,-4.9769,-5.2378,-5.8228,-6.0404,-6.3659,-6.987,-7.0666,-7.1292,-7.2869,-7.1369,-6.9784,-6.8581,-6.7438,-6.6687,-6.65,-6.511,-6.3909,-6.312,-6.1768,-6.0905,-6.0604,-6.0079,-5.9628,-5.929,-5.929,-5.929,-5.929,-5.9528,-5.9525,-5.9399,-5.8887,-5.777,-5.6274,-5.5614,-5.4498,-5.3203,-5.3203,-5.3203,-5.3203,-5.3203,-5.3203,-5.3203,0.0,0.0,0.0,0.0,0.0,-2.7921,-2.8323,-2.9025,-3.0056,-3.1756,-3.2934,-3.3897,-3.4771,-3.5241,-3.6026,-3.737,-3.7472,0.0,0.0,0.0,0.0,0.0,0.0,0.0,0.0,0.0,-3.7345,-3.7,-3.624,-3.5988,0.0,0.0,-3.4338,-3.3834,0.0,0.0,0.0,0.0,0.0,0.0,0.0,0.0,0.0,0.0,0.0,0.0,0.0,0.0,0.0,0.0,0.0,-4.5278,-4.3742,-4.3904,-4.545,-4.9205,-5.2508,-5.5227,-5.6776,-5.9734,-6.2426,-6.26,-5.9631,-5.5997,-5.3433,-4.9115,-4.5212,-4.3727,-4.3253,-4.3535,-4.4869,-4.5645,-4.6485,-4.7556,-4.8409,-5.0446,-5.4771,-5.6827,-6.0066,-6.6132,-6.7061,-6.8101,-7.0419,-6.976,-6.866,-6.7363,-6.65,-6.5674,-6.4847,-6.4021,-6.3308,-6.2745,-6.1093,-6.0229,-6.0229,-5.9591,-5.929,-5.929,-5.929,-5.929,-5.929,-5.9345,-5.914,-5.8728,-5.8259,-5.715,-5.5623,-5.5147,-5.428,-5.3203,-5.3203,-5.3203,-5.3203,-5.3203,-5.3203,-5.3167,0.0,0.0,0.0,0.0,0.0,0.0,-2.8297,-2.9076,-3.0191,-3.1788,-3.2595,-3.3547,-3.4935,-3.4876,-3.5696,-3.8156,-3.7606,0.0,0.0,0.0,0.0,0.0,0.0,0.0,0.0,0.0,-3.7896,-3.8689,-3.779,-3.7565,-3.7938,-3.6386,-3.4879,-3.3365,0.0,0.0,0.0,0.0,0.0,0.0,0.0,0.0,0.0,0.0,0.0,0.0,0.0,0.0,0.0,0.0,0.0,0.0,0.0,-4.1935,-4.1955,-4.505,-4.8996,-5.2616,-5.3993,-5.7898,-6.1422,-6.0627,-5.8947,-5.6516,-5.2823,-4.9151,-4.592,-4.3835,-4.3642,-4.4132,-4.494,-4.6105,-4.689,-4.6926,-4.8363,-5.0639,-5.397,-5.6187,-5.8714,-6.2057,-6.3193,-6.4353,-6.6104,-6.65,-6.6336,-6.5578,-6.4772,-6.3946,-6.3158,-6.2294,-6.1806,-6.1806,-6.0191,-5.929,-5.929,-5.929,-5.929,-5.929,-5.929,-5.929,-5.929,-5.8947,-5.8479,-5.7904,-5.7972,-5.6786,-5.4825,-5.5251,-5.451,-5.3203,-5.3203,-5.3203,-5.3203,-5.3203,-5.3203,-5.3203,0.0,0.0,0.0,0.0,0.0,0.0,0.0,-2.7826,-2.8419,-2.8923,-2.9974,-3.1426,-3.3315,-3.3846,-3.5331,-3.8394,-3.8173,0.0,0.0,0.0,0.0,0.0,0.0,0.0,0.0,0.0,-3.8643,-3.9533,-3.8635,-3.8172,-3.8087,-3.6458,-3.4936,-3.3588,-3.2924,-3.2451,0.0,0.0,0.0,0.0,0.0,0.0,0.0,0.0,0.0,0.0,0.0,0.0,0.0,0.0,0.0,0.0,0.0,0.0,0.0,-4.1522,-4.4422,-4.7848,-4.9948,-5.243,-5.4539,-5.4961,-5.3151,-5.091,-4.9725,-4.6818,-4.4108,-4.3165,-4.394,-4.4793,-4.4774,-4.6175,-4.7449,-4.7663,-4.8726,-5.0114,-5.1981,-5.4301,-5.7249,-6.1113,-6.4822,-6.6886,-6.6389,-6.6506,-6.6298,-6.554,-6.4735,-6.4172,-6.3909,-6.2557,-6.1543,-6.1017,-5.9891,-5.929,-5.929,-5.929,-5.929,-5.929,-5.929,-5.9178,-5.8947,-5.8848,-5.8157,-5.6999,-5.644,-5.5404,-5.4093,-5.377,-5.3412,-5.3082,-5.3146,-5.3203,-5.3203,-5.3203,-5.3203,-5.3093,0.0,0.0,0.0,0.0,0.0,0.0,0.0,-2.7562,-2.7885,-2.7627,-2.8796,-3.0379,-3.2257,-3.347,-3.5435,-3.8608,-3.9042,0.0,0.0,0.0,0.0,0.0,0.0,0.0,0.0,-3.8679,-3.9385,-4.0092,-3.9458,-3.8825,-3.8091,-3.651,-3.4849,-3.3271,-3.2918,-3.2555,0.0,0.0,0.0,0.0,0.0,0.0,-4.2356,0.0,0.0,0.0,0.0,0.0,0.0,0.0,0.0,0.0,0.0,0.0,0.0,0.0,-4.1223,-4.3496,-4.6237,-4.877,-5.0784,-5.1272,-4.9831,-4.8216,-4.7922,-4.5534,-4.3318,-4.3087,-4.4174,-4.51,-4.489,-4.6499,-4.7876,-4.7909,-4.8685,-4.9799,-5.1237,-5.3232,-5.5986,-5.9812,-6.3855,-6.5978,-6.5111,-6.5624,-6.5919,-6.554,-6.4735,-6.4021,-6.3383,-6.2369,-6.128,-6.0154,-5.9591,-5.929,-5.929,-5.929,-5.929,-5.929,-5.929,-5.914,-5.8788,-5.833,-5.7439,-5.6113,-5.5501,-5.4487,0.0,-5.3285,-5.3164,-5.3002,-5.3146,-5.3004,-5.2747,-5.2747,-5.2564,-5.2176,0.0,0.0,0.0,0.0,0.0,0.0,0.0,-2.812,-2.8296,-2.7611,-2.8792,-3.0285,-3.175,-3.3609,-3.5971,-3.8948,0.0,0.0,0.0,0.0,0.0,0.0,0.0,0.0,-3.8903,-3.9591,-4.0128,-4.0492,-4.0202,-3.9365,-3.8036,-3.6494,-3.4668,-3.2706,-3.2706,-3.2467,0.0,0.0,0.0,0.0,0.0,0.0,0.0,0.0,0.0,0.0,0.0,0.0,0.0,0.0,0.0,0.0,0.0,0.0,0.0,0.0,0.0,0.0,0.0,-4.6411,-4.9224,-4.8901,-4.8409,-4.7774,-4.6985,-4.5094,0.0,-4.3497,-4.4473,-4.5316,-4.5312,-4.6956,-4.817,-4.7747,-4.8437,-4.9713,-5.165,-5.3262,-5.5391,-5.8512,-6.1076,-6.2612,-6.2662,-6.414,-6.516,-6.5295,-6.4585,-6.3458,-6.1881,-6.1731,-6.098,-5.944,-5.9328,-5.929,-5.929,-5.929,-5.929,-5.929,-5.929,-5.912,-5.871,-5.7603,-5.6485,-5.5336,-5.4965,-5.3963,-5.2663,-5.354,-5.3543,-5.298,-5.3051,-5.2653,-5.1977,-5.194,-5.1426,-5.0652,0.0,0.0,0.0,0.0,0.0,0.0,0.0,0.0,0.0,0.0,-2.7952,-2.9676,-3.1959,-3.406,-3.6617,0.0,0.0,0.0,0.0,0.0,0.0,0.0,0.0,0.0,-4.0837,-4.037,-4.0528,-4.1324,-4.0207,-3.9392,-3.8802,-3.6515,-3.4729,-3.341,-3.3018,-3.3362,0.0,0.0,0.0,0.0,0.0,0.0,0.0,0.0,0.0,0.0,-4.3335,-4.3318,0.0,0.0,0.0,0.0,0.0,0.0,0.0,0.0,-3.9315,-3.9568,-4.0866,0.0,-4.2757,-4.3288,-4.4247,-4.4815,0.0,-4.434,-4.4757,-4.4448,-4.5363,-4.6282,-4.6598,-4.7552,-4.8334,-4.843,-4.9464,-5.0749,-5.2098,-5.5865,-5.8995,-6.0444,-6.2784,-6.3795,-6.2742,-6.3553,-6.3974,-6.3381,-6.2698,-6.2158,-6.1746,-6.1089,-6.0603,-6.0304,-5.9666,-5.929,-5.929,-5.929,-5.929,-5.929,-5.929,-5.9004,-5.8391,-5.7476,-5.633,-5.4978,-5.4302,-5.3445,-5.2549,-5.2808,-5.2885,-5.2813,-5.23,-5.2077,-5.194,-5.1316,-5.0949,-5.0652,0.0,0.0,0.0,0.0,0.0,0.0,0.0,0.0,0.0,0.0,0.0,0.0,0.0,0.0,0.0,0.0,0.0,0.0,0.0,0.0,0.0,0.0,0.0,-4.087,-4.1013,-4.0871,-4.0769,-4.0627,-3.9986,-3.9,-3.7729,-3.6103,-3.4769,-3.3752,-3.3923,-3.4558,0.0,0.0,0.0,0.0,-4.0106,0.0,0.0,0.0,0.0,0.0,-4.2674,-4.2616,0.0,-4.1103,-4.0603,-4.0339,0.0,0.0,0.0,0.0,-3.9315,-3.9468,-4.0195,-4.0656,-4.1126,-4.195,-4.3379,-4.4292,-4.3316,-4.4235,-4.5189,-4.4777,-4.5648,-4.6685,-4.7274,-4.8329,-4.9048,-4.8818,-5.0353,-5.2163,-5.3943,-5.7164,-5.9812,-6.1038,-6.2673,-6.3424,-6.2662,-6.3025,-6.2993,-6.2234,-6.181,-6.1439,-6.1065,-6.0616,-6.0244,-5.9965,-5.944,-5.9197,-5.929,-5.929,-5.9215,-5.9082,-5.9082,-5.8541,-5.7486,-5.6698,-5.5578,-5.4291,-5.3494,-5.2915,-5.2503,-5.2581,-5.2635,-5.2666,-5.2038,-5.1632,-5.1255,-5.0525,-4.9994,-4.9515,0.0,0.0,0.0,0.0,0.0,0.0,0.0,0.0,0.0,0.0,0.0,0.0,0.0,0.0,0.0,0.0,0.0,0.0,0.0,0.0,0.0,0.0,0.0,-4.1119,-4.0835,-4.1286,-4.0907,-3.964,-3.9571,-3.8384,-3.6137,-3.5661,-3.4912,-3.4081,-3.503,-3.576,0.0,0.0,-3.8768,-4.0038,-4.0377,0.0,0.0,0.0,0.0,0.0,0.0,0.0,0.0,-4.0886,-4.059,-4.0446,-3.948,0.0,0.0,0.0,0.0,0.0,-4.0356,-4.138,-4.229,-4.2544,-4.3957,-4.4926,-4.3528,-4.4326,-4.5271,-4.4944,-4.5648,-4.6661,-4.785,-4.9076,-4.9764,-4.9248,-5.125,-5.3737,-5.6115,-5.7992,-5.9515,-6.0667,-6.1744,-6.2345,-6.2194,-6.2215,-6.1959,-6.1276,-6.1147,-6.0795,-6.0122,-6.0085,-5.9809,-5.9195,-5.8931,-5.8895,-5.9065,-5.9028,-5.8932,-5.8808,-5.8486,-5.7746,-5.6589,-5.5637,-5.4665,-5.3675,-5.2842,-5.248,-5.248,-5.2559,-5.2518,-5.2358,-5.1791,-5.1073,-5.033,-4.9515,-4.8746,-4.7974,0.0,0.0,0.0,0.0,0.0,0.0,0.0,0.0,0.0,0.0,0.0,0.0,0.0,0.0,0.0,0.0,0.0,0.0,0.0,0.0,0.0,-4.2759,-4.2778,-4.2759,-4.2756,-4.1665,-4.0826,-4.0268,-3.8997,-3.7552,-3.6013,-3.5695,-3.5402,-3.5207,-3.5735,-3.6384,-3.7107,-3.8169,-3.9006,-3.9663,-4.0317,0.0,0.0,0.0,0.0,0.0,0.0,0.0,0.0,-4.0201,-4.002,-4.0179,-3.9195,0.0,0.0,0.0,0.0,0.0,-4.1137,-4.315,-4.447,-4.2298,-4.3775,-4.5108,-4.2915,-4.4099,-4.5717,-4.5736,-4.5574,-4.6364,-4.9224,-4.9373,-4.9378,-5.0262,-5.2488,-5.488,-5.7023,-5.9329,-6.0407,-5.9218,-6.1038,-6.1856,-6.0465,-6.0439,-6.0385,-6.0152,-5.9603,-5.9255,-5.9106,-5.9106,-5.9092,-5.9024,-5.8331,-5.8014,-5.8034,-5.7859,-5.8134,-5.8788,-5.713,-5.6424,-5.6553,-5.5052,-5.4118,-5.3675,-5.2842,-5.248,-5.248,-5.2503,-5.2173,-5.1573,-5.078,-5.0086,-4.9431,-4.7951,-4.7349,-4.713,0.0,0.0,0.0,0.0,0.0,0.0,0.0,0.0,0.0,0.0,0.0,0.0,0.0,0.0,0.0,0.0,0.0,0.0,0.0,0.0,0.0,-4.2353,-4.2118,-4.2165,-4.2505,-4.1213,-4.0222,-3.9476,-3.8442,-3.7203,-3.579,-3.5595,-3.5627,-3.5947,-3.6855,-3.7811,-3.8724,-3.971,-4.0319,-4.0664,0.0,0.0,0.0,0.0,0.0,0.0,0.0,0.0,0.0,0.0,-3.9927,-4.0113,-3.9115,0.0,0.0,0.0,0.0,0.0,-4.1057,-4.2773,-4.4128,-4.3092,-4.5586,-4.7783,-4.5842,-4.6065,-4.6746,-4.6825,-4.6507,-4.6945,-4.9362,-5.038,-5.1658,-5.4004,-5.4576,-5.5377,-5.7229,-5.8475,-5.9069,-5.8735,-6.011,-6.0741,-5.9998,-5.9966,-5.978,-5.9292,-5.8962,-5.8797,-5.8797,-5.8797,-5.8635,-5.8271,-5.7839,-5.7505,-5.7154,-5.6117,-5.6113,-5.7101,-5.5941,-5.5299,-5.501,-5.4259,-5.3585,-5.3023,-5.219,-5.1828,-5.1828,-5.1357,-5.1294,-5.1266,-5.0061,-4.9752,-4.9715,-4.7768,-4.7349,-4.7567,0.0,0.0,0.0,0.0,0.0,0.0,0.0,0.0,0.0,0.0,0.0,0.0,0.0,0.0,0.0,0.0,0.0,0.0,0.0,0.0,-4.1468,-4.1687,-4.1196,-4.115,-4.1644,-4.0664,-3.9623,-3.864,-3.8051,-3.7115,-3.5817,-3.5808,-3.6035,-3.663,-3.8044,-3.909,-3.9893,-4.0767,-4.1186,-4.1255,0.0,0.0,0.0,0.0,0.0,0.0,0.0,0.0,0.0,0.0,0.0,0.0,0.0,0.0,0.0,-3.9884,-4.0204,-4.0621,-4.1019,-4.241,-4.3809,-4.4096,-4.6671,-4.8946,-4.814,-4.7608,-4.7544,-4.8279,-4.7955,-4.8086,-4.9911,-5.1656,-5.3757,-5.6469,-5.6172,-5.6097,-5.7583,-5.7955,-5.8215,-5.8661,-5.9383,-5.9828,-5.9664,-5.9605,-5.9367,-5.8772,-5.8549,-5.8512,-5.8698,-5.8364,-5.7996,-5.7593,-5.7141,-5.6697,-5.6219,-5.4464,-5.429,-5.561,-5.4752,-5.3976,-5.3327,-5.3217,-5.2697,-5.19,-5.1104,-5.0741,-5.0669,-5.0053,-5.0053,-5.0365,-4.9437,-4.9252,-4.9341,-4.7696,-4.7459,-4.7802,0.0,0.0,0.0,0.0,0.0,0.0,0.0,0.0,0.0,0.0,0.0,0.0,0.0,0.0,0.0,0.0,0.0,0.0,0.0,0.0,-4.1468,-4.1687,-4.0885,-4.0577,-4.0873,-4.0251,-3.9458,-3.8502,-3.7908,-3.7207,-3.6445,-3.6746,-3.7032,-3.7385,-3.9056,-3.9716,-3.968,-4.0601,-4.0683,-4.0238,-4.0417,0.0,0.0,0.0,0.0,0.0,0.0,0.0,0.0,0.0,0.0,0.0,0.0,0.0,-3.9884,-3.9884,-4.0377,-4.1022,-4.1454,-4.3232,-4.4986,-4.501,-4.5245,-4.5831,-4.7156,-4.7145,-4.7612,-5.0385,-4.9956,-4.9814,-5.1954,-5.3106,-5.4054,-5.502,-5.6395,-5.7621,-5.8512,-5.9255,-5.9457,-5.8772,-5.9383,-5.9627,-5.8884,-5.8809,-5.8772,-5.8698,-5.8029,-5.7918,-5.8661,-5.7286,-5.6803,-5.7472,-5.5986,-5.5169,-5.5114,-5.3324,-5.3399,-5.5294,-5.3289,-5.2294,-5.2222,-5.17,-5.1031,-5.0257,-4.9438,-4.9054,-4.9054,-4.9018,-4.8583,-4.8025,-4.8677,-4.8151,-4.7063,-4.7074,-4.7093,-4.707,0.0,0.0,0.0,0.0,0.0,0.0,0.0,0.0,0.0,0.0,0.0,0.0,0.0,0.0,0.0,0.0,0.0,0.0,0.0,-4.0135,-4.0259,-4.0563,-4.0028,-3.9799,-3.9978,-3.948,-3.9055,-3.8706,-3.8084,-3.7415,-3.6754,-3.7307,-3.7814,-3.8315,-3.9176,-3.9902,-4.048,-4.0943,-4.1013,-4.0907,-4.0802,-4.0538,0.0,0.0,0.0,0.0,0.0,0.0,0.0,0.0,-4.0418,-4.0707,-4.0353,-4.0377,-4.0524,-4.0303,-4.0597,-4.1047,-4.1181,-4.2954,-4.4673,-4.4436,-4.4729,-4.5844,-4.8622,-4.8548,-4.8455,-5.0295,-5.0941,-5.16,-5.3066,-5.4017,-5.4834,-5.5689,-5.6766,-5.7769,-5.8586,-5.8958,-5.9032,-5.8735,-5.8995,-5.9032,-5.8735,-5.8252,-5.7955,-5.7955,-5.7212,-5.6878,-5.7212,-5.6617,-5.6209,-5.5949,-5.5354,-5.4537,-5.3534,-5.2718,-5.1955,-5.1239,-5.1,-5.0771,-5.0592,-5.0397,-4.9956,-4.9329,-4.9039,-4.8909,-4.8837,-4.8366,-4.8257,-4.8496,-4.8871,-4.8416,-4.7481,-4.7085,-4.729,-4.7656,0.0,0.0,0.0,0.0,0.0,0.0,0.0,0.0,0.0,0.0,0.0,0.0,0.0,0.0,0.0,0.0,0.0,0.0,-3.9664,-3.9563,-3.9596,-3.9884,-3.9494,-3.9342,-3.9448,-3.9121,-3.8931,-3.8788,-3.8341,-3.7814,-3.7237,-3.8272,-3.8947,-3.9364,-3.9998,-4.0709,-4.1429,-4.1428,-4.1265,-4.1094,-4.1149,-4.0803,0.0,0.0,0.0,0.0,0.0,0.0,0.0,0.0,-4.0723,-4.0954,-4.0683,-4.0754,-4.0931,-4.0538,-4.0683,-4.0954,-4.0717,-4.1901,-4.3272,-4.3458,-4.3889,-4.5361,-4.9376,-4.9405,-4.9203,-5.1429,-5.2029,-5.2368,-5.3187,-5.36,-5.4201,-5.5138,-5.6314,-5.7398,-5.8215,-5.8103,-5.8029,-5.8289,-5.8103,-5.7955,-5.7955,-5.7435,-5.7138,-5.7138,-5.6357,-5.6023,-5.6283,-5.58,-5.5354,-5.502,-5.45,-5.372,-5.2605,-5.204,-5.0897,-4.917,-4.9389,-4.9054,-4.8373,-4.8762,-4.8632,-4.8027,-4.8091,-4.8134,-4.8076,-4.7554,-4.7808,-4.8532,-4.8659,-4.8416,-4.7915,-4.7352,-4.7574,-4.7995,0.0,0.0,0.0,0.0,0.0,0.0,0.0,0.0,0.0,0.0,0.0,0.0,0.0,0.0,0.0,0.0,0.0,0.0,-3.9276,-3.9648,-3.9884,-3.9884,-3.9494,-3.9315,-3.9315,-3.9315,-3.9121,-3.8821,-3.8646,-3.838,-3.7947,-3.9768,-4.0545,-4.0541,-4.161,-4.2215,-4.2346,-4.2053,-4.1311,-4.0451,-4.1212,-4.0858,-4.0011,0.0,0.0,0.0,0.0,0.0,0.0,0.0,-4.0378,-4.1001,-4.1001,-4.1001,-4.0931,-4.0514,-4.0683,-4.0836,-4.0113,-4.0154,-4.0768,-4.2219,-4.2628,-4.392,-4.8951,-4.9323,-4.9828,-5.4171,-5.3326,-5.1892,-5.2249,-5.1814,-5.1806,-5.2904,-5.4909,-5.658,-5.7398,-5.6803,-5.6617,-5.7398,-5.6803,-5.632,-5.632,-5.6283,-5.6283,-5.6283,-5.5466,-5.5354,-5.6209,-5.4686,-5.4128,-5.4946,-5.3423,-5.2568,-5.2568,-5.1259,-5.0373,-4.9945,-4.867,-4.7144,-4.5457,-4.6784,-4.6967,-4.6212,-4.6422,-4.6504,-4.6504,-4.6504,-4.6975,-4.7699,-4.784,-4.7881,-4.7902,-4.7951,-4.7968,-4.7881,0.0,0.0,0.0,0.0,0.0,0.0,0.0,0.0,0.0,0.0,0.0,0.0,0.0,0.0,0.0,0.0,0.0,0.0,-3.8135,-3.8697,-3.8958,-3.8709,-3.907,-3.9315,-3.9315,-3.9315,-3.904,-3.8451,-3.8874,-3.8763,-3.8197,-3.9214,-3.9806,-4.0109,-4.066,-4.1099,-4.1418,-4.1313,-4.0919,-4.0461,-4.0883,-4.0601,-4.0011,0.0,0.0,0.0,0.0,0.0,0.0,0.0,0.0,0.0,-4.1001,-4.1157,-4.1224,-4.0578,-4.0644,-4.0773,-4.007,-4.0754,-4.1816,-4.244,-4.3405,-4.5029,-4.8083,-4.8383,-4.9248,-5.3468,-5.2924,-5.2064,-5.3389,-5.3078,-5.281,-5.3469,-5.4608,-5.5689,-5.6543,-5.6469,-5.6395,-5.6617,-5.6469,-5.632,-5.632,-5.5243,-5.4537,-5.4537,-5.3237,-5.2568,-5.2828,-5.2382,-5.2234,-5.2457,-5.2011,-5.1454,-5.0859,-5.0669,-4.9553,-4.7446,-4.7331,-4.6895,-4.6271,-4.6868,-4.6757,-4.619,-4.6979,-4.7337,-4.7337,-4.7337,-4.7482,-4.7699,-4.772,-4.7819,-4.7881,-4.7804,-4.7861,-4.7881,0.0,0.0,0.0,0.0,0.0,0.0,0.0,0.0,0.0,0.0,0.0,0.0,0.0,0.0,0.0,0.0,0.0,0.0,0.0,-3.8555,-3.872,-3.8228,-3.8891,-3.9315,-3.9315,-3.958,-3.9418,-3.8701,-3.9094,-3.9094,-3.8733,-3.9418,-3.9954,-4.0314,-4.051,-4.0836,-4.1202,-4.0892,-4.0686,-4.0654,-4.1141,-4.1208,-4.1078,0.0,0.0,0.0,0.0,0.0,0.0,0.0,0.0,0.0,-4.0457,-4.0655,-4.0948,-4.0356,-4.0333,-4.0438,-4.018,-4.0983,-4.211,-4.3176,-4.4344,-4.5776,-4.7788,-4.8971,-5.0467,-5.3509,-5.2491,-5.1533,-5.3051,-5.2666,-5.2328,-5.3093,-5.395,-5.4834,-5.5652,-5.5503,-5.5429,-5.5763,-5.5206,-5.4834,-5.4834,-5.3645,-5.2865,-5.2865,-5.1936,-5.1416,-5.1416,-5.1416,-5.1416,-5.1416,-5.1045,-5.0636,-5.0116,-4.9972,-4.8908,-4.6887,-4.6773,-4.6462,-4.6023,-4.6018,-4.5851,-4.5574,-4.672,-4.7228,-4.7265,-4.7569,-4.7699,-4.7699,-4.7699,-4.7777,-4.7819,-4.772,-4.7777,-4.7819,0.0,0.0,0.0,0.0,0.0,0.0,0.0,0.0,0.0,0.0,0.0,0.0,0.0,0.0,0.0,0.0,0.0,0.0,0.0,0.0,-3.8984,-3.8202,-3.8891,-3.9315,-3.9415,-4.0078,-4.0044,-3.9315,-3.9381,-3.9381,-3.9315,-4.0011,-4.0521,-4.0879,-4.086,-4.1068,-4.1433,-4.07,-4.0552,-4.0875,-4.1554,-4.2117,-4.2475,-4.2415,0.0,0.0,0.0,0.0,0.0,0.0,0.0,0.0,-3.9487,-3.9685,-4.0245,-3.9885,-3.9858,-4.0024,-4.0392,-4.0945,-4.1972,-4.4224,-4.545,-4.6495,-4.8112,-5.0351,-5.2478,-5.3707,-5.2103,-5.0764,-5.1782,-5.1203,-5.09,-5.1933,-5.2842,-5.3716,-5.442,-5.394,-5.3774,-5.4516,-5.3366,-5.2494,-5.2494,-5.1751,-5.1268,-5.1193,-5.1156,-5.1156,-5.1082,-5.1119,-5.1156,-5.1156,-5.0413,-4.9968,-4.9893,-4.915,-4.8329,-4.7373,-4.6633,-4.5825,-4.4999,-4.472,-4.4607,-4.4707,-4.5884,-4.6432,-4.6576,-4.7301,-4.7627,-4.7699,-4.7699,-4.7699,-4.7699,-4.7699,-4.7663,-4.7627,0.0,0.0,0.0,0.0,0.0,0.0,0.0,0.0,0.0,0.0,0.0,0.0,0.0,0.0,0.0,0.0,0.0,0.0,0.0,0.0,-3.8984,-3.8202,-3.8891,-3.958,-4.0144,-4.0343,-4.0044,-3.9315,-3.9879,-3.9879,-3.9315,-3.9448,-3.9727,-4.0145,-4.012,-4.0316,-4.0631,-4.0197,-4.0062,-4.0135,-4.0554,-4.0807,-4.0895,-4.088,-4.0942,0.0,0.0,0.0,0.0,0.0,0.0,0.0,-3.8221,-3.8723,-3.9465,-3.9127,-3.9644,-4.0419,-4.1039,-4.1309,-4.2071,-4.4854,-4.6974,-4.8596,-4.9373,-4.9804,-5.0341,-5.1409,-5.1622,-5.1643,-5.1667,-5.0986,-5.0458,-5.0488,-5.0693,-5.0894,-5.104,-5.1238,-5.144,-5.1587,-5.1638,-5.1676,-5.1676,-5.0896,-5.0116,-4.9485,-4.9447,-4.915,-4.8519,-4.9076,-4.9447,-4.9447,-4.9262,-4.8853,-4.8221,-4.8036,-4.7223,-4.5707,-4.5562,-4.4979,-4.4156,-4.4458,-4.4799,-4.5168,-4.545,-4.5924,-4.6504,-4.6685,-4.712,-4.7699,-4.7699,-4.7699,-4.7699,-4.7699,-4.7301,-4.6866,0.0,0.0,0.0,0.0,0.0,0.0,0.0,0.0,0.0,0.0,0.0,0.0,0.0,0.0,0.0,0.0,0.0,0.0,0.0,0.0,0.0,-3.8725,-3.9116,-3.9481,-3.9879,-4.0243,-4.0044,-3.9315,-4.0044,-4.0011,-3.9315,-3.968,-3.9754,-3.9633,-4.0,-4.0038,-3.9876,-3.9677,-3.9833,-4.0141,-4.0325,-4.0722,-4.1189,-4.1,-4.0858,-4.0717,-4.0578,0.0,0.0,0.0,0.0,0.0,0.0,0.0,-3.828,-3.8453,-3.8909,-3.9653,-4.1044,-4.191,-4.3164,-4.6113,-4.7736,-4.8696,-4.9213,-4.892,-4.8801,-4.9785,-5.0177,-5.0286,-5.0114,-4.9991,-4.983,-4.968,-4.9856,-5.001,-5.001,-5.0205,-5.0352,-5.0352,-5.0461,-5.0323,-4.9954,-4.9341,-4.863,-4.7813,-4.7738,-4.7553,-4.7144,-4.7516,-4.7738,-4.7738,-4.7367,-4.7144,-4.7144,-4.6547,-4.5902,-4.518,-4.4602,-4.3913,-4.3156,-4.3728,-4.4052,-4.415,-4.4548,-4.4947,-4.5381,-4.578,-4.6178,-4.654,-4.654,-4.654,-4.654,-4.654,-4.654,-4.6504,0.0,0.0,0.0,0.0,0.0,0.0,0.0,0.0,0.0,0.0,0.0,0.0,0.0,0.0,0.0,0.0,0.0,0.0,0.0,0.0,0.0,0.0,-3.9381,-3.9348,-3.9481,-4.0111,-4.0044,-3.9315,-4.0044,-4.0144,-3.968,-4.0177,-4.0144,-3.968,-4.0177,-4.0078,-3.9481,-3.9348,-3.9647,-4.021,-4.021,-4.0815,-4.168,-4.1265,-4.0886,-4.0562,-4.0372,-4.0221,-3.9904,-3.8687,0.0,0.0,0.0,0.0,-3.7433,-3.8004,-3.8295,-3.8825,-4.0845,-4.2638,-4.4622,-4.7173,-4.7901,-4.8065,-4.8348,-4.7866,-4.7627,-4.8333,-4.8448,-4.8382,-4.8319,-4.8654,-4.8936,-4.8793,-4.9098,-4.9334,-4.9334,-4.94,-4.9444,-4.9444,-4.9175,-4.8742,-4.814,-4.7645,-4.7077,-4.6364,-4.6401,-4.6438,-4.629,-4.6401,-4.6513,-4.6513,-4.5844,-4.5769,-4.629,-4.5301,-4.4803,-4.4782,-4.353,-4.2695,-4.2343,-4.2807,-4.3017,-4.2937,-4.3607,-4.3969,-4.415,-4.4802,-4.5164,-4.5309,-4.5309,-4.5309,-4.5309,-4.5309,-4.5635,-4.5997,0.0,0.0,0.0,0.0,0.0,0.0,0.0,0.0,0.0,0.0,0.0,0.0,0.0,0.0,0.0,0.0,0.0,0.0,0.0,0.0,0.0,-4.0243,-3.9647,-3.9613,-4.0243,-4.0343,-4.0044,-3.9315,-4.0044,-4.0647,-4.111,-4.0613,-4.0647,-4.111,-4.0641,-4.0343,-4.021,-3.958,-3.9348,-3.9448,-3.9448,-3.9754,-4.0137,-3.9744,-3.9341,-3.9037,-3.9371,-3.9006,-3.8453,-3.8651,-3.8539,0.0,0.0,0.0,-3.807,-3.8195,-3.8659,-3.9454,-4.1011,-4.3429,-4.5748,-4.6775,-4.7537,-4.7868,-4.7269,-4.6882,-4.6596,-4.6408,-4.7251,-4.7891,-4.7627,-4.7613,-4.7452,-4.6724,-4.6667,-4.6716,-4.6716,-4.705,-4.7326,-4.7326,-4.7024,-4.6928,-4.7148,-4.6562,-4.5931,-4.5493,-4.6104,-4.6178,-4.5509,-4.6104,-4.6513,-4.6513,-4.6401,-4.6067,-4.5472,-4.5291,-4.4518,-4.308,-4.1787,-4.1567,-4.2308,-4.1861,-4.2111,-4.2901,-4.2991,-4.3481,-4.4114,-4.4222,-4.4657,-4.5309,-4.5309,-4.5309,-4.5309,-4.5309,-4.491,-4.4512,0.0,0.0,0.0,0.0,0.0,0.0,0.0,0.0,0.0,0.0,0.0,0.0,0.0,0.0,0.0,0.0,0.0,0.0,0.0,0.0,0.0,-3.9779,-3.9481,-3.9448,-3.9779,-3.9779,-3.9613,-3.9315,-3.9613,-4.0315,-4.1409,-4.1541,-4.1972,-4.2605,-4.2336,-4.174,-4.0912,-4.021,-3.968,-3.9315,-3.9315,-3.9422,-3.9566,-3.9615,-3.9374,-3.9032,-3.8999,-3.8746,-3.8481,-3.8434,-3.8196,-3.7946,-3.797,0.0,0.0,0.0,-3.8427,-3.9156,-4.1409,-4.3234,-4.4953,-4.651,-4.7139,-4.7404,-4.7504,-4.6768,-4.6203,-4.6538,-4.6398,-4.6305,-4.6675,-4.673,-4.655,-4.5974,-4.5531,-4.5217,-4.5192,-4.5029,-4.4988,-4.5175,-4.5329,-4.5276,-4.5028,-4.4885,-4.4675,-4.4271,-4.4546,-4.472,-4.4581,-4.4915,-4.5101,-4.5101,-4.4655,-4.4469,-4.4581,-4.3906,-4.3192,-4.2462,-4.1324,-4.1313,-4.2272,-4.1685,-4.1969,-4.2901,-4.2901,-4.3118,-4.3425,-4.3425,-4.3643,-4.3969,-4.3969,-4.3969,-4.3969,-4.3969,-4.4005,-4.4077,0.0,0.0,0.0,0.0,0.0,0.0,0.0,0.0,0.0,0.0,0.0,0.0,0.0,0.0,0.0,0.0,0.0,0.0,0.0,0.0,0.0,-3.9282,-3.9315,-3.9315,-3.9315,-3.9315,-3.9315,-3.9315,-3.9315,-4.0117,-4.1678,-4.2241,-4.3138,-4.4271,-4.3998,-4.3035,-4.1612,-4.0945,-4.0315,-3.9812,-3.9249,-3.9017,-3.9043,-3.9461,-3.9318,-3.8864,-3.8974,-3.8982,-3.8893,-3.8631,-3.8418,-3.8311,-3.8553,-3.8174,0.0,0.0,0.0,-3.8957,-4.111,-4.234,-4.3466,-4.5317,-4.6046,-4.6444,-4.6808,-4.6179,-4.5696,-4.6269,-4.5518,-4.4981,-4.5717,-4.5955,-4.5835,-4.5243,-4.4699,-4.4249,-4.4026,-4.3608,-4.3399,-4.3722,-4.3986,-4.3942,-4.3458,-4.3488,-4.3445,-4.3249,-4.3335,-4.3543,-4.3844,-4.3939,-4.3986,-4.3986,-4.3429,-4.3392,-4.3986,-4.2884,-4.2359,-4.2342,-4.1345,-4.1375,-4.2272,-4.1743,-4.2008,-4.2901,-4.2901,-4.2901,-4.2901,-4.2901,-4.2901,-4.2901,-4.2901,-4.2901,-4.2901,-4.2901,-4.3281,-4.3715,0.0,0.0,0.0,0.0,0.0,0.0,0.0,0.0,0.0,0.0,0.0,0.0,-3.875,-3.8226,-3.7959,-3.8427,0.0,0.0,0.0,0.0,0.0,-3.9282,-3.9315,0.0,-3.9315,-3.9315,-3.9315,-3.9315,-3.9315,-4.0382,-4.244,-4.2473,-4.3812,-4.6127,-4.5127,-4.3827,-4.2373,-4.1674,-4.1342,-4.1082,-3.909,-3.8261,-3.8288,-3.869,-3.8394,-3.7884,-3.9296,-3.9594,-3.9337,-3.9687,-3.9792,-3.9783,-3.9791,-3.9532,-3.9183,0.0,0.0,0.0,-3.9415,-4.0481,-4.1711,-4.2506,-4.3794,-4.4622,-4.3962,-4.4324,-4.4707,-4.4505,-4.4389,-4.4463,-4.4899,-4.5328,-4.5243,-4.4068,-4.3878,-4.3605,-4.2946,-4.3113,-4.3301,-4.3325,-4.3069,-4.3036,-4.3365,-4.2715,-4.2418,-4.281,-4.3177,-4.3387,-4.3422,-4.3775,-4.3986,-4.3986,-4.3949,-4.3949,-4.3986,-4.3176,-4.2774,-4.2772,-4.161,-4.1502,-4.2272,-4.1878,-4.2139,-4.2901,-4.2901,-4.2901,-4.2901,-4.2901,-4.2901,-4.2901,-4.2901,-4.2901,-4.2901,-4.2901,-4.2937,-4.2973,0.0,0.0,0.0,0.0,0.0,0.0,0.0,0.0,0.0,0.0,0.0,0.0,0.0,-3.8023,-3.8033,-3.7723,-3.7856,0.0,0.0,0.0,0.0,-3.8711,-3.8876,-3.8985,-3.8985,-3.9175,-3.9315,-3.9315,-3.9094,-3.961,-4.0861,-4.1114,-4.1461,-4.199,-4.3388,-4.3842,-4.3462,-4.1555,-4.0746,-4.0613,-3.8891,-3.8493,-3.8791,-3.7831,-3.7853,-3.836,-3.8246,-3.8666,-3.9347,-3.918,-3.9469,-3.9858,-3.9599,-3.9422,-3.9315,-3.9315,-3.9315,-3.9415,-3.9879,-4.0376,-4.1044,-4.2208,-4.3234,-4.3896,-4.3664,-4.4158,-4.464,-4.4375,-4.4293,-4.435,-4.4491,-4.4872,-4.4761,-4.3613,-4.3017,-4.2441,-4.167,-4.1291,-4.1221,-4.14,-4.1555,-4.1696,-4.1843,-4.182,-4.1966,-4.2382,-4.2541,-4.2753,-4.3014,-4.3387,-4.361,-4.361,-4.3876,-4.3763,-4.3243,-4.2427,-4.2031,-4.2031,-4.1414,-4.1502,-4.2272,-4.1897,-4.2158,-4.2901,-4.2901,-4.2901,-4.2901,-4.2901,-4.2901,-4.2901,-4.2901,-4.2901,-4.2901,-4.2901,-4.2901,-4.2863,0.0,0.0,0.0,0.0,0.0,0.0,0.0,0.0,0.0,-3.7289,0.0,0.0,0.0,0.0,-3.7971,-3.7339,-3.7676,-3.7907,-3.8023,-3.8051,-3.8149,-3.8375,-3.8572,-3.8711,-3.8788,-3.9013,-3.9175,-3.9315,-3.8958,-3.9182,-3.9902,-4.0073,-4.0127,-4.0102,-4.1579,-4.2679,-4.3408,-4.1939,-4.1224,-4.0912,-3.899,-3.8626,-3.9156,-3.788,-3.8183,-3.925,-3.869,-3.9092,-3.9772,-3.9025,-3.9234,-3.9747,-3.9282,-3.9202,-3.9249,-3.9017,-3.9116,-3.9348,-3.9587,-3.9846,-4.031,-4.1508,-4.217,-4.2572,-4.2804,-4.3264,-4.3617,-4.3705,-4.3695,-4.3695,-4.3695,-4.3917,-4.3793,-4.2747,-4.2183,-4.1485,-4.0488,-4.0083,-3.9986,-4.0229,-4.0563,-4.086,-4.1001,-4.1232,-4.1569,-4.1966,-4.2133,-4.2302,-4.258,-4.2977,-4.3138,-4.3003,-4.3405,-4.3206,-4.2389,-4.1587,-4.1234,-4.1307,-4.1147,-4.1435,-4.2016,-4.208,-4.2375,-4.2901,-4.2901,-4.2901,-4.2901,-4.2901,-4.2901,-4.2901,-4.2901,-4.2901,-4.2901,-4.2901,-4.2806,-4.2596,0.0,0.0,0.0,0.0,0.0,0.0,0.0,0.0,-3.6689,-3.7261,0.0,0.0,0.0,0.0,0.0,-3.7349,-3.7006,-3.695,-3.7284,-3.7284,-3.7635,-3.8347,0.0,0.0,-3.8761,-3.8761,-3.8958,-3.9255,-3.8958,-3.9121,-3.9841,-3.9588,-3.9978,-4.0957,-3.9911,-4.0398,-4.2029,-4.2687,-4.2772,-4.2208,-3.9328,-3.8659,-3.9262,-3.8816,-3.9358,-4.0387,-4.0757,-4.0878,-4.0628,-3.934,-3.9335,-3.9692,-3.9045,-3.9073,-3.9149,-3.846,-3.8725,-3.9149,0.0,0.0,0.0,-4.021,-4.0376,-4.0547,-4.121,-4.1375,-4.1579,-4.2274,-4.244,-4.2473,-4.2473,-4.2473,-4.2208,-4.148,-4.1375,-4.0878,-3.9514,-3.9625,-3.9858,-3.9858,-4.0179,-4.0538,-4.0931,-4.0977,-4.114,-4.1538,-4.1924,-4.2175,-4.2175,-4.2524,-4.2577,-4.2233,-4.2538,-4.2352,-4.1571,-4.0763,-4.0471,-4.0664,-4.0936,-4.1173,-4.1387,-4.239,-4.2846,-4.2865,-4.2901,-4.2901,-4.2901,-4.2901,-4.2901,-4.2901,-4.2901,-4.2901,-4.2901,-4.2901,-4.2596,-4.2216,0.0,0.0,0.0,0.0,0.0,-3.6528,-3.6867,-3.6443,-3.6568,0.0,0.0,0.0,-3.7628,-3.7123,-3.6962,-3.7427,-3.7372,-3.7372,-3.7459,-3.7427,-3.7523,-3.7714,-3.7947,-3.8059,-3.8144,-3.8403,-3.8544,-3.866,-3.8315,-3.8241,-3.8434,-3.8176,-3.8193,-3.8515,-3.8702,-3.9198,-3.9847,-3.9761,-4.0348,-4.1227,-3.8799,-3.8602,-3.9555,-3.7622,-3.7731,-3.8865,-3.8771,-4.001,-4.1439,-3.9799,-4.0702,-4.2199,-4.0519,-3.9632,-3.9249,-3.9083,-3.9149,-3.9249,-3.905,0.0,0.0,0.0,0.0,0.0,-3.9951,-4.068,-4.1342,-4.1044,-4.1375,-4.1678,-4.1678,-4.1678,-4.1475,-4.0779,-4.068,-4.0376,-3.9415,-3.9422,-3.9475,-3.9475,-3.9807,-4.0087,-4.0213,-4.0427,-4.0611,-4.0731,-4.1105,-4.1333,-4.1333,-4.1461,-4.1756,-4.2179,-4.1172,-4.0658,-4.0717,-3.9942,-3.9619,-3.9846,-4.0091,-4.035,-4.056,-4.1594,-4.2031,-4.2085,-4.2629,-4.2901,-4.2901,-4.2901,-4.2901,-4.2901,-4.2901,-4.2901,-4.2901,-4.2901,-4.2596,-4.2175,0.0,0.0,0.0,0.0,0.0,-3.6899,-3.7032,-3.7092,-3.7526,0.0,0.0,0.0,-3.8365,-3.7701,-3.748,-3.7859,-3.7668,-3.751,-3.751,-3.751,-3.751,-3.751,-3.7655,-3.7929,-3.8302,-3.7962,-3.8133,-3.8829,-3.793,-3.7626,-3.7886,-3.7626,-3.751,-3.7541,-3.7891,-3.8201,-3.8346,-3.7873,-3.8734,-4.0221,-3.8297,-3.8427,-3.9573,-3.7935,-3.8298,-3.9677,-3.9519,-4.0906,-4.2501,-4.0215,-4.0736,-4.1994,-4.0293,-3.9737,-3.9713,-3.9381,-3.9315,-3.9315,-3.9315,-3.9315,-3.9381,-3.968,0.0,0.0,-3.9415,-3.9686,-3.9951,-3.9553,-4.005,-4.0415,-4.015,-4.058,-4.0647,-3.9653,-4.0011,-4.0144,-3.9415,-3.9315,-3.9315,-3.9315,-3.9528,-3.9737,-3.9858,-4.0079,-4.0245,-4.0392,-4.0611,-4.0698,-4.0551,-4.0729,-4.0893,-4.0934,-4.0203,-3.9768,-3.9653,-3.9037,-3.8787,-3.8908,-3.9282,-3.9763,-4.0347,-4.1288,-4.1886,-4.223,-4.2701,-4.2901,-4.2901,-4.2901,-4.2901,-4.2901,-4.2901,-4.2901,-4.2882,-4.2691,-4.2318,-4.1846,0.0,0.0,-3.6237,-3.5543,-3.6334,-3.7088,-3.7001,-3.7947,-3.8834,0.0,-3.9503,-3.9503,-3.9503,-3.8998,-3.8618,-3.8618,-3.7986,-3.7636,-3.7636,-3.7541,-3.751,-3.751,-3.7573,-3.7947,-3.8665,-3.7549,-3.7662,-3.902,-3.7508,-3.7077,-3.7682,-3.7449,-3.73,-3.73,-3.73,-3.73,-3.727,-3.6816,-3.7523,-3.8885,-3.7653,-3.8064,-3.9386,-3.8873,-3.9734,-4.1266,-4.1341,-4.2391,-4.3319,-4.0725,-4.0059,-4.0215,-3.9257,-3.9594,-4.0144,-3.9481,-3.9315,-3.9315,-3.9315,-3.9315,-3.9448,-4.0111,-3.9779,0.0,-3.9315,-3.8791,-3.8328,-3.8328,-3.8825,-3.9116,-3.846,-3.9388,-3.9879,-3.856,-3.9421,-4.0078,-3.9514,-3.9415,-3.9415,-3.9415,-3.9348,-3.9448,-3.9781,-3.9807,-3.9961,-4.0269,-4.0319,-4.023,-3.9927,-4.0141,-3.9964,-3.9156,-3.9455,-3.9282,-3.8533,-3.8283,-3.8118,-3.8101,-3.8582,-3.939,-4.0401,-4.1307,-4.2085,-4.2774,-4.2846,-4.2901,-4.2882,-4.2844,-4.2844,-4.2882,-4.2844,-4.2825,-4.2768,-4.2297,-4.1825,-4.1366,0.0,-3.5543,-3.5572,-3.5421,-3.5985,-3.6575,-3.6935,-3.7252,-3.796,-3.9451,-3.9645,-3.9645,-3.9645,-3.9439,-3.9313,-3.9313,-3.8681,-3.8302,-3.8302,-3.7796,-3.751,-3.751,-3.8017,-3.7961,-3.7155,-3.7405,-3.725,-3.6599,-3.626,-3.6167,-3.629,-3.6228,-3.6196,-3.6196,-3.6196,-3.6196,-3.6196,-3.6102,-3.6013,-3.589,-3.6205,-3.7459,-3.8964,-3.7754,-3.8057,-3.9182,-3.9723,-4.0796,-4.1983,-4.1927,-4.09,-3.9661,-3.9967,-3.9824,-3.9481,-3.9348,-3.9315,-3.9315,-3.9315,-3.9315,-3.9315,-3.9481,-3.9415,0.0,-3.9315,-3.9183,-3.9083,-3.9083,-3.9216,-3.9249,-3.9116,-3.9315,-3.9415,-3.9149,-3.9348,-3.968,-4.0111,-4.0177,-4.0177,-4.0177,-3.968,-3.9342,-3.9422,-3.9415,-3.9441,-3.952,-3.9833,-3.9973,-3.9905,-3.9358,-3.8965,-3.8793,-3.8559,-3.8363,-3.8201,-3.8283,-3.8251,-3.8101,-3.8743,-3.9229,-3.9659,-4.1053,-4.1777,-4.1958,-4.2629,-4.2901,-4.2863,-4.2498,-4.2557,-4.2863,-4.2478,-4.2338,-4.2297,-4.1803,-4.1343,-4.0943,-3.6199,-3.6577,-3.6693,-3.6373,-3.704,-3.7585,-3.7537,-3.805,-3.8713,-3.9692,-4.0056,-4.0256,-4.0256,-4.0128,-4.004,-4.004,-3.9408,-3.8871,-3.8492,-3.8207,-3.7828,-3.751,-3.724,-3.728,-3.7684,-3.6168,-3.5707,-3.6429,-3.5427,-3.5093,-3.5458,-3.5761,-3.573,-3.5458,-3.5761,-3.573,-3.5457,-3.5537,-3.5508,-3.549,-3.5794,-3.6491,-3.7324,-3.7245,-3.7755,-3.8586,-3.925,-3.9943,-4.0632,-4.1471,-4.0838,-3.9747,-4.0057,-3.9896,-3.9655,-3.9791,-3.958,-3.9315,-3.9315,-3.9315,-3.9315,-3.9315,-3.9315,0.0,0.0,-3.8758,-3.8626,-3.8261,-3.8493,-3.8626,-3.8261,-3.8818,-3.9183,-3.8791,-3.9083,-3.9547,-4.031,-4.0078,-3.9846,-3.9846,-3.9514,-3.9315,-3.9315,-3.9315,-3.9315,-3.9315,-3.9501,-3.9598,-3.9604,-3.8837,-3.8508,-3.8698,-3.8115,-3.7791,-3.7791,-3.7878,-3.7931,-3.7863,-3.86,-3.9319,-3.9985,-4.1162,-4.1922,-4.2339,-4.2701,-4.2768,-4.2518,-4.2297,-4.218,-4.218,-4.1952,-4.1846,-4.1803,-4.1321,-4.0978,-4.0754,-3.7157,-3.7506,-3.7535,-3.7186,-3.7736,-3.8107,-3.7764,-3.8599,-3.9364,-3.9696,-4.0414,-4.0859,-4.0982,-4.1127,-4.1241,-4.1367,-4.0356,-3.9598,-3.9345,-3.8681,-3.8019,-3.7392,-3.6406,-3.6445,-3.7645,-3.476,-3.4212,-3.614,-3.4601,-3.412,-3.4724,-3.5324,-3.5354,-3.4904,-3.5264,-3.5234,-3.4872,-3.4877,-3.4999,-3.5266,-3.5462,-3.5703,-3.5977,-3.6796,-3.7607,-3.8397,-3.906,-3.9376,-3.9627,-4.0434,-4.0342,-3.9889,-3.9789,-3.9729,-3.9729,-4.0095,-3.9725,-3.9202,-3.9255,-3.9315,-3.9315,-3.9315,-3.9315,-3.9149,0.0,0.0,0.0,-3.7665,-3.7996,-3.8202,-3.7555,-3.8467,-3.9023,-3.8249,-3.8765,-3.9481,-3.9885,-3.958,-3.9348,-3.9481,-3.9282,-3.9149,-3.9282,-3.9315,-3.9315,-3.9315,-3.9315,-3.9291,-3.9296,-3.8672,-3.8476,-3.8832,-3.8092,-3.7683,-3.7609,-3.7577,-3.7649,-3.7845,-3.8686,-3.966,-4.0764,-4.156,-4.2303,-4.2901,-4.2901,-4.2616,-4.2216,-4.2077,-4.1782,-4.1366,-4.1366,-4.1366,-4.1321,-4.0849,-4.0659,-4.0587,-3.707,-3.6431,-3.5886,-3.6344,-3.6044,-3.5942,-3.6357,-3.7052,-3.7967,-3.9119,-4.0284,-4.1188,-4.173,-4.2731,-4.3576,-4.418,-4.1936,-4.0956,-4.2126,-3.9313,-3.7394,-3.6908,-3.6753,-3.5799,-3.3933,-3.405,-3.3799,-3.2993,-3.3375,-3.3579,-3.3667,-3.4309,-3.4539,-3.4451,-3.3988,-3.4047,-3.4422,-3.3893,-3.3369,-3.3001,-3.442,-3.5646,-3.6506,-3.5886,-3.6437,-3.767,-3.8365,-3.8997,-3.9501,-3.9559,-3.9541,-3.9469,-3.9402,-3.9171,-3.8975,-3.9334,-3.916,-3.8931,-3.9202,-3.9315,-3.9315,-3.9315,-3.9315,-3.9282,-3.9183,0.0,-3.9149,-3.9083,0.0,-3.9069,-3.8674,0.0,0.0,-3.7919,-3.8599,-3.9116,-3.8526,-3.8924,-3.9547,-4.021,-3.9123,-3.8593,-3.9249,-3.9315,-3.9315,-3.9315,-3.9315,-3.9291,-3.9296,-3.9208,-3.9204,-3.9223,-3.8793,-3.8386,-3.8048,-3.7844,-3.8062,-3.8685,-3.9659,-4.0617,-4.1596,-4.2411,-4.281,-4.2901,-4.2901,-4.2616,-4.2175,-4.176,-4.1298,-4.0896,-4.0896,-4.0896,-4.0825,-4.0353,-4.0154,-4.0154,-3.6083,-3.6025,-3.588,-3.5799,-3.5809,-3.5776,-3.5742,-3.6931,-3.8144,-3.9073,-4.0584,-4.1626,-4.1863,-4.3007,-4.3797,-4.4082,-4.2726,-4.2062,-4.2663,-4.0223,-3.887,-3.9048,-3.6989,-3.5926,-3.603,-3.4227,-3.3349,-3.3583,-3.3151,-3.3122,-3.3503,-3.3765,-3.3674,-3.3293,-3.3445,-3.318,-3.2774,-3.33,-3.3358,-3.319,-3.4416,-3.5217,-3.5677,-3.5896,-3.6595,-3.7541,-3.7796,-3.8081,-3.8391,-3.8724,-3.8599,-3.8453,-3.9355,-3.9037,-3.844,-3.9205,-3.8982,-3.8628,-3.8931,-3.9013,-3.9067,-3.9228,-3.9148,-3.9013,-3.9013,-3.8876,-3.8766,-3.8766,0.0,0.0,0.0,0.0,0.0,0.0,-3.8646,-3.8692,-3.8825,-3.8361,-3.846,-3.9613,-3.9216,-3.8791,-3.8659,-3.8659,-3.8659,-3.8659,-3.9083,-3.9387,-3.9648,-3.9428,-3.9433,-3.9665,-3.9279,-3.8748,-3.8128,-3.8475,-3.8419,-3.7943,-3.9883,-4.079,-4.0925,-4.2301,-4.2901,-4.2882,-4.2596,-4.2236,-4.176,-4.1298,-4.0825,-4.0402,-4.0402,-4.0402,-4.0377,-4.0154,-4.0113,-4.0113,-3.4819,-3.5379,-3.5767,-3.5305,-3.5501,-3.5756,-3.5751,-3.6823,-3.8078,-3.9151,-4.0685,-4.1881,-4.2387,-4.3377,-4.4148,-4.4523,-4.3466,-4.281,-4.2997,-4.078,-3.9456,-3.9477,-3.6884,-3.5785,-3.6502,-3.4047,-3.3151,-3.3906,-3.2945,-3.2832,-3.3503,-3.3503,-3.3325,-3.3032,-3.3387,-3.298,-3.2106,-3.289,-3.3093,-3.3016,-3.3996,-3.4516,-3.4877,-3.5958,-3.6753,-3.7196,-3.7447,-3.7569,-3.7685,-3.8237,-3.8123,-3.7956,-3.9219,-3.8821,-3.8069,-3.8937,-3.8739,-3.8319,-3.8628,-3.8711,-3.8766,-3.8985,-3.8876,-3.8711,-3.8711,-3.8544,-3.8408,-3.8408,-3.8408,0.0,0.0,0.0,-3.881,-3.8749,0.0,-3.856,-3.8685,-3.7963,-3.7864,-3.9149,-3.9315,-3.9116,-3.856,-3.8493,-3.8427,-3.8228,-3.8692,-3.9168,-3.9581,-3.9414,-3.9592,-4.017,-3.9831,-3.9357,-3.876,-3.9111,-3.8989,-3.8367,-4.023,-4.1088,-4.1068,-4.2338,-4.2901,-4.2863,-4.2398,-4.1931,-4.1477,-4.1013,-4.0549,-4.0113,-4.0113,-4.0113,-4.0113,-4.0113,-4.0113,-4.0113,-3.3333,-3.4122,-3.4832,-3.4803,-3.4838,-3.5268,-3.6462,-3.6468,-3.7126,-3.9218,-4.0442,-4.1802,-4.3664,-4.4449,-4.5394,-4.667,-4.4313,-4.3099,-4.3814,-4.0698,-3.8099,-3.6432,-3.6183,-3.4994,-3.2748,-3.3213,-3.3151,-3.2539,-3.251,-3.2832,-3.3503,-3.3503,-3.3823,-3.4312,-3.3765,-3.3474,-3.3387,-3.2803,-3.2133,-3.1646,-3.2586,-3.3517,-3.4482,-3.5872,-3.6408,-3.6535,-3.7227,-3.7655,-3.7943,-3.8262,-3.8408,-3.8436,-3.8711,-3.8371,-3.7972,-3.8323,-3.8177,-3.7972,-3.8319,-3.8408,-3.8436,-3.8436,-3.8436,-3.8408,-3.8408,-3.8408,-3.8408,-3.8408,-3.8408,-3.829,-3.7972,-3.8399,-3.8482,-3.7524,-3.8444,0.0,0.0,-3.7765,-3.846,-3.9216,-3.9315,-3.9282,-3.9282,-3.9249,-3.8984,-3.8261,-3.8228,-3.841,-3.8807,-3.9156,-3.9821,-4.0932,-4.0656,-4.0467,-4.0432,-3.9673,-3.9847,-4.1002,-4.1074,-4.1685,-4.281,-4.2846,-4.2901,-4.2863,-4.2398,-4.1931,-4.1477,-4.114,-4.0641,-4.0113,-4.0113,-4.0113,-4.0113,-4.0113,-4.0113,-4.0113,-3.414,-3.4344,-3.4276,-3.3325,-3.3403,-3.418,-3.5796,-3.6679,-3.7777,-3.9417,-4.1197,-4.2771,-4.3877,-4.4885,-4.5667,-4.6122,-4.494,-4.4243,-4.4525,-4.2226,-4.0807,-4.0702,-3.9076,-3.7777,-3.6954,-3.5909,-3.5038,-3.4433,-3.3122,-3.2832,-3.3503,-3.3035,-3.2948,-3.3151,-3.3416,-3.3009,-3.2193,-3.2425,-3.2292,-3.2046,-3.2967,-3.4017,-3.5078,-3.5552,-3.6026,-3.6503,-3.7227,-3.7569,-3.7685,-3.7976,-3.7947,-3.7831,-3.8116,-3.7915,-3.7655,-3.7775,-3.7714,-3.7685,-3.8004,-3.8091,-3.8119,-3.8319,-3.8234,-3.8091,-3.8091,-3.7918,-3.7804,-3.7804,-3.7804,-3.7801,-3.7886,-3.8262,-3.8479,-3.8329,-3.8848,-3.895,0.0,-3.8037,-3.7965,-3.7294,-3.8018,-3.8394,-3.7897,-3.7831,-3.7533,-3.6804,-3.7201,-3.775,-3.8369,-3.8773,-3.9472,-4.0552,-4.0758,-4.073,-4.0502,-4.0691,-4.056,-4.0126,-4.1299,-4.1912,-4.1916,-4.2591,-4.2749,-4.2418,-4.1931,-4.1512,-4.1105,-4.0607,-4.0288,-4.0113,-4.0113,-4.0062,-3.9986,-4.0062,-4.0113,-4.0087,-3.464,-3.4262,-3.3753,-3.2897,-3.3121,-3.393,-3.5393,-3.6769,-3.8105,-3.9327,-4.1222,-4.2902,-4.4008,-4.4771,-4.5399,-4.5806,-4.5239,-4.4642,-4.4276,-4.282,-4.1842,-4.1656,-4.0091,-3.8986,-3.8522,-3.7506,-3.6548,-3.5741,-3.4022,-3.3412,-3.3823,-3.2919,-3.2629,-3.289,-3.3529,-3.3093,-3.1872,-3.2338,-3.2147,-3.1722,-3.2632,-3.3799,-3.5047,-3.53,-3.5995,-3.6848,-3.7352,-3.7569,-3.7685,-3.7828,-3.7801,-3.7685,-3.7828,-3.7714,-3.751,-3.751,-3.7361,-3.724,-3.7417,-3.7476,-3.7476,-3.7506,-3.7623,-3.7682,-3.7506,-3.7478,-3.751,-3.751,-3.751,-3.7569,-3.7743,-3.8119,-3.8375,-3.8315,-3.8876,-3.905,0.0,-3.8012,-3.7597,-3.6973,-3.7887,-3.8195,-3.7201,-3.7334,-3.7102,-3.6075,-3.6439,-3.7036,-3.7772,-3.8204,-3.8989,-4.0195,-4.0741,-4.0909,-4.0669,-4.1292,-4.1229,-4.0573,-4.1747,-4.2163,-4.1952,-4.2438,-4.2478,-4.2139,-4.1543,-4.1105,-4.0905,-4.0337,-4.0087,-4.0037,-3.9978,-3.9935,-3.9833,-3.9986,-4.0011,-3.9935,-3.4799,-3.3946,-3.3281,-3.3588,-3.3926,-3.4463,-3.5349,-3.6805,-3.8071,-3.8974,-4.0538,-4.2209,-4.3975,-4.4224,-4.4662,-4.5734,-4.5285,-4.4385,-4.3079,-4.2498,-4.1337,-3.9421,-3.9334,-3.8754,-3.7476,-3.797,-3.7622,-3.6344,-3.5009,-3.437,-3.4341,-3.3064,-3.2803,-3.3445,-3.4051,-3.3645,-3.2452,-3.2452,-3.176,-3.0747,-3.1623,-3.2953,-3.4415,-3.5051,-3.6187,-3.745,-3.748,-3.7655,-3.7886,-3.7886,-3.7886,-3.7886,-3.7886,-3.7685,-3.745,-3.745,-3.7089,-3.6662,-3.6662,-3.6662,-3.6538,-3.6039,-3.6693,-3.7331,-3.6846,-3.7119,-3.751,-3.751,-3.751,-3.751,-3.751,-3.7979,-3.8148,-3.7565,-3.8423,-3.8964,-3.8216,-3.7573,-3.7405,-3.8025,-3.8791,-3.8685,-3.7235,-3.7698,-3.75,-3.6042,-3.5976,-3.6307,-3.7069,-3.7501,-3.8369,-3.985,-4.0597,-4.0977,-4.1001,-4.1403,-4.1845,-4.2308,-4.2308,-4.251,-4.2844,-4.2398,-4.216,-4.2056,-4.1162,-4.0778,-4.0707,-4.0254,-4.0011,-3.9884,-3.9825,-3.9747,-3.9703,-3.9833,-3.9807,-3.9677,-3.5465,-3.4896,-3.438,-3.4496,-3.3875,-3.3833,-3.5234,-3.6567,-3.7896,-3.9076,-4.1002,-4.2632,-4.365,-4.4422,-4.4812,-4.4633,-4.5252,-4.4879,-4.3108,-4.3311,-4.2876,-4.1424,-4.1366,-4.0728,-3.9421,-3.9102,-3.8318,-3.7041,-3.4806,-3.3736,-3.3707,-3.2396,-3.1874,-3.2048,-3.2716,-3.2542,-3.1756,-3.1756,-3.169,-3.1652,-3.2578,-3.3814,-3.5051,-3.4397,-3.5317,-3.6968,-3.7361,-3.7539,-3.7596,-3.7596,-3.7596,-3.7596,-3.7596,-3.727,-3.6907,-3.6907,-3.6538,-3.6133,-3.6133,-3.6133,-3.6196,-3.6414,-3.6723,-3.6968,-3.7241,-3.7421,-3.751,-3.751,-3.751,-3.7569,-3.774,-3.7711,-3.7828,-3.8371,-3.8056,-3.7524,-3.6942,-3.7049,-3.7075,-3.677,-3.7762,-3.8129,-3.7201,-3.6771,-3.6174,-3.5247,-3.5678,-3.6307,-3.7069,-3.7734,-3.8638,-3.9884,-4.0328,-4.0648,-4.0874,-4.1333,-4.1788,-4.216,-4.2251,-4.2313,-4.2378,-4.2257,-4.1803,-4.1139,-4.0791,-4.0441,-4.0045,-3.985,-3.9747,-3.9603,-3.9696,-3.9651,-3.958,-3.9703,-3.9729,-3.9677,-3.571,-3.5398,-3.5181,-3.5181,-3.4651,-3.4621,-3.5745,-3.6743,-3.7836,-3.9146,-4.0803,-4.203,-4.2445,-4.3407,-4.3906,-4.3511,-4.4289,-4.4181,-4.2782,-4.3255,-4.3137,-4.215,-4.1541,-4.0873,-4.0118,-3.8957,-3.8028,-3.7302,-3.4753,-3.3503,-3.3474,-3.2135,-3.1495,-3.1524,-3.2191,-3.2135,-3.1466,-3.1235,-3.1308,-3.171,-3.2497,-3.3447,0.0,-3.3919,-3.4509,-3.5614,-3.6196,-3.6566,-3.6784,-3.6784,-3.6784,-3.6784,-3.6784,-3.66,-3.6352,-3.6352,-3.6006,-3.5593,-3.5593,-3.5593,-3.5688,-3.5975,-3.6352,-3.6785,-3.7089,-3.715,-3.721,-3.745,-3.7119,-3.6906,-3.7298,-3.7147,-3.7207,-3.794,-3.7155,-3.6552,-3.6814,-3.7103,-3.7227,-3.7112,-3.7754,-3.8037,-3.7632,-3.6638,-3.5704,-3.4947,-3.558,-3.6249,-3.6795,-3.768,-3.8498,-3.9131,-3.9809,-4.0245,-4.0407,-4.0849,-4.1243,-4.153,-4.1687,-4.1753,-4.1803,-4.1652,-4.1276,-4.0707,-4.0417,-4.0104,-3.9747,-3.9729,-3.9651,-3.9506,-3.952,-3.9468,-3.9395,-3.9169,-3.9276,-3.9494,-3.5845,-3.5764,-3.571,-3.571,-3.5791,-3.6062,-3.6741,-3.7365,-3.8109,-3.9264,-4.0485,-4.114,-4.1038,-4.1939,-4.2528,-4.2368,-4.2887,-4.2895,-4.2224,-4.2509,-4.246,-4.2005,-4.0677,-3.9913,-3.9857,-3.8136,-3.7142,-3.7041,-3.4608,-3.3387,-3.3358,-3.2019,-3.138,-3.1438,-3.199,-3.1932,-3.1351,-3.089,-3.0984,-3.1456,-3.1961,-3.2526,-3.3149,-3.3455,-3.3758,-3.4061,-3.4546,-3.5152,-3.5791,-3.5882,-3.5913,-3.5913,-3.5913,-3.5849,-3.5817,-3.5817,-3.5464,-3.5073,-3.5014,-3.5044,-3.5106,-3.5148,-3.5882,-3.6631,-3.6785,-3.6754,-3.6846,-3.7391,-3.6662,-3.6071,-3.6631,-3.66,-3.66,-3.6905,-3.6227,-3.6005,-3.7087,-3.7324,-3.7618,-3.8222,-3.8247,0.0,-3.8328,-3.7003,-3.5836,-3.5165,-3.5753,-3.629,-3.6569,-3.7621,-3.8261,-3.8361,-3.9376,-3.9884,-3.9825,-4.022,-4.0504,-4.0767,-4.0919,-4.1047,-4.1185,-4.0861,-4.0659,-4.0466,-4.0003,-3.9781,-3.9677,-3.9711,-3.9606,-3.9448,-3.9228,-3.9175,-3.9094,-3.8423,-3.8535,-3.9067,-3.6442,-3.6062,-3.571,-3.571,-3.6117,-3.6822,-3.7935,-3.8613,-3.9237,-3.9943,-4.1082,-4.1672,-4.1121,-4.1617,-4.1754,-4.1235,-4.2144,-4.2417,-4.1624,-4.1256,-4.114,-4.1268,-3.9882,-3.8928,-3.8551,-3.7411,-3.6424,-3.5741,-3.3674,-3.2687,-3.2658,-3.1351,-3.0772,-3.0772,-3.0888,-3.0888,-3.0802,-3.1073,-3.1486,-3.205,-3.1984,-3.2668,-3.3576,-3.2257,-3.2766,-3.4075,-3.3218,-3.3897,-3.5246,-3.573,-3.5913,-3.5913,-3.5913,-3.5625,-3.5332,-3.5332,-3.4938,-3.4418,-3.3926,-3.4159,-3.4622,-3.4963,-3.5549,-3.629,-3.715,-3.7029,-3.6846,-3.7391,-3.6662,-3.6134,-3.6906,-3.6995,-3.6814,-3.6445,-3.629,-3.629,-3.6414,-3.6996,-3.7618,-3.8222,-3.8247,-3.846,-3.905,-3.7765,-3.6695,-3.6164,-3.6637,-3.7084,-3.7536,-3.7978,-3.8493,-3.9083,-3.961,-3.9732,-3.942,-4.0068,-4.047,-4.0548,-4.0733,-4.0754,-4.0552,-4.0514,-4.0245,-3.9825,-3.9651,-3.9554,-3.9528,-3.9448,-3.9369,-3.9255,-3.8701,-3.8479,-3.8423,-3.7764,-3.7618,-3.7706,-3.7012,-3.6334,-3.5927,-3.651,-3.6862,-3.7501,-3.8695,-3.9373,-3.9753,-3.9726,-4.0241,-4.0377,-3.978,-4.0468,-4.0603,-3.97,-4.0332,-4.0501,-3.9788,-3.9954,-4.0019,-3.9939,-3.9178,-3.841,-3.7586,-3.6025,-3.4982,-3.4589,-3.2503,-3.1671,-3.1959,-3.1032,-3.0598,-3.0598,-3.0598,-3.0772,-3.1062,-3.0983,-3.1307,-3.1835,-3.1752,-3.1901,-3.2139,-3.1603,-3.1952,-3.2773,-3.2547,-3.3211,-3.4307,-3.4928,-3.5136,-3.5136,-3.5136,-3.4971,-3.4802,-3.4802,-3.4368,-3.3848,-3.359,-3.3441,-3.355,-3.4023,-3.4787,-3.5552,-3.6075,-3.6261,-3.6352,-3.6631,-3.5817,-3.5267,-3.5753,-3.5913,-3.5849,-3.5559,-3.5752,-3.5878,-3.5718,-3.6352,-3.6835,-3.6717,-3.7513,-3.8005,-3.7826,-3.7636,-3.7019,-3.5726,-3.6906,-3.7257,-3.6346,-3.7852,-3.856,-3.8162,-3.9101,-3.948,-3.9294,-3.9655,-3.9868,-3.9868,-4.0045,-4.0054,-3.9927,-4.0003,-3.9876,-3.9573,-3.9528,-3.9475,-3.9395,-3.9342,-3.9315,-3.9228,-3.8562,-3.8306,-3.8193,-3.7205,-3.6875,-3.6936,-3.7404,-3.6726,-3.6374,-3.7323,-3.7485,-3.7811,-3.8776,-3.9319,-3.959,-3.9509,-3.9373,-3.9129,-3.864,-3.921,-3.9292,-3.8477,-3.8632,-3.8613,-3.8214,-3.8733,-3.8863,-3.8492,-3.8167,-3.7487,-3.6455,-3.4546,-3.347,-3.3289,-3.1562,-3.0883,-3.117,-3.077,-3.0598,-3.0627,-3.0743,-3.1061,-3.1466,-3.1148,-3.1264,-3.1698,-3.1553,-3.1235,-3.0829,-3.1322,-3.1582,-3.1785,-3.2483,-3.3122,-3.3765,-3.4254,-3.4399,-3.4399,-3.4399,-3.4399,-3.4399,-3.4399,-3.3964,-3.3474,-3.3329,-3.289,-3.264,-3.3176,-3.3967,-3.4697,-3.4911,-3.5273,-3.5574,-3.5669,-3.5112,-3.4635,-3.4902,-3.4935,-3.4968,-3.5166,-3.5359,-3.5424,-3.5228,-3.5879,-3.6075,-3.5146,-3.6798,-3.7513,-3.6247,-3.7275,-3.7003,-3.4616,-3.6234,-3.6751,-3.5339,-3.711,-3.7919,-3.726,-3.842,-3.9023,-3.899,-3.9189,-3.9315,-3.9315,-3.9422,-3.9475,-3.9475,-3.9547,-3.9547,-3.9475,-3.9475,-3.9422,-3.9315,-3.9315,-3.9202,-3.9007,-3.8367,-3.8023,-3.7764,-3.6631,-3.6196,-3.629,-3.7485,-3.7404,-3.735,-3.7458,-3.7485,-3.754,-3.7648,-3.7702,-3.8342,-3.9888,-3.9644,-3.9292,-3.921,-3.8369,-3.7919,-3.8369,-3.7935,-3.7794,-3.8173,-3.7758,-3.7405,-3.7186,-3.6286,-3.5384,-3.4478,-3.337,-3.2417,-3.1612,-3.118,-3.0683,-3.0228,-3.0476,-3.0598,-3.0627,-3.1177,-3.1437,-3.1524,-3.2106,-3.2367,-3.2336,-3.1727,-3.1466,-3.1438,-3.1466,-3.1872,-3.2481,-3.3184,-3.379,-3.4341,-3.4399,-3.4399,-3.4399,-3.4399,-3.4399,-3.4399,-3.4399,-3.3964,-3.3387,-3.2774,-3.2571,-3.264,-3.3176,-3.336,-3.3755,-3.4759,-3.466,-3.45,-3.5001,-3.5106,-3.5267,-3.5689,-3.5299,-3.5166,-3.5943,-3.575,-3.5424,-3.5228,-3.5879,-3.5922,-3.4625,-3.6573,-3.7288,-3.5476,-3.6933,-3.6584,-3.3181,-3.4004,-3.5149,-3.6281,-3.5286,-3.5628,-3.7652,-3.8114,-3.8176,-3.7959,-3.8831,-3.9315,-3.9315,-3.9315,-3.9342,-3.9342,-3.9342,-3.9342,-3.9342,-3.9342,-3.9315,-3.9315,-3.9315,-3.8925,-3.8334,-3.7706,-3.7086,-3.6477,-3.5814,-3.5587,-3.5587,-3.8027,-3.7473,-3.7052,-3.7431,-3.7187,-3.7052,-3.7431,-3.7485,-3.7756,-3.8505,-3.8396,-3.8233,-3.8233,-3.7783,-3.7431,-3.7338,-3.7121,-3.6905,-3.6689,-3.6396,-3.6073,-3.568,-3.5217,-3.4499,-3.3569,-3.299,-3.2186,-3.111,-3.1019,-3.0708,-3.0111,-3.0417,-3.0801,-3.1148,-3.1409,-3.1961,-3.2687,-3.2571,-3.2745,-3.3035,-3.2367,-3.2075,-3.2075,-3.2075,-3.2513,-3.3122,-3.3416,-3.3877,-3.4399,-3.4399,-3.4399,-3.4399,-3.4399,-3.4399,-3.4399,-3.4399,-3.3703,-3.2832,-3.2568,-3.2191,-3.1847,-3.1715,-3.2491,-3.3209,-3.2938,-3.3296,-3.3624,-3.353,-3.3871,-3.4247,-3.451,-3.4738,-3.5001,-3.5264,-3.5424,-3.5392,-3.5067,-3.5164,-3.4881,-3.3836,-3.3921,-3.396,-3.3598,-3.462,-3.4837,-3.3681,-3.4804,-3.5253,-3.4563,-3.5497,-3.632,-3.6816,-3.813,-3.8825,-3.8699,-3.909,-3.9315,-3.9315,-3.9315,-3.9315,-3.9315,-3.9315,-3.9315,-3.9288,-3.8871,-3.864,-3.852,-3.825,-3.7841,-3.7306,-3.6933,-3.6631,-3.6321,-3.5716,-3.5519,-3.5519,-3.7919,-3.7338,-3.7012,-3.7431,-3.7012,-3.6741,-3.7202,-3.7079,-3.6943,-3.6943,-3.6943,-3.7106,-3.7458,-3.716,-3.6877,-3.6632,-3.628,-3.5981,-3.5737,-3.5437,-3.5036,-3.457,-3.442,-3.3853,-3.2843,-3.2654,-3.2058,-3.1014,-3.1073,-3.0892,-3.0498,-3.0964,-3.138,-3.1785,-3.2019,-3.26,-3.3474,-3.2977,-3.3064,-3.3445,-3.2774,-3.2481,-3.251,-3.2716,-3.3064,-3.3532,-3.3707,-3.4022,-3.4399,-3.4399,-3.4283,-3.4167,-3.4341,-3.4399,-3.437,-3.4196,-3.3354,-3.2452,-3.2249,-3.1729,-3.1177,-3.0916,-3.1687,-3.234,-3.1646,-3.2154,-3.2722,-3.2547,-3.289,-3.3303,-3.3641,-3.4185,-3.4662,-3.4769,-3.5162,-3.5359,-3.5034,-3.4698,-3.4208,-3.3392,-3.2703,-3.2276,-3.2214,-3.314,-3.3849,-3.4181,-3.5055,-3.5031,-3.3893,-3.5277,-3.6131,-3.6173,-3.7998,-3.8984,-3.8984,-3.9183,-3.9315,-3.9315,-3.9315,-3.9315,-3.9315,-3.9315,-3.9175,-3.898,-3.8507,-3.8133,-3.7809,-3.7528,-3.7079,-3.6594,-3.6477,-3.629,-3.607,-3.5651,-3.5519,-3.5519,-3.6724,-3.7094,-3.7485,-3.7485,-3.7012,-3.6605,-3.6605,-3.6117,-3.5737,-3.5737,-3.5737,-3.6198,-3.735,-3.6428,-3.5981,-3.6551,-3.552,-3.5046,-3.5683,-3.5025,-3.4403,-3.3908,-3.3788,-3.3221,-3.2246,-3.2218,-3.192,-3.1287,-3.1382,-3.1382,-3.1382,-3.213,-3.2452,-3.2542,-3.3184,-3.3474,-3.3503,-3.3503,-3.3503,-3.3445,-3.2774,-3.2481,-3.2568,-3.3242,-3.3503,-3.359,-3.4196,-3.4399,-3.4399,-3.4399,-3.3993,-3.362,-3.4225,-3.4399,-3.4283,-3.3707,-3.3035,-3.2336,-3.1669,-3.1061,-3.0772,-3.1351,-3.1061,-3.0801,-3.138,-3.1526,-3.1729,-3.2336,-3.251,-3.2748,-3.3553,-3.3865,-3.4198,-3.4784,-3.5261,-3.5424,-3.5228,-3.4795,-3.4264,-3.3605,-3.3871,-3.3483,-3.166,-3.3154,-3.4177,-3.4211,-3.3789,-3.403,-3.5216,-3.405,-3.4197,-3.6028,-3.7485,-3.8202,-3.8202,-3.895,-3.9315,-3.9315,-3.9315,-3.9315,-3.9315,-3.9315,-3.8925,-3.8306,-3.8306,-3.7966,-3.7383,-3.7383,-3.7027,-3.6384,-3.6384,-3.6037,-3.5519,-3.5519,-3.5519,-3.5519,-3.6726,-3.6768,-3.6768,-3.632,-3.6117,-3.6008,-3.6008,-3.5845,-3.571,-3.571,-3.571,-3.5873,-3.6211,-3.5954,-3.5628,-3.5371,-3.5019,-3.4694,-3.4477,-3.3897,-3.3537,-3.3349,-3.2927,-3.2518,-3.2218,-3.2218,-3.1884,-3.1287,-3.155,-3.1696,-3.1744,-3.1972,-3.249,-3.3213,-3.3416,-3.3736,-3.4109,-3.4109,-3.4109,-3.408,-3.3906,-3.3819,-3.3848,-3.4022,-3.4109,-3.4138,-3.4341,-3.4399,-3.4399,-3.4399,-3.3993,-3.3532,-3.3736,-3.347,-3.3093,-3.289,-3.2687,-3.2336,-3.1669,-3.17,-3.1729,-3.1061,-3.1032,-3.1148,-3.0945,-3.0887,-3.0945,-3.1148,-3.1526,-3.1903,-3.214,-3.2735,-3.339,-3.3973,-3.3906,-3.3979,-3.4456,-3.3626,-3.2944,-3.2826,-3.3066,-3.2945,-3.2258,-3.3396,-3.4059,-3.3758,-3.3576,-3.3666,-3.406,-3.4046,-3.4767,-3.6246,-3.7145,-3.805,-3.8924,-3.9183,-3.9315,-3.9315,-3.9315,-3.9067,-3.859,-3.8197,-3.7911,-3.7648,-3.7205,-3.6906,-3.6692,-3.6258,-3.5973,-3.5812,-3.5812,-3.5683,-3.5519,-3.5519,-3.5519,-3.5519,-3.6347,-3.6252,-3.6144,-3.5791,-3.571,-3.5628,-3.5371,-3.5344,-3.5263,-3.5046,-3.5019,-3.5019,-3.5019,-3.5019,-3.4938,-3.4802,-3.4585,-3.4314,-3.3935,-3.3186,-3.287,-3.3088,-3.2517,-3.2218,-3.2218,-3.2218,-3.2028,-3.1639,-3.2144,-3.233,-3.2282,-3.2442,-3.2984,-3.3819,-3.362,-3.3736,-3.4051,-3.379,-3.3848,-3.4022,-3.379,-3.3993,-3.4399,-3.4399,-3.4399,-3.4399,-3.4399,-3.4399,-3.4399,-3.4399,-3.3848,-3.3122,-3.3122,-3.2513,-3.1845,-3.2046,-3.2104,-3.1959,-3.1351,-3.1467,-3.1584,-3.0801,-3.0858,-3.1061,-3.0685,-3.0598,-3.0598,-3.0598,-3.0887,-3.1235,-3.1437,-3.1999,-3.2708,-3.3492,-3.3338,-3.3351,-3.4034,-3.3089,-3.2497,-3.2826,-3.2976,-3.3065,-3.2976,-3.3726,-3.4176,-3.4115,-3.3902,-3.3901,-3.4233,-3.4363,-3.499,-3.6368,-3.6953,-3.7717,-3.8761,-3.9128,-3.9068,-3.8678,-3.8507,-3.8282,-3.7937,-3.756,-3.7235,-3.7027,-3.6569,-3.6258,-3.6037,-3.5651,-3.5519,-3.5519,-3.5519,-3.5519,-3.5519,-3.5519,-3.5519,-3.5519,-3.5548,-3.5628,-3.5628,-3.5601,-3.5655,-3.5493,-3.4829,-3.4775,-3.4585,-3.3989,-3.3908,-3.3908,-3.3908,-3.3908,-3.4124,-3.4612,-3.4151,-3.3826,-3.3799,-3.2779,-3.2463,-3.3006,-3.2517,-3.2218,-3.2218,-3.2218,-3.2218,-3.2218,-3.2881,-3.3162,-3.2934,-3.333,-3.3848,-3.437,-3.3794,-3.3503,-3.3474,-3.2832,-3.2919,-3.3445,-3.2861,-3.3354,-3.4399,-3.4399,-3.4399,-3.4399,-3.4399,-3.4399,-3.4399,-3.4399,-3.3558,-3.2481,-3.2481,-3.1613,-3.0714,-3.1264,-3.1466,-3.138,-3.0772,-3.0627,-3.0656,-3.0627,-3.0598,-3.0598,-3.0598,-3.0598,-3.0598,-3.0598,-3.0598,-3.0772,-3.1351,-3.1591,-3.2061,-3.3184,-3.3279,-3.3354,-3.3846,-3.306,-3.2676,-3.3334,-3.3454,-3.3573,-3.3781,-3.4044,-3.4433,-3.4985,-3.4494,-3.455,-3.5367,-3.4729,-3.5,-3.6353,-3.6752,-3.7233,-3.7764,-3.8682,-3.8563,-3.7499,-3.7205,-3.7145,-3.7324,-3.7296,-3.6936,-3.6352,-3.6352,-3.6037,-3.5519,-3.5519,-3.5519,-3.5519,-3.5519,-3.5519,-3.5519,-3.5519,-3.5519,-3.5519,-3.4411,-3.4694,-3.4856,-3.4423,-3.5073,-3.5317,-3.4287,-3.4504,-3.4585,-3.3989,-3.3908,-3.3908,-3.3908,-3.3908,-3.3772,-3.355,-3.3349,-3.3078,-3.2616,-3.2345,-3.2273,-3.2409,-3.23,-3.2218,-3.2218,-3.2218,-3.2218,-3.2218,-3.2632,-3.2975,-3.3184,-3.3557,-3.3984,-3.437,-3.3794,-3.3503,-3.3503,-3.3329,-3.3358,-3.3532,-3.3819,-3.4138,-3.4399,-3.4399,-3.4399,-3.4399,-3.4399,-3.4399,-3.4399,-3.4399,-3.3558,-3.2481,-3.2481,-3.1613,-3.0627,-3.0772,-3.1148,-3.138,-3.0772,-3.0945,-3.1177,-3.0743,-3.0598,-3.0598,-3.0598,-3.0598,-3.0598,-3.0598,-3.0598,-3.0656,-3.0801,-3.086,-3.1179,-3.213,-3.2244,-3.2463,-3.3136,-3.2516,-3.2045,-3.2344,-3.2787,-3.3351,-3.3883,-3.3999,-3.4088,-3.4241,-3.415,-3.4147,-3.4327,-3.4288,-3.4907,-3.6322,-3.5922,-3.5919,-3.6433,-3.7205,-3.7237,-3.6681,-3.6507,-3.6477,-3.6631,-3.6133,-3.5846,-3.5716,-3.5716,-3.5619,-3.5519,-3.5519,-3.5519,-3.5519,-3.5519,-3.5519,-3.5519,-3.5519,-3.5519,-3.5519,-3.3859,-3.3911,-3.3975,-3.3923,-3.445,-3.4558,-3.3675,-3.381,-3.381,-3.3213,-3.3132,-3.3132,-3.3132,-3.3132,-3.2996,-3.2707,-3.2952,-3.2843,-3.2246,-3.2218,-3.2218,-3.2218,-3.2218,-3.2218,-3.2218,-3.2218,-3.2218,-3.2218,-3.2704,-3.3094,-3.3304,-3.322,-3.3503,-3.3935,-3.3006,-3.2571,-3.2571,-3.2312,-3.2341,-3.26,-3.2948,-3.3441,-3.4022,-3.4283,-3.4399,-3.4399,-3.4399,-3.4399,-3.4399,-3.4399,-3.3558,-3.2481,-3.2481,-3.1613,-3.0598,-3.0598,-3.0829,-3.1003,-3.0685,-3.0829,-3.1003,-3.0685,-3.0598,-3.0598,-3.0598,-3.0598,-3.0598,-3.0598,-3.0598,-3.0598,-3.0598,-3.0598,-3.077,-3.1219,-3.1626,-3.2018,-3.2395,-3.2129,-3.1924,-3.1985,-3.2871,-3.3547,-3.3836,-3.4159,-3.4335,-3.4335,-3.4335,-3.4368,-3.4404,-3.4469,-3.4909,-3.5689,-3.5294,-3.527,-3.5705,-3.6011,-3.6229,-3.6291,-3.582,-3.572,-3.5973,-3.5651,-3.5519,-3.5519,-3.5519,-3.5519,-3.5519,-3.5519,-3.5519,-3.5519,-3.5519,-3.531,-3.507,-3.54,-3.531,-3.507,-3.3303,-3.3225,-3.3167,-3.3587,-3.3799,-3.3691,-3.3061,-3.3033,-3.287,-3.23,-3.2218,-3.2218,-3.2218,-3.2218,-3.2218,-3.2218,-3.268,-3.2762,-3.2246,-3.2218,-3.2218,-3.2218,-3.2218,-3.2218,-3.2218,-3.2218,-3.2218,-3.2218,-3.2881,-3.3178,-3.3136,-3.2758,-3.2825,-3.33,-3.2048,-3.1495,-3.1466,-3.0945,-3.1032,-3.1495,-3.1611,-3.2338,-3.3416,-3.3935,-3.4109,-3.4109,-3.4109,-3.4109,-3.4109,-3.4109,-3.3354,-3.2367,-3.2367,-3.1555,-3.0598,-3.0598,-3.0598,-3.0598,-3.0598,-3.0598,-3.0598,-3.0598,-3.0598,-3.0598,-3.0598,-3.0598,-3.0598,-3.0598,-3.0598,-3.0598,-3.0598,-3.0744,-3.0887,-3.0898,-3.1566,-3.2137,-3.2066,-3.2187,-3.2248,-3.2248,-3.3307,-3.398,-3.3817,-3.4313,-3.4664,-3.4664,-3.4664,-3.4698,-3.4835,-3.4868,-3.4868,-3.4835,-3.4868,-3.4971,-3.5237,-3.5136,-3.5397,-3.5975,-3.5234,-3.51,-3.5519,-3.5519,-3.5519,-3.5519,-3.5519,-3.5519,-3.5519,-3.5519,-3.5459,-3.534,-3.534,-3.4921,-3.4444,-3.51,-3.4981,-3.4593,-3.1683,-3.2401,-3.2949,-3.2535,-3.323,-3.3528,-3.2481,-3.2762,-3.287,-3.23,-3.2218,-3.2218,-3.2218,-3.2218,-3.2218,-3.2218,-3.23,-3.23,-3.2218,-3.2218,-3.2218,-3.2218,-3.2218,-3.2218,-3.2218,-3.2218,-3.2218,-3.2218,-3.2596,-3.2674,-3.2448,-3.272,-3.277,-3.2629,-3.1843,-3.1495,-3.1466,-3.1409,-3.1438,-3.1524,-3.2104,-3.2452,-3.2687,-3.2742,-3.2771,-3.2771,-3.2771,-3.2771,-3.2771,-3.2771,-3.2278,-3.164,-3.164,-3.1177,-3.0598,-3.0598,-3.0598,-3.0598,-3.0598,-3.0598,-3.0598,-3.0598,-3.0598,-3.0598,-3.0598,-3.0598,-3.0598,-3.0598,-3.0598,-3.0598,-3.0598,-3.1478,-3.2213,-3.222,-3.2769,-3.3252,-3.3252,-3.3346,-3.341,-3.3278,-3.3885,-3.4321,-3.4288,-3.4404,-3.4462,-3.4462,-3.4462,-3.4462,-3.4467,-3.4631,-3.4664,-3.4467,-3.4664,-3.4698,-3.4568,-3.4534,-3.4735,-3.51,-3.4968,-3.51,-3.5519,-3.5519,-3.5519,-3.5519,-3.5519,-3.5519,-3.5519,-3.5519,-3.516,-3.4683,-3.4683,-3.4233,-3.3724,-3.4414,-3.4593,-3.4503,-3.1061,-3.1137,-3.1337,-3.2063,-3.2357,-3.2407,-3.2227,-3.2463,-3.2517,-3.2246,-3.2218,-3.2218,-3.2218,-3.2218,-3.2218,-3.2218,-3.2218,-3.2218,-3.2218,-3.2218,-3.2218,-3.2218,-3.2218,-3.2055,-3.1694,-3.1694,-3.1558,-3.1232,-3.1737,-3.1942,-3.1831,-3.2054,-3.2092,-3.193,-3.1293,-3.1003,-3.0974,-3.0625,-3.0684,-3.1032,-3.1351,-3.1671,-3.1988,-3.2336,-3.2481,-3.2481,-3.2481,-3.2481,-3.2481,-3.2481,-3.2046,-3.1495,-3.1495,-3.109,-3.0598,-3.0598,-3.0598,-3.0598,-3.0598,-3.0598,-3.0598,-3.0598,-3.0598,-3.0685,-3.1003,-3.109,-3.1177,-3.1555,-3.1464,-3.1284,-3.1284,-3.1963,-3.2555,-3.2786,-3.3091,-3.3211,-3.298,-3.3336,-3.3569,-3.3503,-3.4022,-3.4399,-3.4399,-3.4399,-3.4399,-3.4399,-3.4399,-3.4399,-3.4399,-3.4496,-3.4496,-3.4399,-3.4496,-3.4496,-3.4399,-3.453,-3.4698,-3.4902,-3.5001,-3.5228,-3.5519,-3.5519,-3.5519,-3.5519,-3.5519,-3.5519,-3.5459,-3.51,-3.4803,-3.4474,-3.4114,-3.3754,-3.3544,-3.3844,-3.3933,-3.3933,-3.0553,-3.0355,-3.0419,-3.1569,-3.1579,-3.1542,-3.19,-3.2109,-3.2218,-3.2218,-3.2218,-3.2218,-3.2218,-3.2218,-3.2218,-3.2218,-3.2218,-3.2218,-3.2218,-3.2218,-3.2218,-3.2218,-3.2083,-3.1712,-3.111,-3.1081,-3.0853,-3.0418,-3.0936,-3.1154,-3.1086,-3.1222,-3.1221,-3.117,-3.077,-3.0598,-3.0569,-3.0045,-3.0132,-3.0598,-3.0598,-3.0858,-3.1351,-3.1874,-3.2014,-3.1951,-3.2046,-3.2014,-3.1951,-3.2046,-3.1729,-3.1293,-3.1293,-3.0974,-3.0598,-3.0598,-3.0598,-3.0598,-3.0598,-3.0598,-3.0598,-3.0598,-3.0714,-3.0916,-3.1409,-3.1611,-3.1872,-3.2365,-3.224,-3.2057,-3.2179,-3.2507,-3.2896,-3.3323,-3.344,-3.3346,-3.2977,-3.3416,-3.3802,-3.3802,-3.4143,-3.4428,-3.4496,-3.4428,-3.4399,-3.4399,-3.4399,-3.4399,-3.4399,-3.4399,-3.4399,-3.4399,-3.4399,-3.4399,-3.4399,-3.4597,-3.4765,-3.4902,-3.51,-3.5326,-3.5519,-3.5519,-3.5519,-3.5519,-3.5519,-3.54,-3.522,-3.4713,-3.4324,-3.3963,-3.3455,-3.3185,-3.3066,-3.3215,-3.3275,-3.3275,-2.9624,-3.0861,-3.168,-3.062,-3.1357,-3.1936,-3.1357,-3.1827,-3.2218,-3.2218,-3.2218,-3.2218,-3.2218,-3.2218,-3.2218,-3.2218,-3.2218,-3.2218,-3.2218,-3.2218,-3.2218,-3.2218,-3.1639,-3.1092,-3.0474,-3.0465,-3.0446,-3.0418,-3.0453,-3.0357,-3.0085,-3.0447,-3.0457,-3.0199,-3.0476,-3.0598,-3.0598,-3.0569,-3.0569,-3.0598,-3.0598,-3.0627,-3.0685,-3.0743,-3.0531,-3.0315,-3.0622,-3.0531,-3.0315,-3.0622,-3.0714,-3.0685,-3.0685,-3.0656,-3.0598,-3.0598,-3.0598,-3.0598,-3.0598,-3.0598,-3.0598,-3.0598,-3.1003,-3.1437,-3.1466,-3.1959,-3.2423,-3.2481,-3.2481,-3.2571,-3.2966,-3.322,-3.3598,-3.4182,-3.4471,-3.4514,-3.4283,-3.4447,-3.4606,-3.4606,-3.4501,-3.4496,-3.4664,-3.453,-3.4399,-3.4399,-3.4399,-3.4399,-3.4399,-3.4399,-3.4399,-3.4399,-3.4399,-3.4399,-3.4399,-3.4597,-3.4765,-3.4902,-3.51,-3.5326,-3.5519,-3.5519,-3.5519,-3.5519,-3.5519,-3.513,-3.4563,-3.4533,-3.3754,-3.2647,-3.2587,-3.2198,-3.172,-3.2318,-3.2557,-3.2557,-2.938,-2.9651,-2.9999,-3.0241,-3.0696,-3.106,-3.1182,-3.179,-3.2218,-3.2218,-3.2218,-3.2218,-3.2218,-3.2218,-3.2218,-3.2218,-3.2218,-3.2055,-3.1667,-3.2001,-3.2218,-3.2218,-3.1612,-3.1018,-3.043,-3.0045,-2.9659,-2.9279,-2.9477,-2.9563,-2.9564,-2.9823,-3.0117,-3.0405,-3.0352,-3.0416,-3.0598,-3.0598,-3.0598,-3.0598,-3.0598,-3.0598,-3.0568,-3.0385,-3.0203,-3.008,-3.0019,-3.005,-3.0111,-3.0264,-3.0446,-3.0598,-3.0598,-3.0598,-3.0598,-3.0598,-3.0598,-3.0685,-3.1061,-3.0858,-3.0685,-3.1061,-3.1351,-3.1729,-3.2542,-3.2919,-3.3209,-3.3616,-3.3703,-3.3703,-3.3856,-3.3968,-3.4143,-3.4359,-3.4476,-3.4496,-3.4399,-3.4496,-3.453,-3.453,-3.4462,-3.4428,-3.453,-3.4462,-3.4399,-3.4399,-3.4399,-3.4399,-3.4399,-3.4399,-3.4225,-3.3848,-3.4196,-3.4399,-3.4399,-3.4668,-3.4835,-3.4902,-3.5228,-3.5424,-3.5519,-3.5519,-3.5519,-3.5519,-3.5519,-3.537,-3.504,-3.4203,-3.3574,-3.3036,-3.2198,-3.1959,-3.2138,-3.2407,-3.2527,-3.2527,-2.9067,-2.9067,-2.9223,-2.9651,-3.0203,-3.0658,-3.0884,-3.1653,-3.2218,-3.2218,-3.2218,-3.2218,-3.2218,-3.2218,-3.2218,-3.2218,-3.2218,-3.2028,-3.1585,-3.1775,-3.1812,-3.1631,-3.1081,-3.0458,-2.9847,-2.9456,-2.9007,-2.86,-2.8826,-2.8986,-2.9072,-2.9334,-2.9704,-3.0128,-3.0107,-3.0233,-3.0447,-3.0538,-3.0598,-3.0598,-3.0506,-3.0417,-3.0416,-3.008,-2.9896,-2.9772,-2.9772,-2.9834,-2.9988,-3.0203,-3.0416,-3.0598,-3.0598,-3.0598,-3.0598,-3.0598,-3.0743,-3.0974,-3.1409,-3.1351,-3.1293,-3.1729,-3.199,-3.2367,-3.33,-3.3649,-3.3877,-3.4312,-3.4399,-3.4399,-3.4399,-3.4399,-3.4399,-3.4399,-3.4399,-3.4399,-3.4399,-3.4399,-3.4428,-3.4496,-3.4462,-3.4428,-3.4496,-3.4462,-3.4399,-3.4399,-3.4399,-3.4341,-3.4138,-3.4312,-3.4109,-3.3532,-3.408,-3.4399,-3.4399,-3.4735,-3.4902,-3.4902,-3.5326,-3.5519,-3.5519,-3.5519,-3.5519,-3.5519,-3.5519,-3.537,-3.51,-3.3963,-3.3365,-3.3095,-3.2168,-3.1959,-3.2198,-3.2407,-3.2377,-3.2168,-2.8618,-2.9457,-2.9896,-2.8697,-2.9973,-3.0996,-3.0393,-3.1357,-3.2182,-3.2218,-3.2218,-3.2218,-3.2218,-3.2218,-3.2218,-3.2218,-3.2218,-3.2191,-3.2191,-3.1612,-3.1011,-3.0438,-2.9812,-2.9235,-2.8599,-2.8577,-2.86,-2.86,-2.86,-2.86,-2.8633,-2.8954,-2.9113,-2.9145,-2.9803,-3.008,-3.0111,-3.0447,-3.0598,-3.0568,-3.0233,-3.008,-3.005,-2.9741,-2.9397,-2.9208,-2.9865,-2.9896,-2.971,-3.0357,-3.0598,-3.0598,-3.0598,-3.0598,-3.0598,-3.0598,-3.1032,-3.1495,-3.1495,-3.1988,-3.251,-3.251,-3.3006,-3.3503,-3.3503,-3.3964,-3.4399,-3.4399,-3.4399,-3.4399,-3.4399,-3.4399,-3.4399,-3.4399,-3.4399,-3.4399,-3.4399,-3.4399,-3.4496,-3.4664,-3.453,-3.4496,-3.4664,-3.453,-3.4399,-3.4399,-3.4399,-3.4138,-3.3532,-3.408,-3.4109,-3.3532,-3.408,-3.4399,-3.4399,-3.4735,-3.4902,-3.4902,-3.5326,-3.5519,-3.5519,-3.5519,-3.5519,-3.5519,-3.5519,-3.513,-3.4474,-3.3754,-3.3125,-3.2497,-3.2527,-3.2079,-3.157,-3.2228,-3.2079,-3.1511,-2.8562,-2.8776,-2.8934,-2.8538,-2.9302,-3.0012,-3.0241,-3.0959,-3.1653,-3.2146,-3.2218,-3.2218,-3.2218,-3.2218,-3.2218,-3.2218,-3.1802,-3.1395,-3.0961,-3.0364,-2.9943,-2.9773,-2.9592,-2.9402,-2.9235,-2.8833,-2.86,-2.86,-2.86,-2.86,-2.86,-2.8697,-2.9077,-2.9638,-2.9738,-3.0019,-3.0447,-3.0538,-3.0447,-3.0233,-3.0142,-2.9958,-2.971,-2.9397,-2.9334,-2.946,-2.9429,-2.9648,-2.9988,-3.0172,-3.0416,-3.0598,-3.0598,-3.0598,-3.0598,-3.0598,-3.1032,-3.1582,-3.2075,-3.2687,-3.3213,-3.3213,-3.3358,-3.362,-3.4022,-3.4283,-3.4399,-3.4399,-3.4399,-3.4399,-3.4399,-3.4399,-3.4399,-3.4399,-3.4399,-3.4399,-3.4399,-3.4399,-3.4428,-3.4496,-3.4462,-3.4428,-3.4496,-3.4462,-3.4399,-3.4399,-3.4399,-3.4292,-3.4145,-3.4297,-3.4109,-3.3532,-3.408,-3.4399,-3.4399,-3.4735,-3.4902,-3.4902,-3.5326,-3.5519,-3.5519,-3.5519,-3.5519,-3.5519,-3.5519,-3.54,-3.51,-3.3963,-3.3395,-3.3125,-3.2168,-3.169,-3.157,-3.2228,-3.2079,-3.157,-2.8522,-2.8522,-2.8522,-2.8522,-2.9013,-2.9613,-3.0203,-3.0809,-3.1431,-3.2109,-3.2218,-3.2218,-3.2218,-3.2218,-3.2218,-3.2218,-3.1639,-3.1151,-3.0771,-3.0174,-2.974,-2.9529,-2.9502,-2.9393,-2.9176,-2.9007,-2.8817,-2.86,-2.86,-2.86,-2.86,-2.86,-2.8885,-2.9386,-2.9551,-2.9834,-3.0205,-3.0217,-3.004,-2.974,-2.956,-2.9315,-2.9063,-2.8939,-2.9113,-2.9397,-2.9334,-2.9648,-3.0111,-3.0264,-3.0417,-3.0598,-3.0598,-3.0772,-3.0945,-3.0945,-3.1584,-3.2367,-3.2774,-3.3354,-3.3848,-3.3848,-3.3848,-3.3935,-3.4341,-3.4399,-3.4399,-3.4399,-3.4399,-3.4399,-3.4399,-3.4399,-3.4399,-3.4399,-3.4399,-3.4399,-3.4399,-3.4399,-3.4399,-3.4399,-3.4399,-3.4399,-3.4399,-3.4399,-3.4399,-3.4399,-3.4399,-3.4292,-3.4054,-3.4268,-3.4109,-3.3532,-3.408,-3.4399,-3.4399,-3.4735,-3.4902,-3.4902,-3.5326,-3.5519,-3.5519,-3.5519,-3.5519,-3.5519,-3.5519,-3.534,-3.5011,-3.3933,-3.3335,-3.3036,-3.2198,-3.172,-3.157,-3.2228,-3.2079,-3.157,-2.8522,-2.8522,-2.8522,-2.8522,-2.8973,-2.9535,-3.0126,-3.0696,-3.1283,-3.1936,-3.2109,-3.2109,-3.2109,-3.2182,-3.2218,-3.2218,-3.1639,-3.1232,-3.107,-3.0608,-3.0038,-2.9448,-2.9475,-2.9257,-2.8682,-2.9176,-2.9203,-2.8682,-2.8627,-2.8633,-2.8665,-2.8665,-2.8697,-2.8761,-2.9397,-2.9679,-2.9685,-2.9692,-2.9521,-2.9196,-2.8782,-2.8446,-2.8247,-2.8402,-2.8716,-2.918,-2.9407,-2.9777,-3.0203,-3.0477,-3.0598,-3.0598,-3.0598,-3.1003,-3.1495,-3.1495,-3.2454,-3.3503,-3.3503,-3.3935,-3.4399,-3.4399,-3.4399,-3.4399,-3.4399,-3.4399,-3.4399,-3.4399,-3.4399,-3.4399,-3.4399,-3.4399,-3.4399,-3.4399,-3.4399,-3.4399,-3.4399,-3.4399,-3.4399,-3.4399,-3.4399,-3.4399,-3.4399,-3.4399,-3.4399,-3.4399,-3.4399,-3.4167,-3.362,-3.4109,-3.4138,-3.362,-3.4109,-3.4399,-3.4428,-3.4735,-3.4902,-3.4902,-3.5326,-3.5519,-3.5519,-3.5519,-3.5519,-3.5519,-3.5519,-3.513,-3.4444,-3.3754,-3.3095,-3.2467,-3.2407,-3.2019,-3.157,-3.2168,-3.2019,-3.1511,-2.8522,-2.8522,-2.8522,-2.8522,-2.8618,-2.8895,-2.9496,-2.9729,-3.0012,-3.062,-3.1134,-3.1431,-3.1431,-3.19,-3.2218,-3.2218,-3.1639,-3.069,-2.9279,-2.9496,-2.9448,-2.8817,-2.9257,-2.9448,-2.9312,-2.8953,-2.8953,-2.9312,-2.8817,-2.8729,-2.9017,-2.9017,-2.9271,-2.9772,-2.9927,-3.0142,-3.0387,-3.0393,-3.0034,-2.9456,-2.8919,-2.8605,-2.8398,-2.7546,-2.8161,-2.9439,-2.9026,-2.9563,-3.0477,-3.0568,-3.0598,-3.0598,-3.0598,-3.1003,-3.1495,-3.1495,-3.2454,-3.3503,-3.3503,-3.3935,-3.4399,-3.4399,-3.4399,-3.4399,-3.4399,-3.4399,-3.4399,-3.4399,-3.4399,-3.4399,-3.4399,-3.4399,-3.4399,-3.4399,-3.4399,-3.4399,-3.4399,-3.4399,-3.4399,-3.4399,-3.4399,-3.4399,-3.4399,-3.4399,-3.4399,-3.4399,-3.4399,-3.4341,-3.4225,-3.4341,-3.4341,-3.4225,-3.4341,-3.4496,-3.4631,-3.4802,-3.4902,-3.4902,-3.5326,-3.5519,-3.5519,-3.5519,-3.5519,-3.5519,-3.5519,-3.513,-3.4444,-3.3754,-3.3095,-3.2437,-3.1929,-3.163,-3.1511,-3.166,-3.163,-3.1511,-2.8522,-2.8522,-2.8522,-2.8522,-2.8522,-2.8697,-2.9302,-2.9419,-2.9613,-3.0203,-3.0809,-3.1182,-3.1182,-3.1827,-3.2218,-3.2218,-3.1155,-3.0304,-2.993,-2.9403,-2.91,-2.9034,-2.9339,-2.9604,-2.9903,-2.9062,-2.8899,-2.9502,-2.9121,-2.9013,-2.9204,-2.939,-2.9673,-3.0012,-3.0078,-3.0203,-3.0357,-3.0189,-2.9746,-2.9113,-2.8494,-2.8016,-2.7678,-2.7179,-2.7707,-2.8689,-2.8842,-2.963,-3.0598,-3.0598,-3.0598,-3.0598,-3.0598,-3.1003,-3.1553,-3.1872,-3.2687,-3.3561,-3.3848,-3.4167,-3.4399,-3.4399,-3.4399,-3.4399,-3.4399,-3.4399,-3.4399,-3.4399,-3.4399,-3.4399,-3.4399,-3.4399,-3.4399,-3.4399,-3.4399,-3.4399,-3.4399,-3.4399,-3.4399,-3.4399,-3.4399,-3.4399,-3.4399,-3.4399,-3.4399,-3.4399,-3.4399,-3.4399,-3.4399,-3.4399,-3.4399,-3.4399,-3.4399,-3.4462,-3.4563,-3.4769,-3.4902,-3.4902,-3.5326,-3.5519,-3.5519,-3.5519,-3.5519,-3.5519,-3.5519,-3.513,-3.4444,-3.3754,-3.3095,-3.2407,-3.175,-3.1511,-3.1511,-3.1511,-3.1511,-3.1511,-2.8522,-2.8522,-2.8522,-2.8522,-2.8426,-2.856,-2.9145,-2.9188,-2.9319,-2.9896,-3.0429,-3.0779,-3.0884,-3.1579,-3.2019,-3.2046,-3.0735,-3.0209,-3.0926,-2.9636,-2.8979,-2.9333,-2.9366,-2.9604,-3.0228,-2.917,-2.8926,-2.9631,-2.9371,-2.9323,-2.9358,-2.9648,-2.9777,-2.9839,-2.9938,-3.0001,-3.0002,-2.9695,-2.9288,-2.8697,-2.7904,-2.7298,-2.696,-2.6923,-2.7275,-2.7878,-2.8537,-2.9433,-3.0307,-3.0394,-3.0365,-3.0307,-3.0423,-3.0858,-3.1496,-3.2164,-3.289,-3.3649,-3.4254,-3.4399,-3.4399,-3.4399,-3.4399,-3.4399,-3.4399,-3.4399,-3.4399,-3.4399,-3.4399,-3.4399,-3.4399,-3.4399,-3.4399,-3.4399,-3.4399,-3.4399,-3.4399,-3.4399,-3.4399,-3.4399,-3.4399,-3.4399,-3.4399,-3.4399,-3.4399,-3.4399,-3.4399,-3.4399,-3.4399,-3.4399,-3.4428,-3.4462,-3.4462,-3.4496,-3.4563,-3.4802,-3.4968,-3.5001,-3.5326,-3.5519,-3.5519,-3.5519,-3.5519,-3.5519,-3.5519,-3.513,-3.4444,-3.3754,-3.3095,-3.2407,-3.175,-3.1511,-3.1511,-3.1511,-3.1511,-3.1511,-2.8522,-2.8522,-2.8522,-2.8522,-2.8138,-2.7993,-2.8545,-2.8231,-2.8149,-2.8688,-2.8842,-2.9126,-2.9601,-3.0658,-3.1366,-3.1414,-3.1189,-3.0674,-2.9794,-2.9544,-2.9185,-2.8736,-2.8709,-2.898,-2.9611,-2.8953,-2.9143,-3.0283,-2.9503,-2.9271,-2.9554,-2.9329,-2.9342,-2.9637,-2.9667,-2.9667,-2.9667,-2.9639,-2.9376,-2.8907,-2.7512,-2.7198,-2.7445,-2.6187,-2.675,-2.8083,-2.7683,-2.8166,-2.9058,-2.9581,-2.9377,-2.9058,-2.9581,-3.019,-3.0829,-3.1467,-3.2513,-3.3649,-3.4254,-3.4399,-3.4399,-3.4399,-3.4399,-3.4399,-3.4399,-3.4399,-3.4399,-3.4399,-3.4399,-3.4399,-3.4399,-3.4399,-3.4399,-3.4399,-3.4399,-3.4399,-3.4399,-3.4399,-3.4399,-3.4399,-3.4399,-3.4399,-3.4399,-3.4399,-3.4399,-3.4399,-3.4399,-3.4399,-3.4399,-3.4399,-3.4496,-3.4664,-3.4664,-3.4798,-3.5096,-3.5162,-3.5261,-3.5424,-3.5457,-3.5519,-3.5519,-3.5519,-3.5519,-3.5519,-3.5519,-3.513,-3.4444,-3.3754,-3.3095,-3.2407,-3.175,-3.1511,-3.1511,-3.1511,-3.1511,-3.1511,-2.8522,-2.8522,-2.8522,-2.8522,-2.833,-2.8138,-2.8065,-2.8114,-2.8138,-2.8065,-2.8635,-2.9145,-2.9355,-3.0469,-3.1119,-3.0851,-3.0254,-2.9522,-2.8652,-2.8038,-2.7657,-2.7689,-2.7723,-2.8119,-2.904,-2.8445,-2.8744,-2.9876,-2.9366,-2.9077,-2.9024,-2.9075,-2.9288,-2.9581,-2.9581,-2.9581,-2.9581,-2.9581,-2.9203,-2.8511,-2.7485,-2.7117,-2.7115,-2.6272,-2.6436,-2.7168,-2.7448,-2.8018,-2.8738,-2.9,-2.8913,-2.8767,-2.9,-2.9523,-3.0161,-3.08,-3.1903,-3.3064,-3.3703,-3.4138,-3.4399,-3.4399,-3.4399,-3.4399,-3.4399,-3.4399,-3.4399,-3.4399,-3.4399,-3.4399,-3.4399,-3.4399,-3.4399,-3.4399,-3.4399,-3.4399,-3.4399,-3.4399,-3.4399,-3.4399,-3.4399,-3.4399,-3.4399,-3.4399,-3.4399,-3.4399,-3.4399,-3.4399,-3.4399,-3.4399,-3.4496,-3.4698,-3.4698,-3.4831,-3.5034,-3.5133,-3.5261,-3.5326,-3.5424,-3.5519,-3.5519,-3.5519,-3.5519,-3.5519,-3.5519,-3.534,-3.5011,-3.4354,-3.3664,-3.3006,-3.2318,-3.1839,-3.1511,-3.1511,-3.1511,-3.1511]},{"header":{"parameterUnit":"m.s-1","parameterCategory":1,"la1":30.6,"la2":28.766,"lo1":-90.7593,"lo2":-88.6598,"dy":0.0162,"dx":0.0183,"nx":116,"ny":114,"refTime":"2023-06-09T06:00:00:Z","depth":0,"parameterNumber":3,"parameterNumberName":"V-component_of_WINDS"},"data":[0.0,0.0,0.0,0.0,0.0,0.0,0.0,0.0,0.0,0.0,0.0,0.0,0.0,0.0,0.0,0.0,0.0,0.0,0.0,0.0,0.0,0.0,0.0,0.0,0.0,0.0,0.0,0.0,0.0,0.0,0.0,0.0,0.0,0.0,0.0,0.0,0.0,0.0,0.0,0.0,0.0,0.0,0.0,0.0,0.0,0.0,0.0,0.0,0.0,0.0,0.0,0.0,0.0,0.0,0.0,0.0,0.0,0.0,0.0,0.0,0.0,0.0,0.0,0.0,0.0,0.0,0.0,0.0,0.0,0.0,0.0,0.0,0.0,0.0,0.0,0.0,0.0,0.0,0.0,0.0,0.0,0.0,0.0,0.0,0.0,0.0,0.0,0.0,0.0,0.0,0.0,0.0,0.0,0.0,0.0,0.0,0.0,0.0,0.0,0.0,0.0,0.0,0.0,0.0,0.0,0.0,0.0,0.0,0.0,0.0,0.0,0.0,0.0,0.0,0.0,0.0,0.0,0.0,0.0,0.0,0.0,0.0,0.0,0.0,0.0,0.0,0.0,0.0,0.0,0.0,0.0,0.0,0.0,0.0,0.0,0.0,0.0,0.0,0.0,0.0,0.0,0.0,0.0,0.0,0.0,0.0,0.0,0.0,0.0,0.0,0.0,0.0,0.0,0.0,0.0,0.0,0.0,0.0,0.0,0.0,0.0,0.0,0.0,0.0,0.0,0.0,0.0,0.0,0.0,0.0,0.0,0.0,0.0,0.0,0.0,0.0,0.0,0.0,0.0,0.0,0.0,0.0,0.0,0.0,0.0,0.0,0.0,0.0,0.0,0.0,0.0,0.0,0.0,0.0,0.0,0.0,0.0,0.0,0.0,0.0,0.0,0.0,0.0,0.0,0.0,0.0,0.0,0.0,0.0,0.0,0.0,0.0,0.0,0.0,0.0,0.0,0.0,0.0,0.0,0.0,0.0,0.0,0.0,0.0,0.0,0.0,0.0,0.0,0.0,0.0,0.0,0.0,0.0,0.0,0.0,0.0,0.0,0.0,0.0,0.0,0.0,0.0,0.0,0.0,0.0,0.0,0.0,0.0,0.0,0.0,0.0,0.0,0.0,0.0,0.0,0.0,0.0,0.0,0.0,0.0,0.0,0.0,0.0,0.0,0.0,0.0,0.0,0.0,0.0,0.0,0.0,0.0,0.0,0.0,0.0,0.0,0.0,0.0,0.0,0.0,0.0,0.0,0.0,0.0,0.0,0.0,0.0,0.0,0.0,0.0,0.0,0.0,0.0,0.0,0.0,0.0,0.0,0.0,0.0,0.0,0.0,0.0,0.0,0.0,0.0,0.0,0.0,0.0,0.0,0.0,0.0,0.0,0.0,0.0,0.0,0.0,0.0,0.0,0.0,0.0,0.0,0.0,0.0,0.0,0.0,0.0,0.0,0.0,0.0,0.0,0.0,0.0,0.0,0.0,0.0,0.0,0.0,0.0,0.0,0.0,0.0,0.0,0.0,0.0,0.0,0.0,0.0,0.0,0.0,0.0,0.0,0.0,0.0,0.0,0.0,0.0,0.0,0.0,0.0,0.0,0.0,0.0,0.0,0.0,0.0,0.0,0.0,0.0,0.0,0.0,0.0,0.0,0.0,0.0,0.0,0.0,0.0,0.0,0.0,0.0,0.0,0.0,0.0,0.0,0.0,0.0,0.0,0.0,0.0,0.0,0.0,0.0,0.0,0.0,0.0,0.0,0.0,0.0,0.0,0.0,0.0,0.0,0.0,0.0,0.0,0.0,0.0,0.0,0.0,0.0,0.0,0.0,0.0,0.0,0.0,0.0,0.0,0.0,0.0,0.0,0.0,0.0,0.0,0.0,0.0,0.0,0.0,0.0,0.0,0.0,0.0,0.0,0.0,0.0,0.0,0.0,0.0,0.0,0.0,0.0,0.0,0.0,0.0,0.0,0.0,0.0,0.0,0.0,0.0,0.0,0.0,0.0,0.0,0.0,0.0,0.0,0.0,0.0,0.0,0.0,0.0,0.0,0.0,0.0,0.0,0.0,0.0,0.0,0.0,0.0,0.0,0.0,0.0,0.0,0.0,0.0,0.0,0.0,0.0,0.0,0.0,0.0,0.0,0.0,0.0,0.0,0.0,0.0,0.0,0.0,0.0,0.0,0.0,0.0,0.0,0.0,0.0,0.0,0.0,0.0,0.0,0.0,0.0,0.0,0.0,0.0,0.0,0.0,0.0,0.0,0.0,0.0,0.0,0.0,0.0,0.0,0.0,0.0,0.0,0.0,0.0,0.0,0.0,0.0,0.0,0.0,0.0,0.0,0.0,0.0,0.0,0.0,0.0,0.0,0.0,0.0,0.0,0.0,0.0,0.0,0.0,0.0,0.0,0.0,0.0,0.0,0.0,0.0,0.0,0.0,0.0,0.0,0.0,0.0,0.0,0.0,0.0,0.0,0.0,0.0,0.0,0.0,0.0,0.0,0.0,0.0,0.0,0.0,0.0,0.0,0.0,0.0,0.0,0.0,0.0,0.0,0.0,0.0,0.0,0.0,0.0,0.0,0.0,0.0,0.0,0.0,0.0,0.0,0.0,0.0,0.0,0.0,0.0,0.0,0.0,0.0,0.0,0.0,0.0,0.0,0.0,0.0,0.0,0.0,0.0,0.0,0.0,0.0,0.0,0.0,0.0,0.0,0.0,0.0,0.0,0.0,0.0,0.0,0.0,0.0,0.0,0.0,0.0,0.0,0.0,0.0,0.0,0.0,0.0,0.0,0.0,0.0,0.0,0.0,0.0,0.0,0.0,0.0,0.0,0.0,0.0,0.0,0.0,0.0,0.0,0.0,0.0,0.0,0.0,0.0,0.0,0.0,0.0,0.0,0.0,0.0,0.0,0.0,0.0,0.0,0.0,0.0,0.0,0.0,0.0,0.0,0.0,0.0,0.0,0.0,0.0,0.0,0.0,0.0,0.0,0.0,0.0,0.0,0.0,0.0,0.0,0.0,0.0,0.0,0.0,0.0,0.0,0.0,0.0,0.0,0.0,0.0,0.0,0.0,0.0,0.0,0.0,0.0,0.0,0.0,0.0,0.0,0.0,0.0,0.0,0.0,0.0,0.0,0.0,0.0,0.0,0.0,0.0,0.0,0.0,0.0,0.0,0.0,0.0,0.0,0.0,0.0,0.0,0.0,0.0,0.0,0.0,0.0,0.0,0.0,0.0,0.0,0.0,0.0,0.0,0.0,0.0,0.0,0.0,0.0,0.0,0.0,0.0,0.0,0.0,0.0,0.0,0.0,0.0,0.0,0.0,0.0,0.0,0.0,0.0,0.0,0.0,0.0,0.0,0.0,0.0,0.0,0.0,0.0,0.0,0.0,0.0,0.0,0.0,0.0,0.0,0.0,0.0,0.0,0.0,0.0,0.0,0.0,0.0,0.0,0.0,0.0,0.0,0.0,0.0,0.0,0.0,0.0,0.0,0.0,0.0,0.0,0.0,0.0,0.0,0.0,0.0,0.0,0.0,0.0,0.0,0.0,0.0,0.0,0.0,0.0,0.0,0.0,0.0,0.0,0.0,0.0,0.0,0.0,0.0,0.0,0.0,0.0,0.0,0.0,0.0,0.0,0.0,0.0,0.0,0.0,0.0,0.0,0.0,0.0,0.0,0.0,0.0,0.0,0.0,0.0,0.0,0.0,0.0,0.0,0.0,0.0,0.0,0.0,0.0,0.0,0.0,0.0,0.0,0.0,0.0,0.0,0.0,0.0,0.0,0.0,0.0,0.0,0.0,0.0,0.0,0.0,0.0,0.0,0.0,0.0,0.0,0.0,0.0,0.0,0.0,0.0,0.0,0.0,0.0,0.0,0.0,0.0,0.0,0.0,0.0,0.0,0.0,0.0,0.0,0.0,0.0,0.0,0.0,0.0,0.0,0.0,0.0,0.0,0.0,0.0,0.0,0.0,0.0,0.0,0.0,0.0,0.0,0.0,0.0,0.0,0.0,0.0,0.0,0.0,0.0,0.0,0.0,0.0,0.0,0.0,0.0,0.0,0.0,0.0,0.0,0.0,0.0,0.0,0.0,0.0,0.0,0.0,0.0,0.0,0.0,0.0,0.0,0.0,0.0,0.0,0.0,0.0,0.0,0.0,0.0,0.0,0.0,0.0,0.0,0.0,0.0,0.0,0.0,0.0,0.0,0.0,0.0,0.0,0.0,0.0,0.0,0.0,0.0,0.0,0.0,0.0,0.0,0.0,0.0,0.0,0.0,0.0,0.0,0.0,0.0,0.0,0.0,0.0,0.0,0.0,0.0,0.0,0.0,0.0,0.0,0.0,0.0,0.0,0.0,0.0,0.0,0.0,0.0,0.0,0.0,0.0,0.0,0.0,0.0,0.0,0.0,0.0,0.0,0.0,0.0,0.0,0.0,0.0,0.0,0.0,0.0,0.0,0.0,0.0,0.0,0.0,0.0,0.0,0.0,0.0,0.0,0.0,0.0,0.0,0.0,0.0,0.0,0.0,0.0,0.0,0.0,0.0,0.0,0.0,0.0,0.0,0.0,0.0,0.0,0.0,0.0,0.0,0.0,0.0,0.0,0.0,0.0,0.0,0.0,0.0,0.0,0.0,0.0,0.0,0.0,0.0,0.0,0.0,0.0,0.0,0.0,0.0,0.0,0.0,0.0,0.0,0.0,0.0,0.0,0.0,0.0,0.0,0.0,0.0,0.0,0.0,0.0,0.0,0.0,0.0,0.0,0.0,0.0,0.0,0.0,0.0,0.0,0.0,0.0,0.0,0.0,0.0,0.0,0.0,0.0,0.0,0.0,0.0,0.0,0.0,0.0,0.0,0.0,0.0,0.0,0.0,0.0,0.0,0.0,0.0,0.0,0.0,0.0,0.0,0.0,0.0,0.0,0.0,0.0,0.0,0.0,0.0,0.0,0.0,0.0,0.0,0.0,0.0,0.0,0.0,0.0,0.0,0.0,0.0,0.0,0.0,0.0,0.0,0.0,0.0,0.0,0.0,0.0,0.0,0.0,0.0,0.0,0.0,0.0,0.0,0.0,0.0,0.0,0.0,0.0,0.0,0.0,0.0,0.0,0.0,0.0,0.0,0.0,0.0,0.0,0.0,0.0,0.0,0.0,0.0,0.0,0.0,0.0,0.0,0.0,0.0,0.0,0.0,0.0,0.0,0.0,0.0,0.0,0.0,0.0,0.0,0.0,0.0,0.0,0.0,0.0,0.0,0.0,0.0,0.0,0.0,0.0,0.0,0.0,0.0,0.0,0.0,0.0,0.0,0.0,0.0,0.0,0.0,0.0,0.0,0.0,0.0,0.0,0.0,0.0,0.0,0.0,0.0,0.0,0.0,0.0,0.0,0.0,0.0,0.0,0.0,0.0,0.0,0.0,0.0,0.0,0.0,0.0,0.0,0.0,0.0,0.0,0.0,0.0,0.0,0.0,0.0,0.0,0.0,0.0,0.0,0.0,0.0,0.0,0.0,0.0,0.0,0.0,0.0,0.0,0.0,0.0,0.0,0.0,0.0,0.0,0.0,0.0,0.0,0.0,0.0,0.0,0.0,0.0,0.0,0.0,0.0,0.0,0.0,0.0,0.0,0.0,0.0,0.0,0.0,0.0,0.0,0.0,0.0,0.0,0.0,0.0,0.0,0.0,0.0,0.0,0.0,0.0,0.0,0.0,0.0,0.0,0.0,0.0,0.0,0.0,0.0,0.0,0.0,0.0,0.0,0.0,0.0,0.0,0.0,0.0,0.0,0.0,0.0,0.0,0.0,0.0,0.0,0.0,0.0,0.0,0.0,0.0,0.0,0.0,0.0,0.0,0.0,0.0,0.0,0.0,0.0,0.0,0.0,0.0,0.0,0.0,0.0,0.0,0.0,0.0,0.0,0.0,0.0,0.0,0.0,0.0,0.0,0.0,0.0,0.0,0.0,0.0,0.0,0.0,0.0,0.0,0.0,0.0,0.0,0.0,0.0,0.0,0.0,0.0,0.0,0.0,0.0,0.0,0.0,0.0,0.0,0.0,0.0,0.0,0.0,0.0,0.0,0.0,0.0,0.0,0.0,0.0,0.0,-1.666,-1.6326,0.0,0.0,0.0,0.0,0.0,0.0,0.0,0.0,0.0,0.0,0.0,0.0,0.0,0.0,0.0,0.0,0.0,0.0,0.0,0.0,0.0,0.0,0.0,0.0,0.0,0.0,0.0,0.0,0.0,0.0,0.0,0.0,0.0,0.0,0.0,0.0,0.0,0.0,-1.3724,-1.2235,-1.0911,-1.1112,-1.2012,-1.3437,0.0,0.0,0.0,0.0,0.0,0.0,0.0,0.0,0.0,0.0,0.0,0.0,0.0,0.0,0.0,0.0,0.0,0.0,0.0,0.0,0.0,0.0,0.0,0.0,0.0,0.0,0.0,0.0,0.0,0.0,0.0,0.0,0.0,0.0,0.0,0.0,0.0,0.0,0.0,0.0,0.0,0.0,0.0,0.0,0.0,0.0,0.0,0.0,0.0,0.0,0.0,0.0,0.0,0.0,0.0,0.0,0.0,0.0,0.0,0.0,0.0,0.0,0.0,0.0,0.0,0.0,0.0,0.0,0.0,0.0,-1.7448,-1.7048,0.0,0.0,0.0,0.0,0.0,0.0,0.0,0.0,0.0,0.0,0.0,0.0,0.0,0.0,0.0,0.0,0.0,0.0,0.0,0.0,0.0,0.0,0.0,0.0,-2.4232,-2.5689,-2.8369,0.0,0.0,0.0,0.0,0.0,0.0,0.0,0.0,-1.8534,-1.7006,-1.5125,-1.286,-1.1255,-1.0349,-1.0995,-1.1957,-1.3119,-1.3347,0.0,0.0,0.0,0.0,0.0,0.0,0.0,0.0,0.0,0.0,0.0,0.0,0.0,0.0,0.0,0.0,0.0,0.0,0.0,0.0,0.0,0.0,0.0,0.0,0.0,0.0,0.0,0.0,0.0,0.0,0.0,0.0,0.0,0.0,0.0,0.0,0.0,0.0,0.0,0.0,0.0,0.0,0.0,0.0,0.0,0.0,0.0,0.0,0.0,0.0,0.0,0.0,0.0,0.0,0.0,0.0,0.0,0.0,0.0,0.0,0.0,0.0,0.0,-1.6932,-1.8186,-1.8878,-1.8918,-1.9025,-1.9118,-1.8424,-1.8009,-1.7769,-1.7181,0.0,0.0,0.0,0.0,0.0,0.0,0.0,0.0,0.0,0.0,0.0,0.0,0.0,0.0,0.0,0.0,0.0,0.0,0.0,0.0,0.0,-2.4378,-2.5801,-2.7655,-2.8886,-2.8742,0.0,0.0,0.0,0.0,0.0,0.0,-1.9473,-1.8482,-1.6699,-1.4089,-1.1857,-1.0543,-1.0159,-1.0051,-1.0328,-1.091,-1.2758,-1.3633,-1.375,0.0,0.0,0.0,0.0,0.0,0.0,0.0,0.0,0.0,0.0,0.0,0.0,0.0,0.0,0.0,0.0,0.0,0.0,0.0,0.0,0.0,0.0,0.0,0.0,0.0,0.0,0.0,0.0,0.0,0.0,0.0,0.0,0.0,0.0,0.0,0.0,0.0,0.0,0.0,0.0,0.0,-0.5149,-0.7639,0.0,0.0,0.0,0.0,0.0,0.0,0.0,0.0,0.0,0.0,0.0,0.0,0.0,-1.1908,-1.1191,-1.5316,-1.692,-1.6085,-1.9625,-2.0996,-2.0401,-2.0655,-2.0508,-2.0067,-2.0214,0.0,-1.8704,-1.809,0.0,0.0,0.0,0.0,0.0,0.0,0.0,0.0,0.0,0.0,0.0,0.0,0.0,0.0,0.0,0.0,0.0,0.0,0.0,0.0,0.0,-2.584,-2.7162,-2.7868,-2.9156,-2.9058,-2.7015,0.0,0.0,0.0,0.0,-2.0666,-1.8762,-1.7624,-1.5648,-1.2783,-1.1995,-1.1521,-1.139,-1.0854,-1.0641,-1.0708,-1.1048,-1.1854,-1.2973,-1.2305,0.0,0.0,0.0,0.0,0.0,0.0,0.0,0.0,0.0,0.0,0.0,0.0,0.0,0.0,0.0,0.0,0.0,0.0,0.0,0.0,0.0,0.0,0.0,0.0,0.0,0.0,0.0,0.0,0.0,0.0,0.0,0.0,0.0,0.0,0.0,0.0,0.0,0.0,0.0,-0.5448,-0.6282,-0.779,-0.7875,-0.8356,0.0,0.0,0.0,0.0,0.0,0.0,0.0,0.0,0.0,-1.2311,-1.276,-1.297,-1.2909,-1.5355,-1.6261,-1.5818,-1.9161,-2.0444,-1.9953,-2.0913,-2.1122,-2.0735,-2.0869,-2.0628,-2.008,-1.9158,-1.8357,-1.7622,0.0,0.0,0.0,0.0,-1.6402,-1.6647,0.0,0.0,0.0,0.0,0.0,0.0,0.0,0.0,0.0,0.0,0.0,0.0,-2.5219,-2.6855,-2.7941,-2.8179,-2.924,-2.9061,-2.7156,-2.5926,0.0,0.0,-2.1346,-2.0143,-1.8263,-1.6522,-1.4518,-1.2283,-1.238,-1.2152,-1.168,-1.1007,-1.0369,-0.9686,-0.8545,-0.9419,-1.1724,-1.0546,-1.068,-1.1663,0.0,0.0,0.0,0.0,0.0,0.0,0.0,0.0,0.0,0.0,0.0,0.0,0.0,0.0,0.0,0.0,0.0,0.0,0.0,0.0,0.0,0.0,0.0,0.0,0.0,0.0,0.0,0.0,0.0,0.0,0.0,0.0,0.0,0.0,0.0,0.0,0.0,-0.7131,-0.7634,-0.8562,-0.891,-0.9465,0.0,0.0,0.0,0.0,0.0,0.0,-1.1845,-1.2387,-1.3081,-1.3798,-1.408,-1.425,-1.4311,-1.5564,-1.5933,-1.5534,-1.8586,-1.9802,-1.9489,-2.1006,-2.1456,-2.1109,-2.1109,-2.1109,-2.1029,-2.0013,-1.9292,-1.8744,-1.7929,-1.7382,-1.7074,-1.7301,-1.7382,-1.7475,0.0,0.0,0.0,0.0,0.0,0.0,0.0,0.0,0.0,0.0,0.0,-2.5742,-2.7456,-2.7335,-2.7837,-2.9438,-2.91,-2.8231,-2.6891,-2.4883,-2.3305,-2.2408,-2.0416,-1.899,-1.8311,-1.5374,-1.3666,-1.3345,-1.2711,-1.1509,-0.9739,-0.9444,-0.8325,-0.6585,-0.5092,-0.6346,-0.9557,-0.9612,-0.9574,-0.9502,-1.0184,0.0,0.0,0.0,0.0,0.0,0.0,0.0,0.0,0.0,0.0,0.0,0.0,0.0,0.0,0.0,0.0,0.0,0.0,0.0,0.0,0.0,0.0,0.0,0.0,0.0,0.0,0.0,0.0,0.0,0.0,0.0,0.0,0.0,0.0,0.0,0.0,0.0,0.0,-1.0778,-1.1664,0.0,0.0,0.0,0.0,-1.2833,-1.2959,-1.3243,-1.3552,-1.382,-1.4367,-1.5441,-1.6353,-1.604,-1.4505,-1.6966,-1.7416,-1.5889,-1.9082,-2.0259,-1.982,-2.1292,-2.1657,-2.1109,-2.1109,-2.1109,-2.1056,-2.0441,-2.0013,-1.9666,-1.9065,-1.8435,-1.7929,-1.7942,-1.7942,-1.7955,0.0,0.0,0.0,0.0,0.0,0.0,0.0,0.0,0.0,-2.5466,-2.5635,-2.5886,-2.6086,-2.6535,-2.6825,-2.6919,-2.6496,-2.5584,-2.4139,-2.2938,-2.1561,-1.9827,-1.9662,-1.8568,-1.6358,-1.4142,-1.2446,-1.1265,-1.0982,-1.0288,-0.9117,-0.8412,-0.7653,-0.6851,-0.4863,-0.4633,-0.568,-0.5829,-0.6895,-0.84,-0.8553,-0.9375,0.0,0.0,0.0,0.0,0.0,0.0,0.0,0.0,0.0,0.0,0.0,0.0,0.0,0.0,0.0,0.0,0.0,0.0,0.0,0.0,0.0,0.0,0.0,0.0,0.0,0.0,0.0,0.0,0.0,0.0,0.0,0.0,0.0,0.0,0.0,0.0,0.0,-1.3049,-1.3637,0.0,-1.4529,-1.483,-1.4868,-1.4612,-1.4875,-1.5184,-1.5388,-1.5883,-1.6343,-1.6768,-1.7067,-1.6937,-1.63,-1.6225,-1.591,-1.5343,-1.6957,-1.7935,-1.8351,-1.9899,-2.0746,-2.1109,-2.1109,-2.1109,-2.1096,-2.0882,-2.0628,-2.0321,-1.992,-1.9581,-1.9354,-1.9038,-1.8891,-1.8865,0.0,0.0,0.0,0.0,0.0,0.0,0.0,0.0,0.0,-2.5029,-2.5279,-2.5428,-2.5318,-2.5701,-2.5788,-2.5357,-2.4671,-2.3596,-2.201,-2.131,-2.0085,-1.8127,-1.8189,-1.7159,-1.478,-1.317,-1.1623,-1.0047,-1.0021,-0.944,-0.8394,-0.7629,-0.7049,-0.6586,-0.4633,-0.392,-0.4227,-0.3935,-0.4794,-0.6396,-0.6828,-0.7931,-0.9292,0.0,0.0,0.0,0.0,0.0,0.0,0.0,0.0,0.0,0.0,0.0,0.0,0.0,0.0,0.0,0.0,0.0,0.0,0.0,0.0,0.0,0.0,0.0,0.0,0.0,0.0,0.0,0.0,0.0,0.0,0.0,0.0,0.0,0.0,-1.357,-1.4692,-1.5229,-1.6046,-1.6507,-1.654,-1.6927,-1.6957,-1.6599,-1.6861,-1.7077,-1.6985,-1.7486,-1.7847,-1.7845,-1.7845,-1.7521,-1.6956,-1.5886,-1.5177,-1.4671,-1.5591,-1.6273,-1.6871,-1.834,-1.9524,-2.0399,-2.0399,-2.0652,-2.1109,-2.1109,-2.1002,-2.0788,-2.0494,-2.0321,-2.0174,-1.9693,-1.9386,-1.9172,0.0,0.0,0.0,0.0,0.0,0.0,0.0,-2.4428,-2.432,-2.3983,-2.4055,-2.4453,-2.5271,-2.4916,-2.4678,-2.4935,-2.3782,-2.2304,-2.0671,-1.9928,-1.8972,-1.7557,-1.6039,-1.4767,-1.3823,-1.2476,-1.1211,-0.9953,-0.9903,-0.8999,-0.7328,-0.7066,-0.6479,-0.5515,-0.4092,-0.4169,-0.5382,-0.4114,-0.3463,-0.3465,-0.5165,-0.6417,-0.7223,0.0,0.0,0.0,0.0,0.0,0.0,0.0,0.0,0.0,0.0,0.0,0.0,0.0,0.0,0.0,0.0,0.0,0.0,0.0,0.0,0.0,0.0,0.0,0.0,0.0,0.0,0.0,0.0,0.0,0.0,0.0,0.0,0.0,-1.5666,-1.6102,-1.6795,-1.7374,-1.883,-1.9464,-1.8527,-1.9542,-1.9838,-1.8825,-1.8942,-1.8871,-1.8509,-1.8597,-1.8713,-1.8842,-1.8799,-1.7969,-1.6268,-1.6178,-1.539,-1.3959,-1.5235,-1.5647,-1.544,-1.6768,-1.7913,-1.8908,-1.8972,-1.975,-2.1046,-2.1109,-2.1109,-2.1082,-2.0802,-2.0508,-2.0153,-1.9907,-1.9426,-1.8878,0.0,0.0,0.0,0.0,0.0,0.0,0.0,-2.3791,-2.3215,-2.2307,-2.2678,-2.2901,-2.2573,-2.2202,-2.1926,-2.1714,-1.9895,-1.8405,-1.7556,-1.7343,-1.7284,-1.7345,-1.5122,-1.3878,-1.3874,-1.1279,-0.9502,-0.8563,-0.7577,-0.6642,-0.575,-0.5903,-0.5803,-0.5396,-0.4335,-0.3965,-0.4114,-0.3805,-0.3602,-0.3642,-0.497,-0.6231,-0.7293,0.0,0.0,0.0,0.0,0.0,0.0,0.0,0.0,0.0,0.0,0.0,0.0,0.0,0.0,0.0,0.0,0.0,0.0,0.0,0.0,0.0,0.0,0.0,0.0,0.0,0.0,0.0,0.0,0.0,0.0,0.0,-1.9586,-2.0467,-1.9513,-2.0025,-2.1204,-2.3109,-2.22,-2.1616,-2.2327,-2.1541,-2.0798,-2.0316,-2.021,-2.0093,-1.9966,-1.986,-1.9713,-1.9564,-1.8696,-1.7908,-1.7265,-1.5891,-1.5253,-1.5244,-1.4492,-1.4769,-1.5968,-1.5833,-1.6409,-1.7625,-1.8588,-1.9228,-1.9686,-2.0652,-2.1109,-2.1096,-2.1029,-2.0815,-2.0494,-1.9987,-1.9426,-1.8878,0.0,0.0,0.0,0.0,0.0,0.0,0.0,-2.2493,-2.1851,-2.0289,-2.1203,-2.1531,-2.0238,-2.0238,-2.0018,-1.922,-1.7254,-1.5789,-1.5256,-1.5305,-1.5651,-1.6404,-1.434,-1.3182,-1.321,-1.0416,-0.8542,-0.7677,-0.6586,-0.584,-0.5324,-0.5527,-0.5688,-0.5768,-0.5056,-0.4613,-0.4533,-0.4379,-0.4339,-0.4465,-0.5149,-0.6033,-0.6948,-0.6958,-0.7551,-0.8377,-0.8211,-0.8153,-0.8208,-0.7992,0.0,0.0,0.0,0.0,0.0,0.0,0.0,0.0,0.0,0.0,0.0,0.0,0.0,0.0,0.0,0.0,0.0,0.0,0.0,0.0,0.0,0.0,0.0,0.0,-2.2512,-2.3971,-2.4963,-2.4212,-2.4182,-2.5669,-2.4792,-2.4018,-2.3962,-2.3024,-2.2067,-2.1162,-2.0942,-2.077,-2.0576,-2.0436,-2.0156,-1.9714,-1.8591,-1.7709,-1.7201,-1.5582,-1.4823,-1.4884,-1.3788,-1.3874,-1.4891,-1.44,-1.4885,-1.6138,-1.6904,-1.7935,-1.9036,-1.9877,-2.0524,-2.0909,0.0,0.0,0.0,0.0,-1.9292,-1.9038,0.0,0.0,0.0,0.0,0.0,0.0,0.0,-2.1104,-2.0516,-1.8305,-1.9658,-2.0076,-1.821,-1.8551,-1.8448,-1.7261,-1.5438,-1.4099,-1.3596,-1.3843,-1.4308,-1.5017,-1.3713,-1.2753,-1.2134,-0.9712,-0.7965,-0.7086,-0.6388,-0.594,-0.5589,-0.5638,-0.5903,-0.627,-0.595,-0.5795,-0.5759,-0.5402,-0.5349,-0.5492,-0.5492,-0.5842,-0.6346,-0.6433,-0.6743,-0.7127,-0.6915,-0.679,-0.6714,-0.6687,0.0,0.0,0.0,0.0,0.0,0.0,0.0,0.0,0.0,0.0,0.0,0.0,0.0,0.0,0.0,0.0,0.0,0.0,0.0,0.0,0.0,0.0,0.0,0.0,-2.5696,-2.7672,-3.0587,-2.8368,-2.6541,-2.6721,-2.6762,-2.6108,-2.4484,-2.4116,-2.3234,-2.1546,-2.1308,-2.1093,-2.0662,-2.0587,0.0,0.0,0.0,-1.7438,-1.6412,-1.5229,-1.4309,-1.3673,-1.3238,-1.3135,-1.3193,-1.2905,-1.349,-1.4651,-1.4847,-1.6398,-1.878,-1.8908,-1.9638,-2.0601,-2.0294,-2.0127,-2.008,-1.9279,-1.9118,-1.9199,0.0,0.0,0.0,0.0,0.0,0.0,0.0,-2.1329,-2.0475,-1.7865,-1.8044,-1.779,-1.63,-1.6081,-1.5902,-1.556,-1.387,-1.2741,-1.2568,-1.3465,-1.4015,-1.4077,-1.339,-1.241,-1.1102,-0.8691,-0.7065,-0.6242,-0.566,-0.5458,-0.5633,-0.6056,-0.628,-0.6274,-0.6195,-0.6028,-0.5764,-0.5472,-0.5373,-0.5406,-0.5406,-0.5673,-0.6079,-0.6322,-0.6603,-0.6816,-0.705,-0.7198,-0.7317,-0.7116,-0.721,-0.7508,-0.8081,-0.9168,0.0,0.0,0.0,0.0,0.0,0.0,0.0,0.0,0.0,0.0,0.0,0.0,0.0,0.0,0.0,0.0,0.0,0.0,0.0,-2.7632,-2.933,-3.0902,-3.2347,-3.1589,-3.0869,-3.0928,-2.8232,-2.6381,-2.6242,-2.4673,-2.3118,-2.1908,-2.1491,-2.1243,-2.1147,-2.077,-2.0273,-1.9618,-1.8,-1.6776,-1.6014,-1.4452,-1.383,-1.4233,-1.3319,0.0,-1.373,-1.3112,-1.2964,-1.3293,-1.439,-1.5879,-1.7496,-1.8524,-1.9525,-2.0294,-2.0,-1.988,-1.984,-1.9426,-1.9172,-1.8945,0.0,0.0,0.0,0.0,0.0,0.0,0.0,-2.113,-2.0249,-1.778,-1.7954,-1.7665,-1.6046,-1.5858,-1.5583,-1.4769,-1.297,-1.2103,-1.2637,-1.2836,-1.3,-1.3254,-1.2471,-1.1485,-1.0373,-0.8063,-0.6695,-0.635,-0.5717,-0.5597,-0.6004,-0.6268,-0.655,-0.671,-0.6383,-0.6167,-0.5991,-0.5499,-0.5341,-0.5382,-0.5382,-0.5799,-0.6355,-0.6232,-0.645,-0.6817,-0.7153,-0.7311,-0.7426,-0.7426,-0.7388,-0.738,-0.7826,-0.865,-0.9622,0.0,0.0,0.0,0.0,0.0,0.0,0.0,0.0,0.0,0.0,0.0,0.0,0.0,0.0,-2.1959,-2.4751,0.0,-2.8546,-3.0421,-3.1551,-3.2555,-3.3759,-3.3267,-3.2561,-3.1981,-2.9832,-2.7781,-2.6313,-2.5193,-2.3738,-2.1785,-2.1405,-2.1222,-2.1093,-2.0759,-2.011,-1.9216,-1.7696,-1.6499,-1.5697,-1.4148,-1.3711,-1.4378,-1.3661,-1.3555,-1.3875,-1.3555,-1.3161,-1.284,-1.3547,-1.4651,-1.6128,-1.8001,-1.9362,-2.014,-1.9907,-1.9706,-1.9559,-1.9426,-1.9279,-1.9078,0.0,0.0,0.0,0.0,0.0,0.0,0.0,0.0,-2.0177,-1.8073,-1.8323,-1.7963,-1.611,-1.6168,-1.5739,-1.432,-1.2591,-1.1957,-1.2831,-1.2355,-1.2158,-1.242,-1.1493,-1.0583,-0.9676,-0.7651,-0.6526,-0.6457,-0.5941,-0.5904,-0.6426,-0.65,-0.6732,-0.7038,-0.6179,-0.5804,-0.5819,-0.519,-0.4981,-0.5098,-0.5489,-0.6047,-0.6669,-0.6473,-0.6791,-0.7442,-0.7635,-0.7812,-0.7891,-0.7874,-0.7765,-0.7584,-0.7539,-0.8217,-0.9107,-0.965,-1.1093,0.0,0.0,0.0,0.0,0.0,0.0,0.0,0.0,-1.5883,-1.7594,-2.022,-2.2577,-2.5032,-2.7989,-2.9752,-3.1221,-3.274,-3.329,-3.3888,-3.4896,-3.4278,-3.3383,-3.2227,-3.098,-2.897,-2.5963,-2.5337,-2.4082,-2.1513,-2.1308,-2.119,-2.0985,-2.0716,-2.0015,-1.8682,-1.7514,-1.636,-1.5302,-1.4027,-1.3711,-1.4378,-1.3927,-1.3744,-1.3875,-1.3744,-1.3358,-1.284,-1.3095,-1.4006,-1.5479,-1.773,-1.9324,-2.0294,-2.0,-1.9706,-1.9439,-1.9319,-1.9252,-1.9118,0.0,0.0,0.0,0.0,0.0,0.0,0.0,0.0,0.0,-1.9015,-1.8304,-1.725,-1.5486,-1.5338,-1.4951,-1.384,-1.3142,-1.2547,-1.2132,-1.2517,-1.2359,-1.1489,-1.115,-1.0297,-0.8877,-0.7315,-0.6202,-0.5635,-0.5842,-0.6103,-0.6426,-0.6749,-0.6871,-0.6715,-0.5301,-0.4522,-0.4254,-0.391,-0.3798,-0.3971,-0.5819,-0.6604,-0.6771,-0.7499,-0.8331,-0.912,-0.9265,-0.9688,-0.9989,-0.8919,-0.867,-0.8603,-0.7771,-0.8401,-0.9339,-0.8959,-1.0398,-1.2051,-1.1506,-1.2455,-1.3836,-1.4724,-1.4831,-1.536,0.0,-1.8755,-2.016,-2.3469,-2.573,-2.794,-3.0754,-3.21,-3.3298,-3.4491,-3.5038,-3.5395,-3.5884,-3.519,-3.4358,-3.3572,-3.1072,-2.8476,-2.6126,-2.4385,-2.2901,-2.1648,-2.1394,-2.1265,-2.1243,-2.0813,-1.9922,-1.8478,-1.7445,-1.6203,-1.4802,-1.3869,-1.3711,-1.4378,-1.3403,-1.3293,-1.3875,-1.3227,-1.2906,-1.2898,-1.4128,-1.5489,-1.6915,-1.8361,-1.96,-2.0601,-2.0294,-2.0,-1.9693,-1.9158,-1.8811,-1.8544,0.0,0.0,0.0,0.0,0.0,0.0,0.0,0.0,0.0,0.0,-1.9093,-1.8411,-1.7459,-1.6919,-1.6334,-1.5471,-1.4166,-1.3007,-1.2156,-1.184,-1.11,-0.973,-0.9498,-0.8913,-0.7894,-0.6976,-0.6463,-0.6322,-0.6693,-0.6929,-0.6958,-0.6408,-0.5996,-0.5592,-0.4136,-0.2903,-0.2007,-0.2403,-0.2571,-0.2734,-0.4801,-0.68,-0.8514,-0.8748,-1.0054,-1.1539,-0.9784,-0.9479,0.0,0.0,-0.9042,-0.8484,-0.8344,-0.8253,-0.8243,-0.8536,-0.9512,-1.0865,-1.2256,-1.3474,-1.4546,-1.5601,-1.6108,-1.6732,-1.8239,-2.0306,-2.2527,-2.473,-2.7892,-3.0728,-3.2314,-3.348,-3.4457,-3.5145,-3.5412,-3.5635,-3.6046,-3.5774,-3.5,-3.3558,-3.0809,-2.82,-2.6333,-2.4338,-2.274,-2.1497,-2.133,-2.1276,-2.1276,-2.0823,-2.0011,-1.8592,-1.7891,-1.6936,-1.5558,-1.457,-1.4591,-1.5672,-1.4533,-1.4211,-1.4473,-1.4146,-1.3555,-1.2832,-1.3416,-1.4912,-1.7044,-1.7625,-1.8858,-2.0401,-2.0281,-1.9947,-1.9519,-1.9279,-1.9105,-1.8931,0.0,0.0,0.0,0.0,0.0,0.0,0.0,0.0,0.0,0.0,0.0,-1.9406,-1.8883,-1.8305,-1.7624,-1.6751,-1.5087,-1.3553,-1.2349,-1.1552,-1.0379,-0.8675,-0.8418,-0.7964,-0.7301,-0.6765,-0.663,-0.6898,-0.7265,-0.741,-0.7359,-0.6132,-0.5304,-0.4697,-0.2624,-0.1004,0.0111,-0.0559,-0.1005,-0.1558,-0.4561,-0.7387,-0.9866,-1.0389,-1.1751,-1.3067,-1.0471,-0.9876,0.0,0.0,-0.9448,-0.8567,-0.8614,-0.7968,-0.7343,-0.7936,-0.8514,-0.9567,-1.2033,-1.3544,-1.4677,-1.567,-1.6785,-1.7866,-1.878,-2.1613,-2.4521,-2.6081,-2.9549,-3.2558,-3.3359,-3.4237,-3.4933,-3.5292,-3.5446,-3.5635,-3.6046,-3.5994,-3.5185,-3.324,-3.028,-2.7772,-2.6003,-2.3842,-2.2235,-2.1357,-2.1211,-2.1211,-2.1276,-2.0888,-2.0125,-1.881,-1.8364,-1.7481,-1.6264,-1.5353,-1.5465,-1.6563,-1.5518,-1.4988,-1.4866,-1.4473,-1.3752,-1.2832,-1.3227,-1.4679,-1.6883,-1.7268,-1.8536,-2.0167,-2.0147,-1.9853,-1.9479,-1.9457,-1.9265,-1.9052,0.0,0.0,0.0,0.0,0.0,0.0,0.0,0.0,0.0,0.0,0.0,0.0,0.0,-1.8664,-1.8189,-1.6996,-1.5703,-1.4249,-1.2586,-1.2162,-1.1016,-0.8965,-0.8641,-0.813,-0.7301,-0.6765,-0.663,-0.6898,-0.709,-0.7281,-0.7359,-0.6047,-0.5087,-0.4359,-0.078,0.1116,0.1731,0.1676,0.1005,-0.0501,-0.5813,-0.8694,-1.0069,-1.2597,-1.3358,-1.2965,-1.1771,0.0,0.0,-1.0912,-0.9962,-0.9202,-0.8323,-0.7671,-0.7161,-0.693,-0.741,-0.8355,-0.9814,-1.176,-1.3586,-1.4709,-1.6516,-1.8519,-2.0051,-2.2967,-2.5814,-2.7897,-3.0608,-3.2933,-3.4163,-3.4402,-3.4539,-3.4933,-3.5275,-3.5635,-3.6046,-3.5772,-3.4806,-3.2745,-2.9774,-2.6997,-2.4984,-2.2472,-2.1097,-2.1265,-2.105,-2.1017,-2.1265,-2.1028,-2.029,-1.9054,-1.8607,-1.7782,-1.6399,-1.6056,-1.6098,-1.6563,-1.573,-1.512,-1.4866,-1.349,-1.284,-1.2906,-1.4259,-1.55,-1.6635,-1.796,-1.9187,-2.014,-1.992,-1.98,-1.976,-1.9466,-1.9011,-1.8477,0.0,0.0,0.0,0.0,0.0,0.0,0.0,0.0,0.0,0.0,0.0,0.0,0.0,0.0,0.0,0.0,-1.6839,-1.4985,-1.27,-1.2101,-1.07,-0.8267,-0.8669,-0.8717,-0.8246,-0.8488,-0.8799,-0.9082,-0.9412,-0.918,-0.8433,-0.6997,-0.5241,-0.3185,-0.0167,0.273,0.5285,0.4516,0.3415,0.1797,-0.3278,-0.7528,-1.09,-1.2471,-1.2968,-1.2587,0.0,0.0,-1.1815,-1.0859,-0.9894,-0.906,-0.9057,-0.7947,-0.6665,-0.6584,-0.744,-0.856,-0.9405,-1.0942,-1.2923,-1.522,-1.6525,-1.7907,-2.0178,-2.3505,-2.6363,-2.7154,-2.9535,-3.1561,-3.1711,-3.1765,-3.2056,-3.2946,-3.3837,-3.471,-3.5583,-3.5823,-3.4912,-3.2362,-2.9933,-2.7341,-2.4598,-2.2139,-2.0716,-2.0802,-2.0867,-2.0942,-2.1028,-2.0953,-2.0537,-1.9836,-1.9371,-1.8749,-1.7991,-1.7117,-1.6854,-1.7307,-1.5793,-1.4997,-1.4866,-1.3424,-1.2774,-1.2832,-1.3293,-1.466,-1.6561,-1.7003,-1.8261,-1.9933,-1.984,-1.9679,-1.9506,-1.9399,-1.9118,-1.8731,0.0,0.0,0.0,0.0,0.0,0.0,0.0,0.0,0.0,0.0,0.0,0.0,0.0,0.0,0.0,0.0,0.0,-1.5926,-1.3331,-1.2795,-1.1403,-0.8815,-0.9533,-0.9798,-0.9296,-0.9965,-1.0428,-1.0713,-1.0961,-1.075,-0.9939,-0.8131,-0.628,-0.4375,-0.1421,0.1752,0.4731,0.3338,0.1958,0.0324,-0.4886,-0.9381,-1.2974,-1.3857,-1.3612,0.0,0.0,0.0,-1.0425,-1.0381,-0.9472,-0.8504,-0.9148,-0.7985,-0.6414,-0.6594,-0.7299,-0.8244,-0.8816,-1.0225,-1.2165,-1.4754,-1.6246,-1.7782,-2.0199,-2.3718,-2.6517,-2.6587,-2.8585,-3.0292,-2.9915,-2.9727,-2.995,-3.096,-3.197,-3.3152,-3.4693,-3.5001,-3.4199,-3.1683,-2.9697,-2.7159,-2.3918,-2.1749,-2.0565,-2.0565,-2.0619,-2.0727,-2.0899,-2.0899,-2.0694,-2.0231,-1.9833,-1.9348,-1.8789,-1.797,-1.7554,-1.7712,-1.6054,-1.5127,-1.4866,-1.3687,-1.303,-1.2832,-1.3358,-1.4622,-1.637,-1.6871,-1.813,-1.9639,-1.9639,-1.9533,-1.943,-1.943,-1.9185,-1.8878,0.0,0.0,0.0,0.0,0.0,0.0,0.0,0.0,0.0,0.0,0.0,0.0,0.0,0.0,0.0,0.0,0.0,0.0,-1.4484,-1.4143,-1.2948,-1.0507,-1.1164,-1.1193,-1.0406,-1.1114,-1.1543,-1.1687,-1.1758,-1.1824,-1.1785,-0.9369,-0.8075,-0.7678,-0.4334,-0.1635,0.0268,-0.1577,-0.3068,-0.4662,-1.0192,-1.3743,-1.5829,-1.6395,0.0,0.0,0.0,0.0,-0.8105,-0.9305,-0.8775,-0.7732,-0.8589,-0.78,-0.6562,-0.6969,-0.7166,-0.7418,-0.8062,-0.9531,-1.1404,-1.349,-1.5732,-1.8059,-2.0275,-2.3572,-2.6214,-2.6312,-2.7809,-2.9042,-2.8648,-2.8323,-2.8357,-2.9162,-2.9984,-3.1302,-3.358,-3.3597,-3.267,-3.0779,-2.9143,-2.6733,-2.3062,-2.149,-2.0576,-2.0544,-2.0339,-2.0414,-2.0856,-2.0888,-2.0684,-2.0231,-1.9962,-1.9488,-1.8789,-1.853,-1.8164,-1.7712,-1.6515,-1.5583,-1.4866,-1.4202,-1.349,-1.2898,-1.4193,-1.5243,-1.6083,-1.7453,-1.8491,-1.9301,-1.9301,-1.9372,-1.943,-1.943,-1.9185,-1.8905,0.0,0.0,0.0,0.0,0.0,0.0,0.0,0.0,0.0,0.0,0.0,0.0,0.0,0.0,0.0,0.0,0.0,0.0,-1.6074,-1.4336,-1.2844,-1.1739,-1.2283,-1.238,-1.188,-1.2475,-1.2925,-1.3088,-1.2946,-1.2871,-1.2742,-1.1111,-0.9956,-0.9161,-0.7148,-0.5479,-0.4204,-0.5218,-0.6105,-0.7171,0.0,-1.3072,-1.3943,0.0,0.0,0.0,0.0,-0.5507,-0.4526,-0.6489,-0.7826,-0.8633,-0.8388,-0.8192,-0.8007,-0.7922,-0.8145,-0.8409,-0.8464,-0.9881,-1.1706,-1.3666,-1.5651,-1.7981,-2.0924,-2.347,-2.5259,-2.55,-2.6463,-2.6919,-2.5994,-2.6422,-2.7364,-2.87,-3.048,-3.2398,-3.4402,-3.483,-3.4266,-3.2519,-3.0263,-2.7662,-2.4903,-2.2327,-2.0673,-2.0328,-2.0253,-2.0339,-2.063,-2.0651,-2.0511,-2.0221,-1.9801,-1.9327,-1.8789,-1.8196,-1.7841,-1.7712,-1.6515,-1.5583,-1.4866,-1.4202,-1.349,-1.2832,-1.3161,-1.384,-1.4716,-1.509,-1.6293,-1.7994,-1.7994,-1.859,-1.943,-1.943,-1.9377,-1.9212,0.0,0.0,0.0,0.0,0.0,0.0,0.0,0.0,0.0,0.0,0.0,0.0,0.0,0.0,0.0,0.0,0.0,0.0,0.0,-1.4813,-1.3551,-1.3049,-1.3373,-1.34,-1.3028,-1.3596,-1.411,-1.4461,0.0,0.0,-1.5021,-1.3592,-1.2873,-1.2674,-1.1392,-1.0215,-0.9219,-1.09,0.0,0.0,0.0,0.0,0.0,0.0,0.0,0.0,0.0,-0.4195,-0.3524,-0.5035,-0.6422,-0.7457,-0.7438,-0.761,-0.7881,-0.8418,-0.8765,-0.8978,-0.8815,-1.0119,-1.1931,-1.3826,-1.5875,-1.8059,-2.063,-2.2687,-2.4065,-2.4286,-2.4828,-2.5069,-2.4436,-2.4967,-2.5943,-2.7313,-2.9145,-3.1234,-3.3631,-3.4282,-3.4032,-3.2788,-3.0548,-2.8085,-2.535,-2.2717,-2.0985,-2.0414,-2.0177,-2.0199,-2.0544,-2.0361,-2.0242,-2.021,-1.965,-1.9068,-1.8487,-1.797,-1.7669,-1.7561,-1.6792,-1.5909,-1.4866,-1.4539,-1.3752,-1.2774,-1.2774,-1.3655,-1.5027,-1.5027,-1.6354,-1.8344,-1.8344,-1.8765,-1.943,-1.943,-1.9292,-1.9132,0.0,0.0,0.0,0.0,0.0,0.0,0.0,0.0,0.0,0.0,0.0,0.0,0.0,0.0,0.0,0.0,0.0,0.0,0.0,0.0,0.0,-1.4202,-1.4302,-1.4181,-1.3831,-1.4294,-1.4885,-1.5516,-1.5736,0.0,0.0,0.0,0.0,0.0,0.0,0.0,0.0,0.0,0.0,0.0,0.0,0.0,0.0,0.0,0.0,0.0,-0.4564,-0.3652,-0.3916,-0.4535,-0.5284,-0.6018,-0.6677,-0.7005,-0.7547,-0.8832,-0.9299,-0.9317,-0.9274,-1.0572,-1.2366,-1.4077,-1.6254,-1.8412,-2.0157,-2.181,-2.2926,-2.2995,-2.3305,-2.3528,-2.346,-2.3836,-2.459,-2.5874,-2.7364,-2.9419,-3.2484,-3.3203,-3.3142,-3.2391,-3.0534,-2.8205,-2.5145,-2.2837,-2.1254,-2.0608,-2.02,-2.0103,-2.0524,-2.0146,-1.9908,-2.0016,-1.9391,-1.8745,-1.8099,-1.7841,-1.7604,-1.7378,-1.712,-1.6289,-1.5062,-1.4931,-1.4211,-1.2964,-1.284,-1.3978,-1.5835,-1.5835,-1.7153,-1.9127,-1.9127,-1.9243,-1.943,-1.943,-1.9199,-1.8945,0.0,0.0,0.0,0.0,0.0,0.0,0.0,0.0,0.0,0.0,-2.2116,-2.2093,0.0,0.0,0.0,0.0,0.0,0.0,0.0,0.0,0.0,0.0,-1.4585,-1.435,-1.3831,-1.3875,-1.4338,-1.5102,-1.472,-1.5433,0.0,0.0,0.0,0.0,0.0,0.0,0.0,0.0,0.0,0.0,0.0,0.0,0.0,0.0,0.0,0.0,-0.4344,-0.3655,-0.4068,-0.4749,-0.6627,-0.8606,-0.8236,-0.9067,-1.0178,-1.0442,-1.0197,-0.9914,-1.0197,-1.2066,-1.4077,-1.4716,-1.7167,-1.9705,-2.1092,-2.1695,-2.2231,-2.2943,-2.2945,-2.2705,-2.2347,-2.3117,-2.447,-2.6542,-2.8134,-3.0275,-3.3614,-3.4145,-3.3943,-3.3286,-3.0742,-2.8208,-2.6013,-2.2913,-2.0899,-2.0587,-2.02,-1.9962,-2.0038,-1.9973,-1.9671,-1.9047,-1.8724,-1.8412,-1.8099,-1.7841,-1.7604,-1.7378,-1.712,-1.6548,-1.5779,-1.5192,-1.4473,-1.3678,-1.303,-1.3462,-1.4529,-1.4529,-1.5807,-1.7806,-1.7806,-1.846,-1.943,-1.943,-1.9332,-1.9279,0.0,0.0,0.0,0.0,0.0,0.0,0.0,-2.3445,-2.331,-2.2143,-2.2462,-2.1981,-1.9757,-2.0279,-2.0386,0.0,0.0,0.0,0.0,0.0,0.0,0.0,0.0,0.0,-1.349,-1.3626,-1.398,-1.4538,0.0,-1.5815,-1.735,-1.7324,-1.8209,-1.9873,-2.0338,-2.1261,-2.2573,0.0,0.0,0.0,-2.0056,-1.7313,0.0,0.0,0.0,0.0,0.0,-0.4252,-0.4996,-0.5146,-0.7091,-0.9286,-0.8635,-0.9607,-1.1165,-1.2475,-1.2766,-1.2882,-1.3504,-1.4753,-1.599,-1.6343,-1.7994,-1.9766,-2.0813,-2.0886,-2.0985,-2.2012,-2.1936,-2.1847,-2.2259,-2.2895,-2.3793,-2.5044,-2.685,-2.9068,-3.1576,-3.2026,-3.2187,-3.2417,-2.961,-2.6961,-2.525,-2.2728,-2.0899,-2.0414,-2.0285,-2.0167,-2.0048,-1.9801,-1.9338,-1.8627,-1.8379,-1.8142,-1.7906,-1.7658,-1.7421,-1.7184,-1.7066,-1.6613,-1.5974,-1.5257,-1.4539,-1.3875,-1.3095,-1.372,-1.5214,-1.5214,-1.6475,-1.8473,-1.8473,-1.8881,-1.943,-1.943,-1.943,-1.9403,0.0,0.0,0.0,0.0,0.0,0.0,0.0,-2.3463,-2.3707,-2.3077,-2.2955,-2.2083,-1.9821,-1.9961,-1.9736,0.0,0.0,0.0,0.0,0.0,0.0,0.0,0.0,0.0,0.0,0.0,0.0,-1.4138,-1.5118,0.0,0.0,0.0,0.0,0.0,-2.1947,-2.2701,-2.3294,-2.3929,0.0,0.0,0.0,-1.6834,0.0,0.0,0.0,0.0,0.0,-0.5444,-0.6313,-0.6197,-0.7768,-0.9745,-0.9477,-1.0368,-1.1969,-1.3996,-1.4977,-1.5618,-1.6225,-1.6917,-1.7469,-1.783,-1.8674,-1.963,-2.0368,-2.0103,-2.0042,-2.1177,-2.1131,-2.1199,-2.2294,-2.2672,-2.2938,-2.3279,-2.5001,-2.6965,-2.8755,-2.9252,-2.9715,-3.0459,-2.8112,-2.5697,-2.4097,-2.2281,-2.087,-2.0177,-2.021,-2.0199,-2.007,-1.9553,-1.8993,-1.8379,-1.8132,-1.7895,-1.7647,-1.7464,-1.7249,-1.7001,-1.7001,-1.6742,-1.6169,-1.5453,-1.4735,-1.4071,-1.3678,-1.4483,-1.6145,-1.6455,-1.7696,-1.943,-1.943,-1.943,-1.943,-1.943,-1.943,-1.9332,0.0,0.0,0.0,0.0,0.0,0.0,0.0,-2.4606,-2.4969,-2.3209,-2.3253,-2.2759,-2.1016,-2.0617,-1.9816,0.0,0.0,0.0,0.0,0.0,0.0,0.0,0.0,0.0,0.0,0.0,0.0,-1.4292,-1.4918,0.0,0.0,0.0,0.0,0.0,0.0,-2.2638,-2.2839,-2.3773,0.0,0.0,0.0,0.0,0.0,0.0,0.0,0.0,0.0,-0.7426,-0.7905,-0.8425,-0.964,-1.1091,-1.193,-1.2922,-1.3771,-1.4144,-1.5248,-1.6225,-1.5912,-1.6738,-1.783,-1.8261,-1.9096,-1.9968,-2.0427,-2.0103,-2.0042,-2.1177,-2.1131,-2.1114,-2.1901,-2.2073,-2.2232,-2.2612,-2.3351,-2.4556,-2.6534,-2.7176,-2.7449,-2.7305,-2.668,-2.5367,-2.3028,-2.1648,-2.066,-1.9984,-1.951,-1.9359,-1.9553,-1.8907,-1.8412,-1.8132,-1.7884,-1.7647,-1.741,-1.7389,-1.7249,-1.7001,-1.7001,-1.6936,-1.6872,-1.6234,-1.5518,-1.4866,-1.5368,-1.5819,-1.6207,-1.7453,-1.8551,-1.943,-1.943,-1.943,-1.943,-1.943,-1.943,-1.9417,0.0,0.0,0.0,0.0,0.0,0.0,-2.3748,-2.4671,-2.5145,-2.4756,-2.4655,-2.4145,-2.2942,-2.2063,-2.0562,-1.8082,0.0,0.0,0.0,0.0,0.0,0.0,0.0,0.0,0.0,0.0,-1.3494,-1.366,-1.4874,0.0,0.0,0.0,0.0,0.0,0.0,-2.3361,-2.3637,-2.3806,0.0,0.0,0.0,0.0,0.0,0.0,0.0,0.0,0.0,0.0,-0.8208,-0.9578,-1.0399,-1.1171,-1.3383,-1.5288,-1.6888,-1.7833,-1.8999,-2.0017,-2.0198,-2.0539,-2.0605,-1.9947,-1.9385,-1.9037,-1.9501,-1.9138,-1.8985,-1.999,-2.0584,-2.1114,-2.1867,-2.1445,-2.1158,-2.1724,-2.1511,-2.1964,-2.397,-2.3794,-2.4039,-2.5604,-2.4418,-2.3164,-2.2452,-2.148,-2.0505,-1.9746,-1.9338,-1.9122,-1.9068,-1.867,-1.8326,-1.8099,-1.7712,-1.7464,-1.7378,-1.7227,-1.7098,-1.7001,-1.7001,-1.7001,-1.7001,-1.6299,-1.6159,-1.6473,-1.6123,-1.6634,-1.7676,-1.807,-1.8699,-1.943,-1.943,-1.943,-1.943,-1.943,-1.943,-1.943,0.0,0.0,0.0,0.0,0.0,-2.3119,-2.3977,-2.49,-2.5557,-2.5773,-2.5673,-2.5312,-2.4574,-2.305,-2.1115,-1.8632,-1.7523,0.0,0.0,0.0,0.0,0.0,0.0,0.0,0.0,0.0,-1.3547,-1.3467,-1.5196,-1.6638,0.0,0.0,-2.1928,-2.3254,0.0,0.0,0.0,0.0,0.0,0.0,0.0,0.0,0.0,0.0,0.0,0.0,0.0,0.0,0.0,0.0,0.0,-1.2132,-1.4902,-1.7294,-1.9292,-2.013,-2.1549,-2.2946,-2.3083,-2.293,-2.2413,-2.1326,-1.9736,-1.8533,-1.879,-1.8547,-1.8439,-1.9241,-2.0284,-2.1234,-2.1884,-2.1163,-2.0636,-2.1111,-2.0114,-1.9871,-2.1575,-2.0894,-2.1123,-2.3419,-2.2276,-2.1472,-2.1782,-2.0995,-2.0175,-1.9316,-1.9068,-1.8832,-1.8595,-1.8358,-1.8153,-1.7992,-1.7518,-1.727,-1.727,-1.7087,-1.7001,-1.7001,-1.7001,-1.7001,-1.7001,-1.6807,-1.6958,-1.7396,-1.7465,-1.7882,-1.8544,-1.8854,-1.9089,-1.943,-1.943,-1.943,-1.943,-1.943,-1.943,-1.9417,0.0,0.0,0.0,0.0,0.0,0.0,-2.4008,-2.5556,-2.6477,-2.5857,-2.6102,-2.6092,-2.5616,-2.3248,-2.129,-2.0181,-1.8596,0.0,0.0,0.0,0.0,0.0,0.0,0.0,0.0,0.0,-1.3746,-1.4082,-1.5944,-1.7417,-1.8452,-2.1273,-2.3031,-2.3854,0.0,0.0,0.0,0.0,0.0,0.0,0.0,0.0,0.0,0.0,0.0,0.0,0.0,0.0,0.0,0.0,0.0,0.0,0.0,-1.8945,-2.0463,-1.9823,-2.1814,-2.4048,-2.3058,-2.2588,-2.2204,-2.1991,-2.0297,-1.8705,-1.8641,-1.856,-1.867,-1.9288,-2.0467,-2.1525,-2.1919,-2.1377,-2.0877,-2.0893,-1.9295,-1.8368,-1.9377,-1.9073,-1.9148,-2.0238,-2.0533,-2.0754,-2.0922,-2.0172,-1.9492,-1.8882,-1.8573,-1.8336,-1.811,-1.7863,-1.7723,-1.7723,-1.726,-1.7001,-1.7001,-1.7001,-1.7001,-1.7001,-1.7001,-1.7001,-1.7001,-1.8022,-1.7949,-1.7152,-1.989,-1.997,-1.8344,-1.9973,-2.0177,-1.943,-1.943,-1.943,-1.943,-1.943,-1.943,-1.943,0.0,0.0,0.0,0.0,0.0,0.0,0.0,-2.6176,-2.7027,-2.7687,-2.7768,-2.7379,-2.6263,-2.4987,-2.3054,-2.0147,-1.8773,0.0,0.0,0.0,0.0,0.0,0.0,0.0,0.0,0.0,-1.4208,-1.4389,-1.6251,-1.8054,-1.9722,-2.169,-2.3509,-2.5138,-2.498,-2.4957,0.0,0.0,0.0,0.0,0.0,0.0,0.0,0.0,0.0,0.0,0.0,0.0,0.0,0.0,0.0,0.0,0.0,0.0,0.0,-2.2252,-2.3372,-2.4314,-2.3026,-2.2933,-2.287,-2.1304,-1.9345,-1.7841,-1.7792,-1.7214,-1.6876,-1.7769,-1.8651,-1.9535,-2.0346,-2.0078,-2.008,-2.1159,-1.944,-1.855,-2.0019,-1.9029,-1.8601,-1.9857,-2.0828,-2.1169,-2.0535,-2.0016,-1.9481,-1.8871,-1.8562,-1.8401,-1.8326,-1.7938,-1.7647,-1.7496,-1.7173,-1.7001,-1.7001,-1.7001,-1.7001,-1.7001,-1.7001,-1.7389,-1.8022,-1.8343,-1.8967,-1.9835,-2.0473,-2.0577,-2.0292,-2.0372,-2.0103,-1.9649,-1.9475,-1.943,-1.943,-1.943,-1.943,-1.939,0.0,0.0,0.0,0.0,0.0,0.0,0.0,-2.6791,-2.7522,-2.8547,-2.8546,-2.802,-2.7007,-2.5682,-2.3677,-2.0745,-1.9306,0.0,0.0,0.0,0.0,0.0,0.0,0.0,0.0,-1.4222,-1.4677,-1.5239,-1.7208,-1.9304,-2.1441,-2.3316,-2.5203,-2.6943,-2.6009,-2.5838,0.0,0.0,0.0,0.0,0.0,0.0,-1.5312,0.0,0.0,0.0,0.0,0.0,0.0,0.0,0.0,0.0,0.0,0.0,0.0,0.0,-2.4222,-2.4421,-2.3432,-2.3328,-2.3077,-2.1369,-1.9191,-1.7371,-1.7265,-1.6517,-1.5981,-1.6593,-1.7568,-1.8508,-1.9112,-1.8905,-1.904,-2.0398,-1.8688,-1.7818,-1.9668,-1.8655,-1.8191,-1.9434,-2.0517,-2.0803,-1.9906,-1.9829,-1.9526,-1.8871,-1.8562,-1.8358,-1.8175,-1.7884,-1.7572,-1.7249,-1.7087,-1.7001,-1.7001,-1.7001,-1.7001,-1.7001,-1.7001,-1.7518,-1.8536,-1.8812,-1.9638,-2.091,-2.1097,-2.1121,0.0,-2.0655,-2.0208,-1.9751,-1.9475,-1.9292,-1.9199,-1.9199,-1.9132,-1.9055,0.0,0.0,0.0,0.0,0.0,0.0,0.0,-2.7394,-2.8051,-2.878,-2.8604,-2.8179,-2.7661,-2.5499,-2.336,-2.1589,0.0,0.0,0.0,0.0,0.0,0.0,0.0,0.0,-1.4064,-1.4459,-1.5253,-1.6463,-1.8693,-2.0986,-2.3308,-2.5791,-2.77,-2.8999,-2.7687,-2.7304,0.0,0.0,0.0,0.0,0.0,0.0,0.0,0.0,0.0,0.0,0.0,0.0,0.0,0.0,0.0,0.0,0.0,0.0,0.0,0.0,0.0,0.0,0.0,-2.352,-2.2823,-2.1836,-1.9497,-1.7329,-1.7101,-1.6357,0.0,-1.5832,-1.7016,-1.8079,-1.8192,-1.7849,-1.795,-1.9049,-1.745,-1.6755,-1.8672,-1.821,-1.7998,-1.9012,-1.9845,-2.0042,-1.9232,-1.9609,-1.9611,-1.8877,-1.8519,-1.8196,-1.7744,-1.7701,-1.7486,-1.7044,-1.7012,-1.7001,-1.7001,-1.7001,-1.7001,-1.7001,-1.7001,-1.7582,-1.8652,-1.9274,-2.0002,-2.0758,-2.1721,-2.1597,-2.0744,-2.0753,-2.0419,-1.9809,-1.9506,-1.9229,-1.8918,-1.8905,-1.8718,-1.8561,0.0,0.0,0.0,0.0,0.0,0.0,0.0,0.0,0.0,0.0,-2.9909,-2.8595,-2.6876,-2.555,-2.344,0.0,0.0,0.0,0.0,0.0,0.0,0.0,0.0,0.0,-1.3614,-1.5497,-1.6581,-1.6801,-1.9502,-2.1835,-2.3778,-2.6166,-2.8123,-2.9559,-2.8703,-2.6956,0.0,0.0,0.0,0.0,0.0,0.0,0.0,0.0,0.0,0.0,-1.5934,-1.5981,0.0,0.0,0.0,0.0,0.0,0.0,0.0,0.0,-2.4507,-2.4247,-2.3121,0.0,-2.2258,-2.0938,-1.9124,-1.754,0.0,-1.6029,-1.5193,-1.5959,-1.5952,-1.6163,-1.7133,-1.7484,-1.8071,-1.9444,-1.8617,-1.8408,-2.026,-1.9646,-1.9169,-1.9639,-2.04,-2.0575,-1.9632,-1.9658,-1.9483,-1.9151,-1.8572,-1.8191,-1.807,-1.7951,-1.7664,-1.7292,-1.7109,-1.7001,-1.7001,-1.7001,-1.7001,-1.7001,-1.7001,-1.7969,-1.975,-1.965,-2.0433,-2.1795,-2.1802,-2.1525,-2.1031,-2.0802,-2.0499,-2.0141,-1.9619,-1.9212,-1.8905,-1.8677,-1.8544,-1.8561,0.0,0.0,0.0,0.0,0.0,0.0,0.0,0.0,0.0,0.0,0.0,0.0,0.0,0.0,0.0,0.0,0.0,0.0,0.0,0.0,0.0,0.0,0.0,-1.528,-1.4776,-1.6254,-1.7621,-1.8891,-2.0982,-2.3376,-2.5931,-2.764,-2.924,-3.0524,-2.8909,-2.6637,0.0,0.0,0.0,0.0,-1.9887,0.0,0.0,0.0,0.0,0.0,-1.7731,-1.787,0.0,-2.0774,-2.1817,-2.2303,0.0,0.0,0.0,0.0,-2.4507,-2.4186,-2.2799,-2.2536,-2.2329,-2.0915,-1.9257,-1.8008,-1.822,-1.6429,-1.5011,-1.5967,-1.5607,-1.5338,-1.6163,-1.67,-1.7248,-1.7889,-1.7893,-1.828,-1.9567,-1.9474,-1.9434,-1.9833,-2.0364,-2.0455,-1.9757,-1.9645,-1.9484,-1.9027,-1.8676,-1.8418,-1.8306,-1.8171,-1.7916,-1.7478,-1.7466,-1.7324,-1.7001,-1.7001,-1.726,-1.7711,-1.7711,-1.8669,-2.0569,-2.0217,-2.078,-2.1935,-2.1613,-2.1379,-2.1146,-2.0845,-2.0601,-2.0415,-1.9651,-1.9176,-1.8845,-1.8452,-1.8196,-1.8144,0.0,0.0,0.0,0.0,0.0,0.0,0.0,0.0,0.0,0.0,0.0,0.0,0.0,0.0,0.0,0.0,0.0,0.0,0.0,0.0,0.0,0.0,0.0,-1.5835,-1.6343,-1.7101,-1.875,-2.1299,-2.2789,-2.5166,-2.8361,-2.9266,-3.0215,-3.1093,-2.8557,-2.634,0.0,0.0,-2.1269,-2.0455,-2.0131,0.0,0.0,0.0,0.0,0.0,0.0,0.0,0.0,-2.1284,-2.1924,-2.2189,-2.4016,0.0,0.0,0.0,0.0,0.0,-2.2832,-2.2761,-2.2723,-2.1212,-1.9686,-1.8724,-1.9209,-1.7071,-1.5258,-1.6081,-1.5607,-1.5161,-1.5547,-1.5946,-1.6229,-1.6299,-1.6962,-1.7655,-1.83,-1.8843,-1.9338,-1.9712,-2.0062,-2.0107,-1.9684,-1.9616,-1.9387,-1.8953,-1.8841,-1.8659,-1.8453,-1.8442,-1.8143,-1.7605,-1.7806,-1.7655,-1.7076,-1.7205,-1.7667,-1.8472,-1.8581,-1.9462,-2.1087,-2.0733,-2.0984,-2.1686,-2.135,-2.1203,-2.1203,-2.0902,-2.0687,-2.0559,-1.9751,-1.9222,-1.8755,-1.8144,-1.7742,-1.758,0.0,0.0,0.0,0.0,0.0,0.0,0.0,0.0,0.0,0.0,0.0,0.0,0.0,0.0,0.0,0.0,0.0,0.0,0.0,0.0,0.0,-1.6789,-1.6743,-1.6575,-1.6146,-1.8878,-2.0802,-2.1864,-2.4427,-2.6662,-2.8582,-2.9164,-2.964,-2.9871,-2.7606,-2.6012,-2.497,-2.339,-2.2125,-2.1256,-2.1607,0.0,0.0,0.0,0.0,0.0,0.0,0.0,0.0,-2.2629,-2.3105,-2.2906,-2.4551,0.0,0.0,0.0,0.0,0.0,-2.3038,-2.3185,-2.3026,-2.0917,-2.0181,-1.9789,-1.9051,-1.765,-1.647,-1.6534,-1.5581,-1.5065,-1.5994,-1.6042,-1.6402,-1.7799,-1.8651,-1.9031,-1.8665,-1.9277,-1.9627,-1.9241,-1.9833,-2.0098,-1.9573,-1.9274,-1.9184,-1.94,-1.8936,-1.8612,-1.8565,-1.8565,-1.8348,-1.7905,-1.7764,-1.7598,-1.7535,-1.8104,-1.8399,-1.8536,-1.8839,-1.9704,-2.1074,-2.0515,-2.0774,-2.1686,-2.135,-2.1203,-2.1203,-2.1146,-2.0815,-2.0315,-1.9875,-1.9289,-1.8482,-1.7868,-1.7468,-1.7271,0.0,0.0,0.0,0.0,0.0,0.0,0.0,0.0,0.0,0.0,0.0,0.0,0.0,0.0,0.0,0.0,0.0,0.0,0.0,0.0,0.0,-1.8581,-1.8918,-1.8718,-1.7933,-2.038,-2.2353,-2.372,-2.5504,-2.7279,-2.9047,-2.9408,-2.9369,-2.8915,-2.6961,-2.5324,-2.3905,-2.2467,-2.1438,-2.0775,0.0,0.0,0.0,0.0,0.0,0.0,0.0,0.0,0.0,0.0,-2.3343,-2.3101,-2.468,0.0,0.0,0.0,0.0,0.0,-2.2292,-2.2563,-2.2667,-2.1251,-2.1197,-2.1274,-2.035,-1.914,-1.8178,-1.7974,-1.6927,-1.6279,-1.7057,-1.6857,-1.6972,-1.8332,-1.8592,-1.8663,-1.8664,-1.9,-1.9193,-1.9084,-1.9531,-1.9736,-1.9495,-1.934,-1.928,-1.9265,-1.9016,-1.8892,-1.8892,-1.8892,-1.8628,-1.8094,-1.8167,-1.7925,-1.7474,-1.8913,-1.9527,-1.9175,-2.0016,-2.0744,-2.1392,-2.1168,-2.1175,-2.1423,-2.1086,-2.094,-2.094,-2.075,-2.0594,-2.0453,-1.9783,-1.9285,-1.8836,-1.78,-1.7468,-1.7667,0.0,0.0,0.0,0.0,0.0,0.0,0.0,0.0,0.0,0.0,0.0,0.0,0.0,0.0,0.0,0.0,0.0,0.0,0.0,0.0,-2.0393,-1.994,-2.0764,-2.0854,-2.0031,-2.1621,-2.3398,-2.5274,-2.6152,-2.7464,-2.9199,-2.9518,-2.9116,-2.8044,-2.6025,-2.4426,-2.309,-2.1676,-2.1042,-2.0907,0.0,0.0,0.0,0.0,0.0,0.0,0.0,0.0,0.0,0.0,0.0,0.0,0.0,0.0,0.0,-2.3493,-2.2862,-2.2113,-2.1868,-2.2077,-2.2262,-2.1686,-2.2012,-2.2306,-2.1812,-2.0701,-1.9754,-1.9506,-1.8408,-1.7502,-1.7736,-1.7472,-1.7467,-1.8348,-1.8251,-1.8227,-1.871,-1.8831,-1.8915,-1.906,-1.9366,-1.9512,-1.9386,-1.9439,-1.9289,-1.9096,-1.9024,-1.9012,-1.9072,-1.8963,-1.8704,-1.8297,-1.8428,-1.8149,-1.7457,-1.9622,-2.0433,-1.9898,-2.1086,-2.1671,-2.1817,-2.1569,-2.1291,-2.0969,-2.0647,-2.0501,-2.0472,-2.0223,-2.0223,-2.0285,-1.9661,-1.9277,-1.894,-1.7655,-1.7509,-1.7932,0.0,0.0,0.0,0.0,0.0,0.0,0.0,0.0,0.0,0.0,0.0,0.0,0.0,0.0,0.0,0.0,0.0,0.0,0.0,0.0,-2.0393,-1.994,-2.1454,-2.2031,-2.1561,-2.2541,-2.3826,-2.5484,-2.6359,-2.7406,-2.8602,-2.9229,-2.8738,-2.7162,-2.4405,-2.3394,-2.3607,-2.1987,-2.1917,-2.2882,-2.2403,0.0,0.0,0.0,0.0,0.0,0.0,0.0,0.0,0.0,0.0,0.0,0.0,0.0,-2.3493,-2.3493,-2.2555,-2.1697,-2.2625,-2.2445,-2.2002,-2.1953,-2.2006,-2.223,-2.2809,-2.1921,-2.0888,-2.0549,-1.9301,-1.8008,-1.7321,-1.7319,-1.7563,-1.7877,-1.8324,-1.8722,-1.9012,-1.9253,-1.939,-1.9096,-1.9366,-1.9374,-1.9132,-1.9108,-1.9096,-1.9072,-1.8855,-1.8819,-1.906,-1.8613,-1.8456,-1.8674,-1.8191,-1.7925,-1.7841,-2.0004,-2.09,-2.0536,-2.1598,-2.2063,-2.2033,-2.1151,-2.0618,-2.0241,-1.9974,-1.9881,-1.9881,-1.9867,-1.9691,-1.9403,-1.9667,-1.9089,-1.8007,-1.7425,-1.7373,-1.7657,0.0,0.0,0.0,0.0,0.0,0.0,0.0,0.0,0.0,0.0,0.0,0.0,0.0,0.0,0.0,0.0,0.0,0.0,0.0,-2.0949,-2.1632,-2.2138,-2.3169,-2.356,-2.3256,-2.4016,-2.4701,-2.5316,-2.6174,-2.7121,-2.8075,-2.7795,-2.7035,-2.5904,-2.4361,-2.3153,-2.2208,-2.1427,-2.1293,-2.1579,-2.1695,-2.2183,0.0,0.0,0.0,0.0,0.0,0.0,0.0,0.0,-2.1831,-2.1872,-2.2599,-2.2555,-2.229,-2.2687,-2.2157,-2.1482,-2.1896,-2.2301,-2.2456,-2.1793,-2.1816,-2.2113,-2.2544,-2.2703,-2.2531,-2.1869,-2.084,-1.9485,-1.7691,-1.7551,-1.7817,-1.8094,-1.8444,-1.877,-1.9036,-1.9157,-1.9181,-1.9084,-1.9169,-1.9181,-1.9084,-1.8927,-1.8831,-1.8831,-1.8589,-1.8481,-1.8589,-1.8396,-1.8263,-1.8179,-1.7986,-1.772,-1.7394,-1.9842,-2.0728,-1.999,-2.1911,-2.234,-2.1475,-2.1133,-2.0565,-1.993,-1.9813,-1.9823,-1.9793,-1.9603,-1.9558,-1.9594,-1.9498,-1.895,-1.8226,-1.7839,-1.774,-1.7877,0.0,0.0,0.0,0.0,0.0,0.0,0.0,0.0,0.0,0.0,0.0,0.0,0.0,0.0,0.0,0.0,0.0,0.0,-2.1089,-2.193,-2.2746,-2.3493,-2.4143,-2.4464,-2.4292,-2.4743,-2.5041,-2.5189,-2.6351,-2.7035,-2.7366,-2.6861,-2.6085,-2.5017,-2.3914,-2.2682,-2.1338,-2.0825,-2.0799,-2.1221,-2.1707,-2.2269,0.0,0.0,0.0,0.0,0.0,0.0,0.0,0.0,-2.1425,-2.149,-2.1917,-2.1784,-2.1535,-2.2183,-2.1917,-2.149,-2.1935,-2.2455,-2.2706,-2.2262,-2.2363,-2.274,-2.3419,-2.3631,-2.36,-2.3167,-2.1684,-2.0102,-1.89,-1.8064,-1.7742,-1.8516,-1.857,-1.865,-1.8915,-1.8879,-1.8855,-1.8939,-1.8879,-1.8831,-1.8831,-1.8662,-1.8565,-1.8565,-1.8312,-1.8203,-1.8287,-1.8131,-1.7986,-1.7877,-1.7708,-1.7455,-1.7092,-1.9199,-2.0113,-1.9803,-2.1796,-2.2162,-2.1096,-2.0887,-2.0393,-1.971,-1.9552,-1.9447,-1.9485,-1.9213,-1.9316,-1.9608,-1.929,-1.895,-1.8513,-1.8236,-1.8202,-1.8304,0.0,0.0,0.0,0.0,0.0,0.0,0.0,0.0,0.0,0.0,0.0,0.0,0.0,0.0,0.0,0.0,0.0,0.0,-2.1883,-2.2891,-2.3493,-2.3493,-2.4143,-2.4507,-2.4507,-2.4507,-2.4743,-2.5211,-2.6872,-2.725,-2.6509,-2.6824,-2.6142,-2.4601,-2.2828,-2.1859,-2.1518,-2.0171,-2.0709,-2.2422,-2.2903,-2.3293,-2.3509,0.0,0.0,0.0,0.0,0.0,0.0,0.0,-2.1075,-2.1401,-2.1401,-2.1401,-2.1535,-2.2227,-2.1917,-2.1713,-2.3101,-2.295,-2.2656,-2.3583,-2.3812,-2.422,-2.5754,-2.4861,-2.3833,-2.4402,-2.1613,-1.9595,-2.1044,-1.8795,-1.7271,-1.8995,-1.8706,-1.8384,-1.865,-1.8456,-1.8396,-1.865,-1.8456,-1.83,-1.83,-1.8287,-1.8287,-1.8287,-1.8022,-1.7986,-1.8263,-1.7768,-1.7587,-1.7853,-1.7358,-1.708,-1.708,-1.8026,-1.9085,-2.0179,-2.1099,-2.1361,-2.1197,-2.0342,-1.9816,-1.9497,-1.8992,-1.8789,-1.8789,-1.8789,-1.8979,-1.9272,-1.9026,-1.8921,-1.8869,-1.8527,-1.8593,-1.8921,0.0,0.0,0.0,0.0,0.0,0.0,0.0,0.0,0.0,0.0,0.0,0.0,0.0,0.0,0.0,0.0,0.0,0.0,-2.2073,-2.2737,-2.3293,-2.3779,-2.4236,-2.4507,-2.4507,-2.4507,-2.4871,-2.5631,-2.5487,-2.5656,-2.6008,-2.5466,-2.4753,-2.3803,-2.277,-2.1968,-2.1446,-2.105,-2.1472,-2.2485,-2.3485,-2.3737,-2.3509,0.0,0.0,0.0,0.0,0.0,0.0,0.0,0.0,0.0,-2.1401,-2.1941,-2.2558,-2.2435,-2.2878,-2.3363,-2.3485,-2.3708,-2.39,-2.3828,-2.4184,-2.496,-2.6379,-2.5658,-2.4487,-2.4156,-2.2875,-2.1499,-2.0494,-1.9319,-1.8442,-1.8085,-1.8007,-1.8094,-1.8372,-1.8348,-1.8324,-1.8396,-1.8348,-1.83,-1.83,-1.795,-1.772,-1.772,-1.7298,-1.708,-1.7165,-1.702,-1.6972,-1.7044,-1.6899,-1.6718,-1.6525,-1.7819,-1.8712,-1.9169,-2.0457,-2.1248,-2.1577,-2.0928,-2.0209,-1.9547,-1.9279,-1.9125,-1.9125,-1.9125,-1.9184,-1.9272,-1.922,-1.9078,-1.8921,-1.9011,-1.8974,-1.8921,0.0,0.0,0.0,0.0,0.0,0.0,0.0,0.0,0.0,0.0,0.0,0.0,0.0,0.0,0.0,0.0,0.0,0.0,0.0,-2.3281,-2.3612,-2.3888,-2.4302,-2.4507,-2.4507,-2.4673,-2.4931,-2.5253,-2.4786,-2.4786,-2.5274,-2.4931,-2.4364,-2.3687,-2.3271,-2.2694,-2.2023,-2.1857,-2.2321,-2.3177,-2.4053,-2.4092,-2.3538,0.0,0.0,0.0,0.0,0.0,0.0,0.0,0.0,0.0,-2.1511,-2.2132,-2.2815,-2.2832,-2.3345,-2.3939,-2.4142,-2.4625,-2.5177,-2.5369,-2.5926,-2.6495,-2.6831,-2.6382,-2.5714,-2.5094,-2.3852,-2.2742,-2.2178,-2.0415,-1.8981,-1.8932,-1.8248,-1.7817,-1.8082,-1.8034,-1.801,-1.8118,-1.7937,-1.7817,-1.7817,-1.743,-1.7177,-1.7177,-1.6875,-1.6706,-1.6706,-1.6706,-1.6706,-1.6706,-1.6585,-1.6453,-1.6284,-1.7085,-1.7983,-1.8884,-1.9674,-2.0686,-2.1829,-2.0911,-2.0235,-1.9698,-1.9292,-1.9081,-1.9096,-1.928,-1.9272,-1.9272,-1.9272,-1.9182,-1.9078,-1.922,-1.9182,-1.9078,0.0,0.0,0.0,0.0,0.0,0.0,0.0,0.0,0.0,0.0,0.0,0.0,0.0,0.0,0.0,0.0,0.0,0.0,0.0,0.0,-2.4301,-2.3929,-2.4302,-2.4507,-2.4569,-2.4983,-2.4962,-2.4507,-2.4549,-2.4549,-2.4507,-2.4941,-2.471,-2.3959,-2.4068,-2.3711,-2.2907,-2.2618,-2.3119,-2.4197,-2.466,-2.4316,-2.3605,-2.3632,0.0,0.0,0.0,0.0,0.0,0.0,0.0,0.0,-2.1663,-2.2111,-2.2711,-2.326,-2.3537,-2.3871,-2.4995,-2.5585,-2.6227,-2.7634,-2.84,-2.8492,-2.729,-2.7196,-2.71,-2.6485,-2.4504,-2.3402,-2.4907,-2.1734,-1.9348,-2.0785,-1.9168,-1.7843,-1.8077,-1.7787,-1.7667,-1.7911,-1.7404,-1.7056,-1.7056,-1.6815,-1.6658,-1.6634,-1.6622,-1.6622,-1.6598,-1.661,-1.6622,-1.6622,-1.638,-1.6235,-1.6211,-1.597,-1.6936,-1.914,-1.8782,-1.9806,-2.1887,-2.0557,-1.986,-1.973,-1.9065,-1.876,-1.8818,-1.9111,-1.9242,-1.9272,-1.9272,-1.9272,-1.9272,-1.9272,-1.9257,-1.9242,0.0,0.0,0.0,0.0,0.0,0.0,0.0,0.0,0.0,0.0,0.0,0.0,0.0,0.0,0.0,0.0,0.0,0.0,0.0,0.0,-2.4301,-2.3929,-2.4302,-2.4673,-2.5024,-2.5148,-2.4962,-2.4507,-2.4859,-2.4859,-2.4507,-2.459,-2.4285,-2.3588,-2.3632,-2.3218,-2.258,-2.3033,-2.3422,-2.3759,-2.473,-2.4157,-2.2669,-2.2777,-2.1597,0.0,0.0,0.0,0.0,0.0,0.0,0.0,-2.1845,-2.2924,-2.3889,-2.3162,-2.382,-2.4951,-2.5582,-2.5813,-2.6289,-2.8028,-2.9352,-2.9999,-2.9011,-2.8106,-2.7049,-2.5492,-2.4969,-2.4563,-2.3682,-2.2434,-2.1289,-2.0398,-1.9777,-1.9473,-1.9529,-1.8776,-1.8216,-1.8268,-1.7403,-1.6791,-1.6791,-1.6537,-1.6284,-1.6079,-1.6066,-1.597,-1.5765,-1.5946,-1.6066,-1.6066,-1.6006,-1.5873,-1.5668,-1.5608,-1.6549,-1.8467,-1.8408,-1.9499,-2.1477,-2.0378,-1.9421,-1.8651,-1.8478,-1.8555,-1.8789,-1.8862,-1.9038,-1.9272,-1.9272,-1.9272,-1.9272,-1.9272,-1.9111,-1.8935,0.0,0.0,0.0,0.0,0.0,0.0,0.0,0.0,0.0,0.0,0.0,0.0,0.0,0.0,0.0,0.0,0.0,0.0,0.0,0.0,0.0,-2.4198,-2.4383,-2.4611,-2.4859,-2.5086,-2.4962,-2.4507,-2.4962,-2.4941,-2.4507,-2.4735,-2.4541,-2.3991,-2.4213,-2.3998,-2.343,-2.3841,-2.4112,-2.4358,-2.4954,-2.4529,-2.3422,-2.2961,-2.1839,-2.0412,-1.9901,0.0,0.0,0.0,0.0,0.0,0.0,0.0,-2.3804,-2.3449,-2.3902,-2.4778,-2.5647,-2.6252,-2.6972,-2.8814,-2.9829,-3.0134,-2.9206,-2.8315,-2.726,-2.5504,-2.4812,-2.4323,-2.3502,-2.265,-2.1861,-2.1024,-2.0397,-2.0015,-2.0015,-1.9523,-1.914,-1.914,-1.8055,-1.7266,-1.714,-1.639,-1.5801,-1.5535,-1.5511,-1.5451,-1.5318,-1.5439,-1.5511,-1.5511,-1.539,-1.5318,-1.5318,-1.5631,-1.665,-1.8311,-1.8589,-1.9208,-2.0124,-1.9813,-1.8983,-1.7838,-1.7999,-1.816,-1.8335,-1.8496,-1.8657,-1.8803,-1.8803,-1.8803,-1.8803,-1.8803,-1.8803,-1.8789,0.0,0.0,0.0,0.0,0.0,0.0,0.0,0.0,0.0,0.0,0.0,0.0,0.0,0.0,0.0,0.0,0.0,0.0,0.0,0.0,0.0,0.0,-2.4549,-2.4528,-2.4611,-2.5003,-2.4962,-2.4507,-2.4962,-2.5024,-2.4735,-2.5044,-2.5024,-2.4735,-2.5044,-2.4983,-2.4611,-2.4528,-2.4714,-2.5065,-2.5065,-2.4828,-2.4368,-2.3287,-2.2199,-2.1059,-1.9964,-1.9563,-1.9678,-2.0679,0.0,0.0,0.0,0.0,-2.3391,-2.3805,-2.3929,-2.426,-2.5523,-2.6708,-2.7883,-2.9477,-2.9932,-2.9816,-2.8978,-2.8336,-2.7428,-2.5835,-2.4686,-2.3859,-2.3632,-2.2752,-2.2044,-2.198,-2.1094,-2.0435,-2.0435,-2.0273,-2.0165,-2.0165,-1.8938,-1.7982,-1.7581,-1.6406,-1.5524,-1.5065,-1.5077,-1.5089,-1.504,-1.5077,-1.5113,-1.5113,-1.4896,-1.4871,-1.504,-1.5654,-1.6695,-1.815,-1.8814,-1.9065,-1.8797,-1.9003,-1.8426,-1.7293,-1.7618,-1.7765,-1.7838,-1.8101,-1.8247,-1.8306,-1.8306,-1.8306,-1.8306,-1.8306,-1.8438,-1.8584,0.0,0.0,0.0,0.0,0.0,0.0,0.0,0.0,0.0,0.0,0.0,0.0,0.0,0.0,0.0,0.0,0.0,0.0,0.0,0.0,0.0,-2.5086,-2.4714,-2.4693,-2.5086,-2.5148,-2.4962,-2.4507,-2.4962,-2.5399,-2.5689,-2.5378,-2.5399,-2.5689,-2.5334,-2.5148,-2.5065,-2.4673,-2.4528,-2.459,-2.459,-2.4242,-2.3525,-2.2486,-2.136,-2.0267,-1.9522,-1.9025,-1.8911,-1.9907,-2.0708,0.0,0.0,0.0,-2.3846,-2.3867,-2.4157,-2.4654,-2.5627,-2.7138,-2.8587,-2.9228,-2.9704,-2.9838,-2.9322,-2.8309,-2.7106,-2.5857,-2.5124,-2.4402,-2.3358,-2.303,-2.2824,-2.2537,-2.2384,-2.2282,-2.2282,-2.138,-2.0762,-2.0762,-1.9478,-1.8249,-1.7336,-1.6775,-1.5984,-1.4837,-1.498,-1.5004,-1.4787,-1.498,-1.5113,-1.5113,-1.5077,-1.4968,-1.4775,-1.4825,-1.5765,-1.746,-1.8605,-1.8998,-1.8781,-1.8147,-1.7659,-1.7279,-1.7369,-1.7512,-1.7823,-1.7867,-1.8043,-1.8306,-1.8306,-1.8306,-1.8306,-1.8306,-1.8145,-1.7984,0.0,0.0,0.0,0.0,0.0,0.0,0.0,0.0,0.0,0.0,0.0,0.0,0.0,0.0,0.0,0.0,0.0,0.0,0.0,0.0,0.0,-2.4797,-2.4611,-2.459,-2.4797,-2.4797,-2.4693,-2.4507,-2.4693,-2.5192,-2.5875,-2.5958,-2.6227,-2.6687,-2.6455,-2.6082,-2.5564,-2.5065,-2.4735,-2.4507,-2.4507,-2.4335,-2.395,-2.3103,-2.2107,-2.1028,-2.0086,-1.9636,-1.9554,-2.049,-2.1172,-2.1853,-2.2815,0.0,0.0,0.0,-2.4012,-2.4467,-2.5875,-2.7081,-2.809,-2.9063,-2.9456,-2.9622,-2.9684,-2.887,-2.7693,-2.6263,-2.5389,-2.4491,-2.3081,-2.2792,-2.2893,-2.3173,-2.3012,-2.2853,-2.2902,-2.2267,-2.1639,-2.1246,-2.0063,-1.9102,-1.8479,-1.7681,-1.6703,-1.5406,-1.5447,-1.518,-1.4485,-1.4594,-1.4654,-1.4654,-1.4509,-1.4449,-1.4485,-1.4904,-1.6095,-1.8133,-1.8778,-1.8991,-1.8765,-1.7963,-1.7492,-1.7279,-1.7279,-1.7366,-1.7545,-1.7545,-1.7633,-1.7765,-1.7765,-1.7765,-1.7765,-1.7765,-1.7779,-1.7808,0.0,0.0,0.0,0.0,0.0,0.0,0.0,0.0,0.0,0.0,0.0,0.0,0.0,0.0,0.0,0.0,0.0,0.0,0.0,0.0,0.0,-2.4487,-2.4507,-2.4507,-2.4507,-2.4507,-2.4507,-2.4507,-2.4507,-2.5068,-2.6107,-2.6459,-2.7087,-2.8,-2.7627,-2.6957,-2.6065,-2.5585,-2.5192,-2.4817,-2.4466,-2.4321,-2.4279,-2.3594,-2.2758,-2.182,-2.0723,-2.0455,-2.0625,-2.103,-2.1736,-2.2623,-2.351,-2.368,0.0,0.0,0.0,-2.4343,-2.5689,-2.6521,-2.7226,-2.8317,-2.8773,-2.9021,-2.9249,-2.8856,-2.8003,-2.6579,-2.5687,-2.4805,-2.342,-2.3038,-2.3103,-2.3741,-2.3517,-2.3281,-2.3286,-2.2822,-2.2292,-2.1739,-2.0745,-1.991,-1.9462,-1.8516,-1.7498,-1.6278,-1.5934,-1.5473,-1.4723,-1.4436,-1.4292,-1.4292,-1.4111,-1.4099,-1.4292,-1.5344,-1.6739,-1.8411,-1.8733,-1.8856,-1.8765,-1.7827,-1.74,-1.7279,-1.7279,-1.7279,-1.7279,-1.7279,-1.7279,-1.7279,-1.7279,-1.7279,-1.7279,-1.7279,-1.7486,-1.7662,0.0,0.0,0.0,0.0,0.0,0.0,0.0,0.0,0.0,0.0,0.0,0.0,-2.5105,-2.4765,-2.4887,-2.5737,0.0,0.0,0.0,0.0,0.0,-2.4487,-2.4507,0.0,-2.4507,-2.4507,-2.4507,-2.4507,-2.4507,-2.5233,-2.6584,-2.6604,-2.7777,-2.9884,-2.8473,-2.7386,-2.6542,-2.6041,-2.5834,-2.5733,-2.4426,-2.3908,-2.3867,-2.3133,-2.2559,-2.2038,-2.1114,-2.1219,-2.1693,-2.1046,-2.2,-2.3434,-2.3497,-2.393,-2.4425,0.0,0.0,0.0,-2.4569,-2.5295,-2.6127,-2.6625,-2.7365,-2.7883,-2.7537,-2.7696,-2.7598,-2.6346,-2.6082,-2.58,-2.4952,-2.4165,-2.3741,-2.4114,-2.4135,-2.3984,-2.3561,-2.2923,-2.2481,-2.2434,-2.1473,-2.047,-1.9478,-1.9018,-1.8334,-1.7296,-1.6358,-1.5792,-1.5697,-1.4806,-1.4292,-1.4292,-1.428,-1.428,-1.4292,-1.625,-1.7282,-1.739,-1.8038,-1.8478,-1.8765,-1.7507,-1.7079,-1.7279,-1.7279,-1.7279,-1.7279,-1.7279,-1.7279,-1.7279,-1.7279,-1.7279,-1.7279,-1.7279,-1.7293,-1.7308,0.0,0.0,0.0,0.0,0.0,0.0,0.0,0.0,0.0,0.0,0.0,0.0,0.0,-2.5287,-2.5413,-2.5385,-2.5116,0.0,0.0,0.0,0.0,-2.538,-2.5126,-2.4956,-2.4956,-2.4658,-2.4507,-2.4507,-2.4786,-2.5356,-2.6157,-2.67,-2.7312,-2.7858,-2.7641,-2.7729,-2.7889,-2.6156,-2.5461,-2.5378,-2.4302,-2.4053,-2.424,-2.3639,-2.3083,-2.254,-2.2193,-2.1932,-2.1755,-2.2054,-2.273,-2.3537,-2.397,-2.4335,-2.4507,-2.4507,-2.4507,-2.4569,-2.4859,-2.5168,-2.5647,-2.6438,-2.7081,-2.7496,-2.7351,-2.7593,-2.7557,-2.6335,-2.6091,-2.5994,-2.5752,-2.5001,-2.4557,-2.4927,-2.4711,-2.438,-2.3997,-2.348,-2.2967,-2.2479,-2.169,-2.1073,-2.0692,-2.0115,-1.9347,-1.8319,-1.7948,-1.7436,-1.6781,-1.5792,-1.5283,-1.5283,-1.4627,-1.422,-1.4051,-1.6021,-1.7035,-1.7035,-1.79,-1.8478,-1.8765,-1.7462,-1.7033,-1.7279,-1.7279,-1.7279,-1.7279,-1.7279,-1.7279,-1.7279,-1.7279,-1.7279,-1.7279,-1.7279,-1.7279,-1.7372,0.0,0.0,0.0,0.0,0.0,0.0,0.0,0.0,0.0,-2.5329,0.0,0.0,0.0,0.0,-2.5854,-2.5185,-2.5593,-2.581,-2.5708,-2.5666,-2.5732,-2.5884,-2.5591,-2.538,-2.5189,-2.4914,-2.4658,-2.4507,-2.4999,-2.5445,-2.5913,-2.6649,-2.713,-2.7305,-2.7131,-2.7518,-2.8189,-2.6718,-2.5948,-2.5564,-2.4364,-2.4136,-2.4467,-2.4365,-2.4033,-2.3642,-2.3884,-2.3373,-2.2674,-2.3333,-2.3516,-2.3647,-2.4487,-2.4615,-2.4466,-2.4321,-2.4383,-2.4528,-2.4736,-2.4838,-2.5127,-2.5937,-2.6351,-2.6667,-2.6812,-2.7034,-2.7057,-2.639,-2.6255,-2.6255,-2.6255,-2.5805,-2.5475,-2.5558,-2.5283,-2.4927,-2.4388,-2.3847,-2.3319,-2.2818,-2.2138,-2.1668,-2.1401,-2.0952,-2.0275,-1.9347,-1.898,-1.8503,-1.7855,-1.6875,-1.6129,-1.5705,-1.4681,-1.4039,-1.3773,-1.5704,-1.6607,-1.6532,-1.7731,-1.834,-1.8378,-1.743,-1.7121,-1.7279,-1.7279,-1.7279,-1.7279,-1.7279,-1.7279,-1.7279,-1.7279,-1.7279,-1.7279,-1.7279,-1.7512,-1.7917,0.0,0.0,0.0,0.0,0.0,0.0,0.0,0.0,-2.5989,-2.537,0.0,0.0,0.0,0.0,0.0,-2.5311,-2.5672,-2.5753,-2.5267,-2.5267,-2.5445,-2.5926,0.0,0.0,-2.5232,-2.5232,-2.4999,-2.4529,-2.4999,-2.5466,-2.5935,-2.639,-2.7348,-2.8612,-2.7238,-2.6866,-2.7229,-2.7721,-2.7446,-2.6438,-2.4634,-2.4157,-2.4593,-2.5147,-2.5316,-2.5298,-2.6028,-2.5544,-2.4533,-2.4762,-2.4401,-2.3967,-2.4935,-2.4892,-2.4404,-2.4033,-2.4198,-2.4404,0.0,0.0,0.0,-2.5065,-2.5168,-2.5337,-2.5751,-2.5854,-2.6044,-2.648,-2.6584,-2.6604,-2.6604,-2.6604,-2.6438,-2.5982,-2.5854,-2.5544,-2.4631,-2.3927,-2.3537,-2.3537,-2.2906,-2.2183,-2.1535,-2.1445,-2.1132,-2.0428,-1.9438,-1.8888,-1.8888,-1.7886,-1.6718,-1.5424,-1.444,-1.3761,-1.3507,-1.5342,-1.6095,-1.5711,-1.7429,-1.8063,-1.7568,-1.7396,-1.7311,-1.7264,-1.7279,-1.7279,-1.7279,-1.7279,-1.7279,-1.7279,-1.7279,-1.7279,-1.7279,-1.7279,-1.7917,-1.8796,0.0,0.0,0.0,0.0,0.0,-2.9251,-2.7405,-2.7774,-2.7996,0.0,0.0,0.0,-2.7026,-2.6725,-2.6548,-2.6635,-2.678,-2.678,-2.6658,-2.6635,-2.6703,-2.6839,-2.6509,-2.6279,-2.6155,-2.5843,-2.5633,-2.5528,-2.5904,-2.6221,-2.6353,-2.6794,-2.7243,-2.7599,-2.7606,-2.7446,-2.7194,-2.6693,-2.6516,-2.6454,-2.4957,-2.483,-2.5443,-2.4902,-2.5092,-2.5785,-2.6275,-2.5674,-2.4776,-2.5784,-2.531,-2.4487,-2.5013,-2.4885,-2.4466,-2.4363,-2.4404,-2.4466,-2.4342,0.0,0.0,0.0,0.0,0.0,-2.4964,-2.542,-2.5834,-2.5647,-2.5854,-2.6107,-2.6107,-2.6107,-2.5916,-2.5482,-2.542,-2.5168,-2.4569,-2.4335,-2.4249,-2.4249,-2.3624,-2.3144,-2.2925,-2.2467,-2.205,-2.1828,-2.1114,-2.0664,-2.0664,-1.8949,-1.7189,-1.5456,-1.4681,-1.3901,-1.323,-1.5083,-1.5807,-1.5445,-1.7121,-1.7702,-1.7217,-1.707,-1.7035,-1.7004,-1.7223,-1.7279,-1.7279,-1.7279,-1.7279,-1.7279,-1.7279,-1.7279,-1.7279,-1.7279,-1.7917,-1.8888,0.0,0.0,0.0,0.0,0.0,-3.0282,-2.8738,-2.8979,-2.9121,0.0,0.0,0.0,-2.7874,-2.7392,-2.7231,-2.7506,-2.7305,-2.719,-2.719,-2.719,-2.719,-2.719,-2.6921,-2.6806,-2.6819,-2.6213,-2.5964,-2.619,-2.6191,-2.6285,-2.6528,-2.6962,-2.719,-2.7213,-2.7529,-2.7501,-2.7163,-2.6952,-2.6745,-2.6496,-2.5228,-2.5314,-2.6131,-2.5768,-2.6137,-2.6889,-2.7736,-2.6947,-2.5664,-2.6998,-2.6708,-2.5671,-2.53,-2.5011,-2.4755,-2.4549,-2.4507,-2.4507,-2.4507,-2.4507,-2.4549,-2.4735,0.0,0.0,-2.4569,-2.4799,-2.4964,-2.4716,-2.5026,-2.5254,-2.5088,-2.5357,-2.5399,-2.4778,-2.4941,-2.5024,-2.4569,-2.4507,-2.4507,-2.4507,-2.4163,-2.3817,-2.3537,-2.3081,-2.2711,-2.2448,-2.205,-2.164,-2.1166,-1.959,-1.7728,-1.5662,-1.4832,-1.4082,-1.346,-1.4936,-1.5573,-1.5375,-1.6826,-1.7289,-1.6815,-1.6891,-1.6976,-1.7062,-1.7252,-1.7279,-1.7279,-1.7279,-1.7279,-1.7279,-1.7279,-1.7279,-1.7326,-1.7792,-1.8565,-1.9513,0.0,0.0,-3.2201,-3.1863,-3.1794,-3.1398,-3.0096,-2.9915,-2.9664,0.0,-2.8899,-2.8899,-2.8899,-2.8399,-2.8057,-2.8057,-2.7598,-2.7282,-2.7282,-2.7213,-2.719,-2.719,-2.7236,-2.7318,-2.7389,-2.6599,-2.6371,-2.688,-2.6386,-2.6386,-2.6816,-2.7208,-2.7412,-2.7412,-2.7412,-2.7412,-2.7452,-2.8059,-2.7702,-2.6663,-2.5697,-2.5856,-2.6691,-2.7093,-2.7565,-2.8163,-2.9557,-2.8593,-2.6872,-2.8055,-2.7919,-2.6998,-2.5616,-2.5164,-2.5024,-2.4611,-2.4507,-2.4507,-2.4507,-2.4507,-2.459,-2.5003,-2.4797,0.0,-2.4507,-2.424,-2.395,-2.395,-2.426,-2.4383,-2.4033,-2.4612,-2.4859,-2.4095,-2.4633,-2.4983,-2.4631,-2.4569,-2.4569,-2.4569,-2.4528,-2.4292,-2.3667,-2.3624,-2.3363,-2.2668,-2.258,-2.2014,-2.084,-1.9904,-1.8371,-1.6119,-1.5047,-1.4394,-1.4168,-1.4936,-1.5352,-1.5394,-1.6576,-1.6872,-1.6375,-1.6741,-1.7004,-1.7282,-1.7311,-1.7279,-1.7326,-1.7419,-1.7419,-1.7326,-1.7419,-1.7466,-1.7606,-1.8611,-1.9559,-2.0512,0.0,-3.1863,-3.1889,-3.1823,-3.2189,-3.1935,-3.0177,-3.0776,-3.1083,-3.0272,-3.0146,-3.0146,-3.0146,-2.9183,-2.8563,-2.8563,-2.8103,-2.7828,-2.7828,-2.7461,-2.719,-2.719,-2.7621,-2.7898,-2.7998,-2.8187,-2.839,-2.8595,-2.8521,-2.8512,-2.8609,-2.8688,-2.8727,-2.8727,-2.8727,-2.8727,-2.8727,-2.8846,-2.8518,-2.7789,-2.679,-2.6658,-2.703,-2.6375,-2.6896,-2.8077,-2.8729,-2.8433,-2.7656,-2.7098,-2.6815,-2.6563,-2.5523,-2.4945,-2.4611,-2.4528,-2.4507,-2.4507,-2.4507,-2.4507,-2.4507,-2.4611,-2.4569,0.0,-2.4507,-2.4425,-2.4363,-2.4363,-2.4445,-2.4466,-2.4383,-2.4507,-2.4569,-2.4404,-2.4528,-2.4735,-2.5003,-2.5044,-2.5044,-2.5044,-2.4735,-2.4464,-2.4335,-2.4272,-2.4229,-2.41,-2.358,-2.2558,-2.0884,-2.0325,-1.911,-1.7069,-1.5824,-1.516,-1.5144,-1.4936,-1.5019,-1.5394,-1.6296,-1.645,-1.6023,-1.6639,-1.6932,-1.7005,-1.7223,-1.7279,-1.7372,-1.8149,-1.801,-1.7372,-1.8195,-1.8519,-1.8611,-1.9604,-2.0557,-2.1427,-3.2594,-3.2934,-3.3038,-3.2751,-3.2412,-3.1959,-3.1288,-3.1158,-3.1209,-3.1361,-3.1085,-3.089,-3.089,-2.9829,-2.9091,-2.9091,-2.8632,-2.8241,-2.8031,-2.7759,-2.7483,-2.719,-2.7493,-2.8092,-2.8981,-2.8194,-2.8339,-2.9499,-2.8688,-2.8418,-2.8649,-2.8959,-2.8934,-2.8649,-2.8959,-2.8934,-2.8713,-2.9294,-2.9206,-2.8548,-2.7466,-2.7125,-2.718,-2.6689,-2.7117,-2.8035,-2.8517,-2.8557,-2.8121,-2.6868,-2.6838,-2.7063,-2.5889,-2.5417,-2.5141,-2.4925,-2.4673,-2.4507,-2.4507,-2.4507,-2.4507,-2.4507,-2.4507,0.0,0.0,-2.4219,-2.4136,-2.3908,-2.4053,-2.4136,-2.3908,-2.4197,-2.4425,-2.424,-2.4363,-2.4652,-2.5127,-2.4983,-2.4838,-2.4838,-2.4631,-2.4507,-2.4507,-2.4507,-2.4507,-2.4507,-2.4206,-2.3209,-2.1448,-2.0977,-1.9674,-1.7381,-1.6474,-1.6041,-1.6041,-1.5835,-1.5809,-1.6072,-1.6634,-1.6639,-1.6155,-1.6683,-1.6991,-1.7106,-1.7252,-1.7606,-1.8102,-1.8611,-1.878,-1.878,-1.9285,-1.9513,-1.9604,-2.0602,-2.1275,-2.1784,-3.3456,-3.377,-3.3796,-3.3483,-3.2444,-3.1764,-3.2111,-3.1536,-3.1522,-3.2723,-3.2147,-3.1708,-3.1803,-3.0711,-2.9963,-3.0055,-2.932,-2.8769,-2.8586,-2.8103,-2.7686,-2.7417,-2.7434,-2.8092,-2.9477,-2.7898,-2.7953,-2.9791,-2.8587,-2.8189,-2.8561,-2.9184,-2.9209,-2.8773,-2.9134,-2.9109,-2.8811,-2.9656,-2.9694,-2.9071,-2.8019,-2.752,-2.7419,-2.7042,-2.7323,-2.7897,-2.8379,-2.8609,-2.8462,-2.6953,-2.7019,-2.7479,-2.6087,-2.5677,-2.5677,-2.5176,-2.4883,-2.4615,-2.4529,-2.4507,-2.4507,-2.4507,-2.4507,-2.4404,0.0,0.0,0.0,-2.3536,-2.3743,-2.3929,-2.3638,-2.4095,-2.4385,-2.4075,-2.4282,-2.4611,-2.4923,-2.4673,-2.4528,-2.4611,-2.4487,-2.4404,-2.4487,-2.4507,-2.4507,-2.4507,-2.4507,-2.3725,-2.2007,-2.1602,-2.0243,-1.7748,-1.7109,-1.6876,-1.704,-1.673,-1.6664,-1.68,-1.7022,-1.6937,-1.6521,-1.6844,-1.7091,-1.7279,-1.7279,-1.787,-1.8796,-1.901,-1.965,-2.0512,-2.0512,-2.0512,-2.0602,-2.1606,-2.1961,-2.2094,-3.3378,-3.2803,-3.2241,-3.2725,-3.2241,-3.159,-3.1052,-3.228,-3.3664,-3.4838,-3.3727,-3.3057,-3.3567,-3.2347,-3.1733,-3.2099,-3.0468,-2.9757,-3.0606,-2.8563,-2.7481,-2.8002,-2.8011,-2.8159,-2.8473,-2.8698,-2.8994,-2.9382,-2.9658,-2.9839,-2.9917,-3.0488,-3.0759,-3.0681,-3.0203,-3.0255,-3.0655,-3.0251,-2.9783,-2.9197,-2.85,-2.8164,-2.7949,-2.6433,-2.6473,-2.7369,-2.7874,-2.8333,-2.8502,-2.7061,-2.6671,-2.6497,-2.5102,-2.4955,-2.519,-2.4698,-2.4828,-2.5041,-2.4615,-2.4507,-2.4507,-2.4507,-2.4507,-2.4487,-2.4425,0.0,-2.4404,-2.4363,0.0,-2.4532,-2.4935,0.0,0.0,-2.4449,-2.4472,-2.4383,-2.4074,-2.4322,-2.4652,-2.5065,-2.4447,-2.4115,-2.4466,-2.4507,-2.4507,-2.4507,-2.4507,-2.3725,-2.2007,-2.1845,-2.0955,-1.9025,-1.7832,-1.7595,-1.8404,-1.6899,-1.65,-1.7122,-1.7039,-1.698,-1.6859,-1.7135,-1.7296,-1.7279,-1.7279,-1.787,-1.8888,-1.9695,-2.0647,-2.1516,-2.1516,-2.1516,-2.165,-2.2599,-2.295,-2.295,-3.2489,-3.2437,-3.2306,-3.2163,-3.1681,-3.1306,-3.1345,-3.289,-3.4345,-3.5182,-3.4281,-3.3633,-3.39,-3.2629,-3.1894,-3.2101,-3.1042,-3.056,-3.0996,-2.9831,-2.9357,-2.9962,-2.9488,-2.9681,-3.0773,-2.9753,-2.957,-3.0304,-2.9849,-2.9823,-3.01,-3.0335,-3.032,-3.0043,-3.0048,-2.9876,-2.951,-2.9918,-2.997,-2.9689,-2.8687,-2.8264,-2.8125,-2.6683,-2.6588,-2.7213,-2.7461,-2.7667,-2.7638,-2.6552,-2.6528,-2.6738,-2.568,-2.5594,-2.5928,-2.5765,-2.5679,-2.5506,-2.5041,-2.4914,-2.4828,-2.4572,-2.47,-2.4914,-2.4914,-2.5126,-2.5295,-2.5295,0.0,0.0,0.0,0.0,0.0,0.0,-2.4325,-2.4178,-2.426,-2.3971,-2.4033,-2.4693,-2.4445,-2.424,-2.4157,-2.4157,-2.4157,-2.4157,-2.4363,-2.4018,-2.2891,-2.2251,-2.1355,-2.0156,-1.8999,-1.8482,-1.8596,-1.8146,-1.7711,-1.7342,-1.7601,-1.7472,-1.6952,-1.7198,-1.7279,-1.7326,-1.7917,-1.875,-1.9695,-2.0647,-2.165,-2.2511,-2.2511,-2.2511,-2.2555,-2.295,-2.3101,-2.3101,-3.1906,-3.2277,-3.2489,-3.2069,-3.1617,-3.1565,-3.2332,-3.3302,-3.4361,-3.5562,-3.4825,-3.4371,-3.4863,-3.3814,-3.3193,-3.3474,-3.2605,-3.2113,-3.2254,-3.1362,-3.0965,-3.1191,-3.0608,-3.0699,-3.1661,-3.0255,-2.9849,-3.0529,-2.9729,-2.9562,-3.01,-3.01,-3.0006,-2.9807,-2.9996,-2.9631,-2.8908,-2.9614,-2.9797,-2.9532,-2.8337,-2.764,-2.731,-2.6729,-2.6703,-2.7024,-2.7144,-2.7108,-2.688,-2.6157,-2.6324,-2.67,-2.5958,-2.6062,-2.6471,-2.6449,-2.6253,-2.5968,-2.5506,-2.538,-2.5295,-2.4956,-2.5126,-2.538,-2.538,-2.5633,-2.5906,-2.5906,-2.5906,0.0,0.0,0.0,-2.5084,-2.4745,0.0,-2.4095,-2.4115,-2.3722,-2.366,-2.4404,-2.4507,-2.4383,-2.4095,-2.4053,-2.4012,-2.3888,-2.4178,-2.4002,-2.3315,-2.2356,-2.1553,-2.0967,-1.9913,-1.9196,-1.8905,-1.9076,-1.8701,-1.7637,-1.8069,-1.7866,-1.7116,-1.7213,-1.7279,-1.7372,-1.838,-1.933,-2.0286,-2.1293,-2.2246,-2.3101,-2.3101,-2.3101,-2.3101,-2.3101,-2.3101,-2.3101,-3.2119,-3.231,-3.241,-3.2384,-3.2346,-3.2744,-3.3927,-3.3344,-3.3723,-3.6412,-3.5701,-3.5623,-3.7292,-3.6722,-3.6677,-3.7708,-3.5964,-3.4979,-3.5401,-3.3104,-3.1406,-3.0842,-3.0835,-3.042,-2.9422,-2.9839,-2.9849,-2.9362,-2.9336,-2.9562,-3.01,-3.01,-3.0388,-3.0895,-3.0335,-3.0074,-2.9996,-2.9536,-2.8996,-2.8369,-2.7222,-2.6068,-2.511,-2.6122,-2.6513,-2.6605,-2.7047,-2.6921,-2.6445,-2.6052,-2.5906,-2.5864,-2.538,-2.5821,-2.6404,-2.6032,-2.6177,-2.6404,-2.5968,-2.5906,-2.5864,-2.5864,-2.5864,-2.5906,-2.5906,-2.5906,-2.5906,-2.5906,-2.5906,-2.601,-2.6404,-2.5779,-2.523,-2.5191,-2.4787,0.0,0.0,-2.3598,-2.4033,-2.4445,-2.4507,-2.4487,-2.4487,-2.4466,-2.4301,-2.3908,-2.3888,-2.3595,-2.2859,-2.2097,-2.1621,-2.1364,-2.0271,-1.9683,-1.9665,-1.935,-1.8899,-1.8255,-1.8287,-1.7963,-1.7296,-1.7311,-1.7279,-1.7372,-1.838,-1.933,-2.0286,-2.1302,-2.2239,-2.3101,-2.3101,-2.3101,-2.3101,-2.3101,-2.3101,-2.3101,-3.3696,-3.3823,-3.339,-3.1901,-3.1422,-3.1734,-3.3381,-3.398,-3.5151,-3.7569,-3.685,-3.6773,-3.8479,-3.7663,-3.7146,-3.7516,-3.6554,-3.5987,-3.6136,-3.5119,-3.4622,-3.4686,-3.4118,-3.3643,-3.3273,-3.2333,-3.1548,-3.0936,-2.9823,-2.9562,-3.01,-2.9745,-2.9666,-2.9849,-3.0022,-2.9657,-2.8987,-2.9196,-2.8759,-2.7796,-2.6636,-2.5867,-2.5486,-2.583,-2.6175,-2.6582,-2.7047,-2.7108,-2.688,-2.6467,-2.6509,-2.6674,-2.6196,-2.6487,-2.6921,-2.682,-2.6839,-2.688,-2.6426,-2.6302,-2.626,-2.5968,-2.6093,-2.6302,-2.6302,-2.655,-2.6779,-2.6779,-2.6779,-2.6715,-2.6528,-2.6052,-2.5589,-2.5249,-2.4808,-2.428,0.0,-2.3826,-2.4012,-2.4335,-2.422,-2.3991,-2.3681,-2.3639,-2.3453,-2.2998,-2.3246,-2.3474,-2.3512,-2.2839,-2.2332,-2.2076,-2.1274,-2.0474,-1.97,-1.9847,-1.94,-1.8392,-1.855,-1.8224,-1.7416,-1.7316,-1.7652,-1.8334,-1.933,-2.0303,-2.1284,-2.222,-2.2794,-2.3101,-2.3101,-2.3188,-2.3319,-2.3188,-2.3101,-2.3144,-3.502,-3.4789,-3.3974,-3.2398,-3.1775,-3.2058,-3.3808,-3.4969,-3.6398,-3.8394,-3.8272,-3.846,-3.98,-3.9177,-3.8689,-3.8692,-3.8213,-3.7709,-3.7235,-3.6896,-3.6533,-3.6211,-3.5626,-3.5103,-3.4685,-3.377,-3.2908,-3.2111,-3.0634,-3.0085,-3.0388,-2.964,-2.9379,-2.9614,-3.0189,-2.9797,-2.876,-2.9118,-2.8629,-2.7455,-2.6366,-2.5701,-2.5463,-2.5647,-2.6152,-2.6772,-2.7075,-2.7108,-2.688,-2.661,-2.6715,-2.688,-2.661,-2.6839,-2.719,-2.719,-2.7394,-2.7493,-2.7185,-2.7103,-2.7103,-2.7062,-2.6899,-2.6816,-2.7062,-2.7167,-2.719,-2.719,-2.719,-2.7108,-2.6798,-2.626,-2.5884,-2.5904,-2.5126,-2.4342,0.0,-2.4158,-2.4299,-2.4183,-2.4136,-2.3867,-2.3246,-2.3329,-2.3184,-2.2542,-2.277,-2.3143,-2.366,-2.2955,-2.2624,-2.2799,-2.1891,-2.1069,-2.0332,-2.0307,-1.9721,-1.8543,-1.8696,-1.8333,-1.7431,-1.7687,-1.8195,-1.8872,-2.015,-2.1114,-2.175,-2.2706,-2.3144,-2.3232,-2.3256,-2.3406,-2.358,-2.3319,-2.3276,-2.3406,-3.5957,-3.5152,-3.4164,-3.3808,-3.3412,-3.3646,-3.5195,-3.6168,-3.7331,-3.8974,-3.9837,-4.0583,-4.1277,-4.1239,-4.1285,-4.1269,-4.0775,-3.9965,-3.8789,-3.8266,-3.722,-3.5495,-3.5417,-3.4894,-3.3744,-3.4188,-3.3875,-3.2725,-3.1522,-3.0947,-3.0921,-2.9771,-2.9536,-3.0048,-3.066,-3.0294,-2.9284,-2.9284,-2.8534,-2.7323,-2.6242,-2.5457,-2.5004,-2.5524,-2.6352,-2.7272,-2.7231,-2.6921,-2.6528,-2.6528,-2.6528,-2.6528,-2.6528,-2.688,-2.7272,-2.7272,-2.7696,-2.8259,-2.8259,-2.8259,-2.8355,-2.8924,-2.8155,-2.7435,-2.8018,-2.7655,-2.719,-2.719,-2.719,-2.719,-2.719,-2.6531,-2.6218,-2.6981,-2.5673,-2.4406,-2.4054,-2.4693,-2.4876,-2.3992,-2.424,-2.4115,-2.3267,-2.3557,-2.3432,-2.2522,-2.248,-2.2687,-2.3163,-2.2533,-2.2601,-2.3474,-2.2157,-2.1445,-2.1401,-2.0699,-1.9791,-1.8781,-1.8781,-1.8319,-1.7419,-1.838,-1.8826,-1.9055,-2.0917,-2.1739,-2.1872,-2.2775,-2.3276,-2.3493,-2.3517,-2.3647,-2.3797,-2.358,-2.3624,-2.3841,-3.6726,-3.6136,-3.5602,-3.5489,-3.4622,-3.4279,-3.5311,-3.6408,-3.7896,-4.0025,-4.0646,-4.1439,-4.2801,-4.2339,-4.1697,-4.1258,-4.1104,-4.0409,-3.8815,-3.8998,-3.8606,-3.7299,-3.7246,-3.6671,-3.5495,-3.5208,-3.4502,-3.3352,-3.1339,-3.0309,-3.0283,-2.917,-2.8699,-2.8856,-2.9457,-2.9301,-2.8656,-2.8656,-2.773,-2.6208,-2.5111,-2.4964,-2.5524,-2.5686,-2.6673,-2.7857,-2.7394,-2.7149,-2.7003,-2.7003,-2.7003,-2.7003,-2.7003,-2.7452,-2.7938,-2.7938,-2.8355,-2.887,-2.887,-2.887,-2.8791,-2.8514,-2.8179,-2.7857,-2.7557,-2.7313,-2.719,-2.719,-2.719,-2.7108,-2.6734,-2.6775,-2.661,-2.5821,-2.5308,-2.5191,-2.5628,-2.5404,-2.4948,-2.428,-2.4115,-2.3826,-2.3246,-2.2977,-2.2604,-2.2025,-2.2294,-2.2687,-2.3163,-2.3351,-2.3446,-2.3493,-2.2643,-2.1898,-2.1391,-2.0664,-1.982,-1.8826,-1.8812,-1.8673,-1.8427,-1.8703,-1.9604,-2.0962,-2.1632,-2.2359,-2.3062,-2.3474,-2.3647,-2.3737,-2.3734,-2.3884,-2.4077,-2.3797,-2.3754,-2.3841,-3.6978,-3.6736,-3.6511,-3.6511,-3.5883,-3.5695,-3.6454,-3.739,-3.8671,-4.0448,-4.1341,-4.1939,-4.2352,-4.2378,-4.2031,-4.12,-4.094,-4.0307,-3.9116,-3.9118,-3.8841,-3.7952,-3.7403,-3.6802,-3.6123,-3.5077,-3.4241,-3.3587,-3.1223,-3.01,-3.0074,-2.8935,-2.842,-2.8446,-2.9048,-2.8935,-2.8394,-2.8124,-2.7336,-2.6198,-2.5849,-2.5839,0.0,-2.6441,-2.7083,-2.7825,-2.7711,-2.7806,-2.8035,-2.8035,-2.8035,-2.8035,-2.8035,-2.8275,-2.8593,-2.8593,-2.9028,-2.9471,-2.9471,-2.9471,-2.9419,-2.9067,-2.8593,-2.8099,-2.7696,-2.7615,-2.7534,-2.7272,-2.7655,-2.7874,-2.7348,-2.7487,-2.7406,-2.6381,-2.6748,-2.7109,-2.6686,-2.6282,-2.5765,-2.5033,-2.4343,-2.3826,-2.3515,-2.2894,-2.2473,-2.2425,-2.2449,-2.2706,-2.316,-2.3659,-2.3823,-2.3687,-2.3158,-2.2711,-2.234,-2.1606,-2.0844,-2.0087,-1.994,-1.9803,-1.9604,-1.9923,-2.0692,-2.1872,-2.2403,-2.3038,-2.3647,-2.3754,-2.3884,-2.3973,-2.41,-2.4186,-2.4378,-2.4594,-2.4423,-2.4143,-3.7119,-3.7035,-3.6978,-3.6978,-3.7063,-3.7344,-3.8046,-3.8693,-3.9549,-4.0659,-4.1924,-4.2323,-4.1218,-4.203,-4.2158,-4.1094,-4.0609,-4.0087,-3.9375,-3.8952,-3.8483,-3.7821,-3.6786,-3.6175,-3.5887,-3.4413,-3.359,-3.3352,-3.1092,-2.9996,-2.997,-2.883,-2.8255,-2.8307,-2.8804,-2.8752,-2.8229,-2.7631,-2.7172,-2.6866,-2.7237,-2.7112,-2.6784,-2.7212,-2.752,-2.7705,-2.8162,-2.8593,-2.8983,-2.9057,-2.9081,-2.9081,-2.9081,-2.916,-2.9199,-2.9199,-2.9626,-3.0088,-3.0037,-3.0063,-3.005,-2.9821,-2.9057,-2.8299,-2.8099,-2.8139,-2.8018,-2.7353,-2.8195,-2.8885,-2.8235,-2.8211,-2.8148,-2.7747,-2.8752,-2.9091,-2.7568,-2.718,-2.6771,-2.5902,-2.466,0.0,-2.395,-2.3122,-2.2775,-2.3165,-2.2832,-2.2787,-2.3297,-2.368,-2.3908,-2.3971,-2.366,-2.3493,-2.3517,-2.2755,-2.2164,-2.1676,-2.1472,-2.1141,-2.0872,-2.1498,-2.1961,-2.2315,-2.3212,-2.3667,-2.3841,-2.3861,-2.4034,-2.4292,-2.4572,-2.4658,-2.4786,-2.5673,-2.5505,-2.4828,-3.7737,-3.7344,-3.6978,-3.6978,-3.74,-3.8131,-3.9283,-3.9985,-4.0631,-4.1362,-4.2542,-4.3059,-4.2396,-4.2074,-4.1663,-4.0966,-4.0876,-4.0253,-3.8815,-3.8979,-3.8532,-3.7239,-3.719,-3.638,-3.4711,-3.4281,-3.345,-3.2111,-3.032,-2.9431,-2.9405,-2.8229,-2.7646,-2.7646,-2.7751,-2.7751,-2.7613,-2.7071,-2.707,-2.7373,-2.6542,-2.6632,-2.7311,-2.6947,-2.7677,-2.8911,-2.9068,-2.8759,-2.8415,-2.8934,-2.9081,-2.9081,-2.9081,-2.9433,-2.9845,-2.9845,-3.0305,-3.0719,-3.0214,-3.0422,-3.0429,-2.8885,-2.8723,-2.8673,-2.7615,-2.7777,-2.8018,-2.7353,-2.8195,-2.8806,-2.781,-2.7626,-2.7867,-2.8474,-2.8673,-2.8673,-2.8514,-2.7689,-2.6771,-2.5902,-2.466,-2.4033,-2.4342,-2.3598,-2.3097,-2.3206,-2.3116,-2.3286,-2.3741,-2.3846,-2.4053,-2.4363,-2.38,-2.3521,-2.3511,-2.2785,-2.2145,-2.1673,-2.1658,-2.1784,-2.2076,-2.2227,-2.2711,-2.3517,-2.3884,-2.412,-2.4163,-2.4292,-2.4421,-2.4529,-2.5253,-2.5589,-2.5673,-2.6565,-2.6771,-2.6648,-3.8327,-3.7625,-3.7203,-3.7889,-3.8255,-3.8833,-4.0069,-4.0772,-4.1165,-4.1137,-4.1671,-4.1812,-4.1193,-4.1451,-4.1318,-4.0399,-4.0156,-3.954,-3.8423,-3.8081,-3.7729,-3.7243,-3.6855,-3.6133,-3.5127,-3.3594,-3.2478,-3.1695,-2.9459,-2.8516,-2.8839,-2.7941,-2.749,-2.749,-2.749,-2.7646,-2.7907,-2.7351,-2.7456,-2.798,-2.742,-2.7306,-2.751,-2.7533,-2.8083,-2.8805,-2.9177,-2.9254,-2.9301,-2.9897,-3.0075,-3.0075,-3.0075,-3.0266,-3.052,-3.052,-3.054,-3.0477,-3.0179,-3.0111,-2.9813,-2.8549,-2.8422,-2.847,-2.7869,-2.8203,-2.8593,-2.8235,-2.9199,-2.9922,-2.9277,-2.9081,-2.916,-2.9574,-2.9341,-2.9248,-2.9443,-2.853,-2.7318,-2.5949,-2.5066,-2.4387,-2.3867,-2.4093,-2.4041,-2.3591,-2.3568,-2.3451,-2.3211,-2.3825,-2.4095,-2.3846,-2.3961,-2.4016,-2.4021,-2.3651,-2.3367,-2.3134,-2.3062,-2.3125,-2.3343,-2.3212,-2.343,-2.4013,-2.4163,-2.4249,-2.4378,-2.4464,-2.4507,-2.4572,-2.5463,-2.5777,-2.5944,-2.7342,-2.7851,-2.777,-3.8818,-3.8114,-3.7749,-3.8733,-3.8902,-3.924,-4.0154,-4.0716,-4.0997,-4.0912,-4.0772,-4.0519,-4.0013,-4.0603,-4.0688,-3.9845,-3.9312,-3.8782,-3.8131,-3.7323,-3.6961,-3.701,-3.6219,-3.5574,-3.5127,-3.2998,-3.1692,-3.1315,-2.8984,-2.799,-2.8313,-2.7766,-2.749,-2.7516,-2.762,-2.7968,-2.8394,-2.8046,-2.815,-2.8603,-2.8472,-2.8124,-2.7758,-2.8203,-2.8499,-2.8682,-2.9248,-2.9823,-3.0335,-3.0843,-3.0973,-3.0973,-3.0973,-3.0973,-3.0973,-3.0973,-3.0581,-3.0074,-2.9944,-2.9614,-2.9132,-2.846,-2.825,-2.8223,-2.8208,-2.8691,-2.9065,-2.8948,-2.9923,-3.071,-3.0406,-3.0368,-3.033,-3.0101,-2.9934,-2.9856,-3.0088,-2.9184,-2.7869,-2.6185,-2.5766,-2.5066,-2.3652,-2.4789,-2.5194,-2.4182,-2.4097,-2.3809,-2.3114,-2.3756,-2.3867,-2.3226,-2.3949,-2.4385,-2.4364,-2.4488,-2.4507,-2.4507,-2.4335,-2.4249,-2.4249,-2.4057,-2.4057,-2.4249,-2.4249,-2.4335,-2.4507,-2.4507,-2.4615,-2.485,-2.5757,-2.6193,-2.6565,-2.8171,-2.8791,-2.8673,-3.8902,-3.8818,-3.8761,-3.8874,-3.8902,-3.8958,-3.9071,-3.9127,-3.9704,-4.1306,-4.1053,-4.0688,-4.0603,-3.9732,-3.9352,-3.9732,-3.9283,-3.8712,-3.8173,-3.7593,-3.6838,-3.5832,-3.5581,-3.4772,-3.3295,-3.2864,-3.1995,-3.0527,-2.9395,-2.8612,-2.8126,-2.7683,-2.749,-2.7516,-2.8072,-2.8368,-2.8446,-2.8908,-2.9144,-2.9179,-2.8629,-2.8394,-2.8307,-2.8394,-2.876,-2.931,-2.9813,-3.0424,-3.0921,-3.0973,-3.0973,-3.0973,-3.0973,-3.0973,-3.0973,-3.0973,-3.0581,-2.9996,-2.951,-2.9327,-2.9132,-2.846,-2.8304,-2.8261,-2.821,-2.8699,-2.9013,-2.8407,-2.9263,-2.9922,-2.9355,-2.9883,-3.0101,-2.9106,-2.9404,-2.9856,-3.0088,-2.9184,-2.8065,-2.687,-2.6817,-2.6292,-2.4725,-2.5981,-2.6337,-2.4834,-2.4705,-2.4783,-2.4935,-2.3689,-2.3027,-2.3186,-2.3701,-2.3971,-2.395,-2.4323,-2.4507,-2.4507,-2.4507,-2.4464,-2.4464,-2.4464,-2.4464,-2.4464,-2.4464,-2.4507,-2.4507,-2.4507,-2.4978,-2.5735,-2.6648,-2.7504,-2.8371,-2.9326,-2.9663,-2.9663,-3.9465,-3.8805,-3.8452,-3.8846,-3.8593,-3.8452,-3.8846,-3.8902,-3.9183,-3.9873,-3.976,-3.9592,-3.9592,-3.9211,-3.8846,-3.8664,-3.844,-3.805,-3.7498,-3.6635,-3.6073,-3.5914,-3.5217,-3.4499,-3.3716,-3.3135,-3.2116,-3.0705,-2.9565,-2.8699,-2.8079,-2.7689,-2.7673,-2.8046,-2.8281,-2.8778,-2.9431,-2.9327,-2.9483,-2.9745,-2.9144,-2.8943,-2.8943,-2.8943,-2.9274,-2.9823,-3.0022,-3.0503,-3.0973,-3.0973,-3.0973,-3.0973,-3.0973,-3.0973,-3.0973,-3.0973,-3.0346,-2.9562,-2.9388,-2.9048,-2.8612,-2.7997,-2.8058,-2.8301,-2.8318,-2.85,-2.8718,-2.8828,-2.9508,-2.9968,-2.9605,-2.9998,-3.0292,-2.9985,-2.9856,-2.9895,-3.0216,-2.9376,-2.8183,-2.6674,-2.6502,-2.5941,-2.4466,-2.5911,-2.6852,-2.6492,-2.599,-2.5378,-2.4597,-2.4282,-2.4039,-2.3852,-2.4117,-2.426,-2.424,-2.4426,-2.4507,-2.4507,-2.4507,-2.4507,-2.4507,-2.4507,-2.4507,-2.455,-2.5062,-2.5274,-2.5315,-2.5861,-2.6251,-2.6671,-2.7579,-2.8171,-2.8633,-2.9507,-2.9804,-2.9804,-3.9352,-3.8664,-3.8327,-3.8846,-3.8327,-3.8046,-3.8524,-3.848,-3.8339,-3.8339,-3.8339,-3.8508,-3.8874,-3.8564,-3.8187,-3.7934,-3.7569,-3.7259,-3.7007,-3.5825,-3.5343,-3.5798,-3.4798,-3.415,-3.3936,-3.3302,-3.2409,-3.1354,-3.0072,-2.9188,-2.8752,-2.8249,-2.8255,-2.8682,-2.883,-2.9353,-3.0074,-2.9693,-2.9771,-3.0048,-2.951,-2.931,-2.9336,-2.9457,-2.9771,-3.0127,-3.0283,-3.0634,-3.0973,-3.0973,-3.0869,-3.0764,-3.0921,-3.0973,-3.0947,-3.079,-3.0032,-2.9284,-2.91,-2.8569,-2.8072,-2.7837,-2.7911,-2.8113,-2.8369,-2.8385,-2.8508,-2.9177,-2.9614,-2.9855,-2.9829,-2.998,-3.0265,-3.0558,-3.0164,-2.9934,-3.0254,-2.9505,-2.8388,-2.698,-2.6898,-2.6371,-2.4943,-2.642,-2.7471,-2.7495,-2.7081,-2.6338,-2.5252,-2.4873,-2.4601,-2.4399,-2.4324,-2.4301,-2.4301,-2.4425,-2.4507,-2.4507,-2.4507,-2.4507,-2.4507,-2.4507,-2.4658,-2.4893,-2.5547,-2.5964,-2.6229,-2.683,-2.725,-2.7575,-2.8243,-2.8673,-2.8949,-2.9585,-2.9804,-2.9804,-3.8279,-3.8412,-3.8902,-3.8902,-3.8327,-3.7906,-3.7906,-3.74,-3.7007,-3.7007,-3.7007,-3.7484,-3.8761,-3.7805,-3.7259,-3.785,-3.6782,-3.637,-3.695,-3.5409,-3.4705,-3.5189,-3.4159,-3.3512,-3.3319,-3.329,-3.2982,-3.2398,-3.1041,-3.0371,-3.0371,-2.9636,-2.9284,-2.9301,-2.9813,-3.0074,-3.01,-3.01,-3.01,-3.0048,-2.951,-2.931,-2.9388,-2.9865,-3.01,-3.0179,-3.079,-3.0973,-3.0973,-3.0973,-3.0607,-3.0205,-3.0817,-3.0973,-3.0869,-3.0283,-2.9745,-2.9179,-2.8577,-2.7968,-2.7646,-2.8229,-2.7968,-2.7673,-2.8255,-2.8386,-2.8569,-2.9179,-2.9336,-2.9422,-2.9751,-2.9634,-2.9728,-3.0304,-3.0049,-2.9856,-3.0088,-2.9391,-2.8687,-2.8135,-2.8547,-2.822,-2.6625,-2.7943,-2.8425,-2.7396,-2.7792,-2.799,-2.7762,-2.5368,-2.4168,-2.4473,-2.4111,-2.3929,-2.3929,-2.428,-2.4507,-2.4507,-2.4507,-2.4507,-2.4507,-2.4507,-2.4978,-2.5777,-2.5777,-2.6276,-2.7098,-2.7098,-2.7649,-2.849,-2.849,-2.9052,-2.9804,-2.9804,-2.9804,-2.9804,-3.8114,-3.8074,-3.8074,-3.7692,-3.74,-3.7288,-3.7288,-3.7119,-3.6978,-3.6978,-3.6978,-3.7147,-3.758,-3.7231,-3.6894,-3.6708,-3.6342,-3.6005,-3.578,-3.4873,-3.4351,-3.4534,-3.38,-3.3381,-3.329,-3.329,-3.3016,-3.2398,-3.1757,-3.0944,-2.9992,-2.9749,-2.9706,-2.9839,-3.0022,-3.0309,-3.0712,-3.0712,-3.0712,-3.0686,-3.0529,-3.0451,-3.0477,-3.0634,-3.0712,-3.0738,-3.0921,-3.0973,-3.0973,-3.0973,-3.0607,-3.0127,-3.0309,-3.0137,-2.9797,-2.9614,-2.9431,-2.9179,-2.8577,-2.8543,-2.8569,-2.7968,-2.7941,-2.8046,-2.7863,-2.7811,-2.7863,-2.8046,-2.8386,-2.8726,-2.8812,-2.9025,-2.9346,-2.9925,-2.9409,-2.9085,-2.9428,-2.8656,-2.7889,-2.7605,-2.7379,-2.7218,-2.7067,-2.7837,-2.8201,-2.789,-2.7987,-2.8062,-2.8015,-2.666,-2.5844,-2.5735,-2.5054,-2.4533,-2.4322,-2.4425,-2.4507,-2.4507,-2.4507,-2.4828,-2.5421,-2.6008,-2.6423,-2.673,-2.7342,-2.781,-2.8091,-2.8712,-2.9131,-2.939,-2.939,-2.9546,-2.9804,-2.9804,-2.9804,-2.9804,-3.7721,-3.754,-3.7428,-3.7063,-3.6978,-3.6894,-3.6708,-3.668,-3.6595,-3.637,-3.6342,-3.6342,-3.6342,-3.6342,-3.6258,-3.6117,-3.5892,-3.5611,-3.5217,-3.4365,-3.3964,-3.4189,-3.3599,-3.329,-3.329,-3.329,-3.3094,-3.2764,-3.2214,-3.1357,-3.0104,-2.9989,-3.0092,-3.0451,-3.0205,-3.0309,-3.066,-3.0424,-3.0477,-3.0634,-3.0424,-3.0607,-3.0973,-3.0973,-3.0973,-3.0973,-3.0973,-3.0973,-3.0973,-3.0973,-3.0477,-2.9823,-2.9823,-2.9274,-2.8673,-2.8917,-2.897,-2.8839,-2.8229,-2.8333,-2.8438,-2.7673,-2.7785,-2.7968,-2.7568,-2.749,-2.749,-2.749,-2.7811,-2.8124,-2.8368,-2.856,-2.8938,-2.9762,-2.9108,-2.8737,-2.9261,-2.8261,-2.7511,-2.7605,-2.7304,-2.7257,-2.767,-2.8174,-2.8487,-2.8499,-2.851,-2.8573,-2.8725,-2.7518,-2.6909,-2.7095,-2.6358,-2.5741,-2.5232,-2.5168,-2.5189,-2.5359,-2.5547,-2.5883,-2.6318,-2.6853,-2.7302,-2.7649,-2.8251,-2.8712,-2.9052,-2.9585,-2.9804,-2.9804,-2.9804,-2.9804,-2.9804,-2.9804,-2.9804,-2.9804,-3.7134,-3.6894,-3.6894,-3.6866,-3.6922,-3.6754,-3.6145,-3.6089,-3.5892,-3.5273,-3.5189,-3.5189,-3.5189,-3.5189,-3.5414,-3.592,-3.5442,-3.5105,-3.5077,-3.3944,-3.3543,-3.4104,-3.3599,-3.329,-3.329,-3.329,-3.329,-3.329,-3.2525,-3.1676,-3.0779,-3.0408,-3.0477,-3.0947,-3.0361,-3.01,-3.0074,-2.9562,-2.964,-3.0048,-2.9588,-3.0032,-3.0973,-3.0973,-3.0973,-3.0973,-3.0973,-3.0973,-3.0973,-3.0973,-3.0215,-2.931,-2.931,-2.8464,-2.7594,-2.815,-2.8394,-2.8255,-2.7646,-2.7516,-2.7542,-2.7516,-2.749,-2.749,-2.749,-2.749,-2.749,-2.749,-2.749,-2.7646,-2.8229,-2.8196,-2.849,-2.9813,-2.9057,-2.8613,-2.9358,-2.8236,-2.754,-2.8033,-2.8133,-2.8234,-2.8472,-2.8948,-2.9214,-2.9226,-2.9202,-2.9378,-2.9742,-2.7998,-2.7468,-2.8466,-2.7884,-2.7238,-2.6565,-2.6337,-2.6442,-2.6871,-2.7342,-2.7424,-2.718,-2.7284,-2.777,-2.8593,-2.8593,-2.9052,-2.9804,-2.9804,-2.9804,-2.9804,-2.9804,-2.9804,-2.9804,-2.9804,-2.9804,-2.9804,-3.5789,-3.6005,-3.6174,-3.5723,-3.6399,-3.6652,-3.5583,-3.5808,-3.5892,-3.5273,-3.5189,-3.5189,-3.5189,-3.5189,-3.5048,-3.4666,-3.4534,-3.4253,-3.3775,-3.3494,-3.3347,-3.3487,-3.3375,-3.329,-3.329,-3.329,-3.329,-3.329,-3.2775,-3.2263,-3.1766,-3.1429,-3.114,-3.0947,-3.0361,-3.01,-3.01,-2.9944,-2.997,-3.0127,-3.0451,-3.0738,-3.0973,-3.0973,-3.0973,-3.0973,-3.0973,-3.0973,-3.0973,-3.0973,-3.0215,-2.931,-2.931,-2.8464,-2.7516,-2.7646,-2.8046,-2.8255,-2.7646,-2.7863,-2.8072,-2.762,-2.749,-2.749,-2.749,-2.749,-2.749,-2.749,-2.749,-2.7542,-2.7673,-2.7665,-2.8012,-2.9057,-2.8402,-2.7972,-2.8805,-2.8328,-2.7917,-2.7931,-2.8313,-2.8737,-2.9196,-2.936,-2.9437,-2.9439,-2.9425,-2.9488,-2.9578,-2.8962,-2.8584,-2.8505,-2.8065,-2.7624,-2.7268,-2.7342,-2.7366,-2.7329,-2.814,-2.8371,-2.8171,-2.887,-2.9287,-2.9507,-2.9507,-2.9624,-2.9804,-2.9804,-2.9804,-2.9804,-2.9804,-2.9804,-2.9804,-2.9804,-2.9804,-2.9804,-3.6151,-3.6049,-3.5881,-3.5282,-3.5752,-3.5864,-3.4871,-3.5012,-3.5012,-3.4393,-3.4309,-3.4309,-3.4309,-3.4309,-3.4169,-3.3796,-3.4048,-3.3936,-3.3319,-3.329,-3.329,-3.329,-3.329,-3.329,-3.329,-3.329,-3.329,-3.329,-3.2704,-3.2309,-3.2092,-3.1046,-3.0566,-3.0555,-2.9719,-2.9327,-2.9327,-2.903,-2.9056,-2.9353,-2.9666,-3.0111,-3.0634,-3.0869,-3.0973,-3.0973,-3.0973,-3.0973,-3.0973,-3.0973,-3.0215,-2.931,-2.931,-2.8464,-2.749,-2.749,-2.7758,-2.7915,-2.7568,-2.7758,-2.7915,-2.7568,-2.749,-2.749,-2.749,-2.749,-2.749,-2.749,-2.749,-2.749,-2.749,-2.749,-2.7766,-2.8607,-2.798,-2.765,-2.8347,-2.8177,-2.7996,-2.7927,-2.8574,-2.9226,-2.9608,-2.9891,-3.0045,-3.0045,-3.0045,-3.0008,-2.9907,-2.9832,-2.9618,-2.9355,-2.9159,-2.8881,-2.8529,-2.8709,-2.856,-2.81,-2.9071,-2.938,-2.9131,-2.9585,-2.9804,-2.9804,-2.9804,-2.9804,-2.9804,-2.9804,-2.9804,-2.9804,-2.9804,-2.9628,-2.9428,-2.9704,-2.9628,-2.9428,-3.6664,-3.61,-3.5568,-3.5009,-3.5077,-3.4964,-3.4161,-3.4133,-3.3964,-3.3375,-3.329,-3.329,-3.329,-3.329,-3.329,-3.329,-3.3768,-3.3852,-3.3319,-3.329,-3.329,-3.329,-3.329,-3.329,-3.329,-3.329,-3.329,-3.329,-3.2525,-3.211,-3.1929,-3.0281,-2.9686,-2.9918,-2.8856,-2.842,-2.8394,-2.7863,-2.7941,-2.842,-2.8525,-2.9118,-3.0022,-3.0555,-3.0712,-3.0712,-3.0712,-3.0712,-3.0712,-3.0712,-3.0032,-2.9144,-2.9144,-2.8412,-2.749,-2.749,-2.749,-2.749,-2.749,-2.749,-2.749,-2.749,-2.749,-2.749,-2.749,-2.749,-2.749,-2.749,-2.749,-2.749,-2.749,-2.7561,-2.7811,-2.8437,-2.7989,-2.7752,-2.8308,-2.8289,-2.8219,-2.8219,-2.9145,-2.9799,-2.9984,-3.0425,-3.0736,-3.0736,-3.0736,-3.0698,-3.0482,-3.0444,-3.0444,-3.0482,-3.0444,-3.0266,-2.9896,-3.0075,-2.9767,-2.9067,-2.996,-3.0177,-2.9804,-2.9804,-2.9804,-2.9804,-2.9804,-2.9804,-2.9804,-2.9804,-2.9754,-2.9654,-2.9654,-2.9302,-2.8838,-2.9453,-2.9352,-2.8963,-3.4652,-3.4519,-3.4269,-3.3691,-3.4486,-3.4795,-3.3635,-3.3852,-3.3964,-3.3375,-3.329,-3.329,-3.329,-3.329,-3.329,-3.329,-3.3375,-3.3375,-3.329,-3.329,-3.329,-3.329,-3.329,-3.329,-3.329,-3.329,-3.329,-3.329,-3.281,-3.2179,-3.1404,-3.078,-3.0094,-2.9379,-2.8734,-2.842,-2.8394,-2.8281,-2.8307,-2.8446,-2.897,-2.9284,-2.9431,-2.9545,-2.9572,-2.9572,-2.9572,-2.9572,-2.9572,-2.9572,-2.9127,-2.8551,-2.8551,-2.8072,-2.749,-2.749,-2.749,-2.749,-2.749,-2.749,-2.749,-2.749,-2.749,-2.749,-2.749,-2.749,-2.749,-2.749,-2.749,-2.749,-2.749,-2.7911,-2.8437,-2.9074,-2.8928,-2.8969,-2.9678,-2.9632,-2.9559,-2.9767,-3.0377,-3.0768,-3.0805,-3.091,-3.0962,-3.0962,-3.0962,-3.0962,-3.0898,-3.0773,-3.0736,-3.0898,-3.0736,-3.0698,-3.0785,-3.0823,-3.0596,-3.0177,-3.033,-3.0177,-2.9804,-2.9804,-2.9804,-2.9804,-2.9804,-2.9804,-2.9804,-2.9804,-2.9503,-2.9038,-2.9038,-2.8725,-2.8298,-2.8813,-2.8963,-2.8888,-3.5263,-3.5039,-3.465,-3.3494,-3.4023,-3.4299,-3.3445,-3.3543,-3.3599,-3.3319,-3.329,-3.329,-3.329,-3.329,-3.329,-3.329,-3.329,-3.329,-3.329,-3.329,-3.329,-3.329,-3.329,-3.3122,-3.282,-3.282,-3.2679,-3.2342,-3.1737,-3.1252,-3.0806,-2.9891,-2.9215,-2.8813,-2.8177,-2.7915,-2.7889,-2.7635,-2.7628,-2.7941,-2.8229,-2.8516,-2.8865,-2.9179,-2.931,-2.931,-2.931,-2.931,-2.931,-2.931,-2.8917,-2.842,-2.842,-2.7994,-2.749,-2.749,-2.749,-2.749,-2.749,-2.749,-2.749,-2.749,-2.749,-2.7568,-2.7915,-2.7994,-2.8072,-2.8412,-2.8454,-2.8478,-2.8478,-2.8717,-2.8993,-2.9262,-2.9212,-2.9254,-2.9631,-2.9819,-3.0027,-3.01,-3.0634,-3.0973,-3.0973,-3.0973,-3.0973,-3.0973,-3.0973,-3.0973,-3.0973,-3.0924,-3.0924,-3.0973,-3.0924,-3.0924,-3.0973,-3.0887,-3.0698,-3.0406,-3.0292,-3.0088,-2.9804,-2.9804,-2.9804,-2.9804,-2.9804,-2.9804,-2.9754,-2.9453,-2.9139,-2.8863,-2.8562,-2.8323,-2.8147,-2.8398,-2.8473,-2.8473,-3.6011,-3.5462,-3.4839,-3.3854,-3.3791,-3.3825,-3.3542,-3.3396,-3.329,-3.329,-3.329,-3.329,-3.329,-3.329,-3.329,-3.329,-3.329,-3.329,-3.329,-3.329,-3.329,-3.329,-3.315,-3.2911,-3.2568,-3.2326,-3.1949,-3.1499,-3.0936,-3.0549,-3.0283,-2.9179,-2.8547,-2.8313,-2.7766,-2.749,-2.7464,-2.7053,-2.7131,-2.749,-2.749,-2.7785,-2.8229,-2.8699,-2.8952,-2.9022,-2.8917,-2.8952,-2.9022,-2.8917,-2.8569,-2.8177,-2.8177,-2.7889,-2.749,-2.749,-2.749,-2.749,-2.749,-2.749,-2.749,-2.749,-2.7594,-2.7837,-2.8281,-2.8525,-2.876,-2.9205,-2.9285,-2.9311,-2.9294,-2.9398,-2.949,-2.9481,-2.9585,-2.9632,-2.9693,-3.0022,-3.0236,-3.0236,-3.0675,-3.0999,-3.0924,-3.0999,-3.0973,-3.0973,-3.0973,-3.0973,-3.0973,-3.0973,-3.0973,-3.0973,-3.0973,-3.0973,-3.0973,-3.0811,-3.0622,-3.0406,-3.0177,-2.9972,-2.9804,-2.9804,-2.9804,-2.9804,-2.9804,-2.9704,-2.9553,-2.9063,-2.8737,-2.8499,-2.8072,-2.7846,-2.7745,-2.7871,-2.7921,-2.7921,-3.5619,-3.4501,-3.375,-3.461,-3.3997,-3.3507,-3.3997,-3.3612,-3.329,-3.329,-3.329,-3.329,-3.329,-3.329,-3.329,-3.329,-3.329,-3.329,-3.329,-3.329,-3.329,-3.329,-3.2764,-3.2693,-3.3111,-3.2103,-3.1527,-3.1499,-3.1466,-3.0959,-3.0019,-2.9596,-2.8966,-2.8099,-2.7683,-2.749,-2.749,-2.7464,-2.7464,-2.749,-2.749,-2.7516,-2.7568,-2.762,-2.7854,-2.8146,-2.7754,-2.7854,-2.8146,-2.7754,-2.7594,-2.7568,-2.7568,-2.7542,-2.749,-2.749,-2.749,-2.749,-2.749,-2.749,-2.749,-2.749,-2.7915,-2.8368,-2.8394,-2.8839,-2.9258,-2.931,-2.931,-2.9327,-2.9295,-2.9715,-3.0053,-3.0043,-3.0364,-3.067,-3.0869,-3.0745,-3.0684,-3.0684,-3.0861,-3.0924,-3.0736,-3.0887,-3.0973,-3.0973,-3.0973,-3.0973,-3.0973,-3.0973,-3.0973,-3.0973,-3.0973,-3.0973,-3.0973,-3.0811,-3.0622,-3.0406,-3.0177,-2.9972,-2.9804,-2.9804,-2.9804,-2.9804,-2.9804,-2.9478,-2.8938,-2.8913,-2.8323,-2.7394,-2.7344,-2.7077,-2.6675,-2.7178,-2.7379,-2.7379,-3.572,-3.5494,-3.5201,-3.4942,-3.4543,-3.4269,-3.4104,-3.3646,-3.329,-3.329,-3.329,-3.329,-3.329,-3.329,-3.329,-3.329,-3.329,-3.3122,-3.2792,-3.3066,-3.329,-3.329,-3.2736,-3.2331,-3.2137,-3.1317,-3.0712,-3.0319,-3.0127,-2.9822,-2.9435,-2.9116,-2.8643,-2.8107,-2.7934,-2.7749,-2.749,-2.749,-2.749,-2.749,-2.749,-2.749,-2.7523,-2.7782,-2.798,-2.8112,-2.8177,-2.8145,-2.8079,-2.7914,-2.7716,-2.749,-2.749,-2.749,-2.749,-2.749,-2.749,-2.7568,-2.7968,-2.7785,-2.7568,-2.7968,-2.8229,-2.8569,-2.9301,-2.964,-2.9902,-3.0268,-3.0346,-3.0346,-3.0351,-3.0518,-3.0675,-3.0667,-3.0771,-3.0924,-3.0973,-3.0924,-3.0887,-3.0887,-3.0962,-3.0999,-3.0887,-3.0962,-3.0973,-3.0973,-3.0973,-3.0973,-3.0973,-3.0973,-3.0817,-3.0477,-3.079,-3.0973,-3.0973,-3.0672,-3.0482,-3.0406,-3.0088,-2.9856,-2.9804,-2.9804,-2.9804,-2.9804,-2.9804,-2.9679,-2.9402,-2.8699,-2.8172,-2.772,-2.7077,-2.6876,-2.7027,-2.7193,-2.7293,-2.7293,-3.5975,-3.5975,-3.5847,-3.5494,-3.4975,-3.4576,-3.4375,-3.3722,-3.329,-3.329,-3.329,-3.329,-3.329,-3.329,-3.329,-3.329,-3.329,-3.3094,-3.2707,-3.2904,-3.3086,-3.3259,-3.2326,-3.1678,-3.1452,-3.0636,-3.0038,-2.9617,-2.9397,-2.924,-2.9263,-2.889,-2.8622,-2.8404,-2.8198,-2.7947,-2.7656,-2.7556,-2.749,-2.749,-2.7649,-2.7689,-2.7749,-2.8112,-2.8308,-2.8438,-2.8438,-2.8373,-2.821,-2.798,-2.7749,-2.749,-2.749,-2.749,-2.749,-2.749,-2.762,-2.7889,-2.8281,-2.8229,-2.8177,-2.8569,-2.8804,-2.9144,-2.9918,-3.0231,-3.0503,-3.0895,-3.0973,-3.0973,-3.0973,-3.0973,-3.0973,-3.0973,-3.0973,-3.0973,-3.0973,-3.0973,-3.0999,-3.0924,-3.0962,-3.0999,-3.0924,-3.0962,-3.0973,-3.0973,-3.0973,-3.0921,-3.0738,-3.0895,-3.0712,-3.0127,-3.0686,-3.0973,-3.0973,-3.0596,-3.0406,-3.0406,-2.9972,-2.9804,-2.9804,-2.9804,-2.9804,-2.9804,-2.9804,-2.9679,-2.9453,-2.8499,-2.7996,-2.777,-2.7052,-2.6876,-2.7077,-2.7253,-2.7168,-2.7052,-3.6383,-3.5655,-3.5237,-3.632,-3.5172,-3.4274,-3.481,-3.3997,-3.3326,-3.329,-3.329,-3.329,-3.329,-3.329,-3.329,-3.329,-3.329,-3.3262,-3.3262,-3.2736,-3.2608,-3.3144,-3.1484,-3.074,-3.1279,-3.0179,-2.9617,-2.9617,-2.9617,-2.9617,-2.9585,-2.9271,-2.9113,-2.9081,-2.8406,-2.8112,-2.8079,-2.7656,-2.749,-2.7523,-2.7947,-2.8112,-2.8145,-2.8471,-2.8826,-2.9017,-2.8341,-2.8308,-2.8503,-2.7756,-2.749,-2.749,-2.749,-2.749,-2.749,-2.749,-2.7941,-2.842,-2.842,-2.8865,-2.9336,-2.9336,-2.9719,-3.01,-3.01,-3.0581,-3.0973,-3.0973,-3.0973,-3.0973,-3.0973,-3.0973,-3.0973,-3.0973,-3.0973,-3.0973,-3.0973,-3.0973,-3.0924,-3.0736,-3.0887,-3.0924,-3.0736,-3.0887,-3.0973,-3.0973,-3.0973,-3.0738,-3.0127,-3.0686,-3.0712,-3.0127,-3.0686,-3.0973,-3.0973,-3.0596,-3.0406,-3.0406,-2.9972,-2.9804,-2.9804,-2.9804,-2.9804,-2.9804,-2.9804,-2.9478,-2.8863,-2.8323,-2.7795,-2.7329,-2.7293,-2.6977,-2.6549,-2.7102,-2.6977,-2.6499,-3.6476,-3.6258,-3.6132,-3.6445,-3.5784,-3.5139,-3.4942,-3.4308,-3.3722,-3.3361,-3.329,-3.329,-3.329,-3.329,-3.329,-3.329,-3.2932,-3.2511,-3.2061,-3.1443,-3.1143,-3.1306,-3.0777,-3.058,-3.074,-2.9989,-2.9617,-2.9617,-2.9617,-2.9617,-2.9617,-2.9523,-2.9204,-2.8746,-2.853,-2.8177,-2.7656,-2.7556,-2.7656,-2.7947,-2.8046,-2.8243,-2.8503,-2.8826,-2.889,-2.8761,-2.8794,-2.8568,-2.821,-2.8013,-2.7749,-2.749,-2.749,-2.749,-2.749,-2.749,-2.7941,-2.8499,-2.8943,-2.9431,-2.9839,-2.9839,-2.997,-3.0205,-3.0634,-3.0869,-3.0973,-3.0973,-3.0973,-3.0973,-3.0973,-3.0973,-3.0973,-3.0973,-3.0973,-3.0973,-3.0973,-3.0973,-3.0999,-3.0924,-3.0962,-3.0999,-3.0924,-3.0962,-3.0973,-3.0973,-3.0973,-3.0742,-3.0143,-3.0678,-3.0712,-3.0127,-3.0686,-3.0973,-3.0973,-3.0596,-3.0406,-3.0406,-2.9972,-2.9804,-2.9804,-2.9804,-2.9804,-2.9804,-2.9804,-2.9704,-2.9453,-2.8499,-2.8021,-2.7795,-2.7052,-2.665,-2.6549,-2.7102,-2.6977,-2.6549,-3.6507,-3.6507,-3.6507,-3.6507,-3.6068,-3.5527,-3.4975,-3.4442,-3.3928,-3.3396,-3.329,-3.329,-3.329,-3.329,-3.329,-3.329,-3.2764,-3.2258,-3.1864,-3.1246,-3.0797,-3.0512,-3.0484,-3.0371,-3.0147,-3.0038,-2.9841,-2.9617,-2.9617,-2.9617,-2.9617,-2.9617,-2.9394,-2.9004,-2.8724,-2.8373,-2.7921,-2.7387,-2.7407,-2.7733,-2.7868,-2.8125,-2.8497,-2.9066,-2.9113,-2.8826,-2.889,-2.8568,-2.8079,-2.7914,-2.7689,-2.749,-2.749,-2.7646,-2.7863,-2.7863,-2.8438,-2.9144,-2.951,-3.0032,-3.0477,-3.0477,-3.0477,-3.0555,-3.0921,-3.0973,-3.0973,-3.0973,-3.0973,-3.0973,-3.0973,-3.0973,-3.0973,-3.0973,-3.0973,-3.0973,-3.0973,-3.0973,-3.0973,-3.0973,-3.0973,-3.0973,-3.0973,-3.0973,-3.0973,-3.0973,-3.0973,-3.0742,-3.0128,-3.0652,-3.0712,-3.0127,-3.0686,-3.0973,-3.0973,-3.0596,-3.0406,-3.0406,-2.9972,-2.9804,-2.9804,-2.9804,-2.9804,-2.9804,-2.9804,-2.9654,-2.9377,-2.8473,-2.7971,-2.772,-2.7077,-2.6675,-2.6549,-2.7102,-2.6977,-2.6549,-3.6507,-3.6507,-3.6507,-3.6507,-3.61,-3.5591,-3.5041,-3.4543,-3.4065,-3.3507,-3.3396,-3.3396,-3.3396,-3.3326,-3.329,-3.329,-3.2764,-3.2342,-3.2174,-3.1696,-3.1106,-3.0427,-3.0455,-3.0231,-2.9701,-3.0147,-3.0175,-2.9701,-2.9645,-2.9585,-2.9554,-2.9554,-2.9523,-2.946,-2.8826,-2.8536,-2.8417,-2.7267,-2.6933,-2.7285,-2.7552,-2.7954,-2.8432,-2.9156,-2.9286,-2.899,-2.8648,-2.832,-2.798,-2.7623,-2.749,-2.749,-2.749,-2.7915,-2.842,-2.842,-2.9222,-3.01,-3.01,-3.0555,-3.0973,-3.0973,-3.0973,-3.0973,-3.0973,-3.0973,-3.0973,-3.0973,-3.0973,-3.0973,-3.0973,-3.0973,-3.0973,-3.0973,-3.0973,-3.0973,-3.0973,-3.0973,-3.0973,-3.0973,-3.0973,-3.0973,-3.0973,-3.0973,-3.0973,-3.0973,-3.0973,-3.0764,-3.0205,-3.0712,-3.0738,-3.0205,-3.0712,-3.0973,-3.0999,-3.0596,-3.0406,-3.0406,-2.9972,-2.9804,-2.9804,-2.9804,-2.9804,-2.9804,-2.9804,-2.9478,-2.8838,-2.8323,-2.777,-2.7304,-2.7253,-2.6927,-2.6549,-2.7052,-2.6927,-2.6499,-3.6507,-3.6507,-3.6507,-3.6507,-3.6383,-3.6163,-3.5623,-3.5429,-3.5139,-3.461,-3.4201,-3.3928,-3.3928,-3.3542,-3.329,-3.329,-3.2764,-3.178,-3.0319,-3.0544,-3.0427,-2.9841,-3.0231,-3.0427,-3.0287,-2.9982,-2.9982,-3.0287,-2.9841,-2.9491,-2.9208,-2.9208,-2.8954,-2.8438,-2.8276,-2.8046,-2.7723,-2.7426,-2.7703,-2.826,-2.7805,-2.8294,-2.9215,-2.8463,-2.8407,-2.8615,-2.803,-2.775,-2.7623,-2.7523,-2.749,-2.749,-2.749,-2.7915,-2.842,-2.842,-2.9222,-3.01,-3.01,-3.0555,-3.0973,-3.0973,-3.0973,-3.0973,-3.0973,-3.0973,-3.0973,-3.0973,-3.0973,-3.0973,-3.0973,-3.0973,-3.0973,-3.0973,-3.0973,-3.0973,-3.0973,-3.0973,-3.0973,-3.0973,-3.0973,-3.0973,-3.0973,-3.0973,-3.0973,-3.0973,-3.0973,-3.0921,-3.0817,-3.0921,-3.0921,-3.0817,-3.0921,-3.0924,-3.0773,-3.052,-3.0406,-3.0406,-2.9972,-2.9804,-2.9804,-2.9804,-2.9804,-2.9804,-2.9804,-2.9478,-2.8838,-2.8323,-2.777,-2.7278,-2.6851,-2.66,-2.6499,-2.6625,-2.66,-2.6499,-3.6507,-3.6507,-3.6507,-3.6507,-3.6507,-3.632,-3.5784,-3.5688,-3.5527,-3.4975,-3.4442,-3.4104,-3.4104,-3.3612,-3.329,-3.329,-3.2687,-3.1933,-3.0993,-3.0849,-3.0598,-3.0066,-3.0315,-3.0656,-3.0965,-3.0094,-2.9926,-3.0484,-2.9764,-2.9267,-2.9077,-2.8945,-2.8655,-2.8356,-2.8171,-2.798,-2.7756,-2.7302,-2.7497,-2.8053,-2.7457,-2.7834,-2.8661,-2.7839,-2.7646,-2.7705,-2.749,-2.7449,-2.749,-2.749,-2.749,-2.749,-2.749,-2.7915,-2.8472,-2.876,-2.9431,-3.0153,-3.0477,-3.0764,-3.0973,-3.0973,-3.0973,-3.0973,-3.0973,-3.0973,-3.0973,-3.0973,-3.0973,-3.0973,-3.0973,-3.0973,-3.0973,-3.0973,-3.0973,-3.0973,-3.0973,-3.0973,-3.0973,-3.0973,-3.0973,-3.0973,-3.0973,-3.0973,-3.0973,-3.0973,-3.0973,-3.0973,-3.0973,-3.0973,-3.0973,-3.0973,-3.0973,-3.0962,-3.0849,-3.0558,-3.0406,-3.0406,-2.9972,-2.9804,-2.9804,-2.9804,-2.9804,-2.9804,-2.9804,-2.9478,-2.8838,-2.8323,-2.777,-2.7253,-2.67,-2.6499,-2.6499,-2.6499,-2.6499,-2.6499,-3.6507,-3.6507,-3.6507,-3.6507,-3.6384,-3.6229,-3.5911,-3.5725,-3.5567,-3.5237,-3.4622,-3.4259,-3.4375,-3.3791,-3.3374,-3.3185,-3.2601,-3.2184,-3.2095,-3.1436,-3.0874,-3.0375,-3.0343,-3.0656,-3.1302,-3.0207,-2.9954,-3.0684,-2.9628,-2.9068,-2.8977,-2.8568,-2.832,-2.8254,-2.7979,-2.7854,-2.7795,-2.7032,-2.7014,-2.7471,-2.6888,-2.7061,-2.7615,-2.7159,-2.6861,-2.6745,-2.6845,-2.7029,-2.7229,-2.7307,-2.7281,-2.7229,-2.7333,-2.7785,-2.836,-2.8961,-2.9614,-3.0231,-3.0843,-3.0973,-3.0973,-3.0973,-3.0973,-3.0973,-3.0973,-3.0973,-3.0973,-3.0973,-3.0973,-3.0973,-3.0973,-3.0973,-3.0973,-3.0973,-3.0973,-3.0973,-3.0973,-3.0973,-3.0973,-3.0973,-3.0973,-3.0973,-3.0973,-3.0973,-3.0973,-3.0973,-3.0973,-3.0973,-3.0973,-3.0973,-3.0999,-3.0962,-3.0962,-3.0924,-3.0849,-3.052,-3.033,-3.0292,-2.9972,-2.9804,-2.9804,-2.9804,-2.9804,-2.9804,-2.9804,-2.9478,-2.8838,-2.8323,-2.777,-2.7253,-2.67,-2.6499,-2.6499,-2.6499,-2.6499,-2.6499,-3.6507,-3.6507,-3.6507,-3.6507,-3.6014,-3.583,-3.6291,-3.5891,-3.5707,-3.6228,-3.5301,-3.4865,-3.5434,-3.4576,-3.3562,-3.2601,-3.2438,-3.1903,-3.0853,-3.066,-3.0355,-2.9757,-2.9729,-3.001,-3.0596,-2.9982,-3.0178,-3.1359,-2.9827,-2.8954,-2.8665,-2.7771,-2.7243,-2.6979,-2.6889,-2.6889,-2.6889,-2.6745,-2.6918,-2.7193,-2.6337,-2.6437,-2.6911,-2.6073,-2.6002,-2.6302,-2.5815,-2.581,-2.6106,-2.6634,-2.6452,-2.6106,-2.6634,-2.7183,-2.7758,-2.8333,-2.9274,-3.0231,-3.0843,-3.0973,-3.0973,-3.0973,-3.0973,-3.0973,-3.0973,-3.0973,-3.0973,-3.0973,-3.0973,-3.0973,-3.0973,-3.0973,-3.0973,-3.0973,-3.0973,-3.0973,-3.0973,-3.0973,-3.0973,-3.0973,-3.0973,-3.0973,-3.0973,-3.0973,-3.0973,-3.0973,-3.0973,-3.0973,-3.0973,-3.0973,-3.0924,-3.0736,-3.0736,-3.0584,-3.0241,-3.0164,-3.0049,-2.9856,-2.9818,-2.9804,-2.9804,-2.9804,-2.9804,-2.9804,-2.9804,-2.9478,-2.8838,-2.8323,-2.777,-2.7253,-2.67,-2.6499,-2.6499,-2.6499,-2.6499,-2.6499,-3.6507,-3.6507,-3.6507,-3.6507,-3.6261,-3.6014,-3.5922,-3.5984,-3.6014,-3.5922,-3.552,-3.5356,-3.5689,-3.4743,-3.3738,-3.2867,-3.2729,-3.2288,-3.1337,-3.1208,-3.092,-3.0417,-3.0387,-3.0553,-3.087,-3.0304,-3.029,-3.0937,-2.9688,-2.8761,-2.8089,-2.7471,-2.7014,-2.6693,-2.6693,-2.6693,-2.6693,-2.6693,-2.6701,-2.6645,-2.5912,-2.5902,-2.6242,-2.5315,-2.5087,-2.5279,-2.5206,-2.545,-2.5819,-2.6112,-2.6033,-2.5845,-2.6112,-2.6582,-2.7157,-2.7732,-2.8726,-2.9771,-3.0346,-3.0738,-3.0973,-3.0973,-3.0973,-3.0973,-3.0973,-3.0973,-3.0973,-3.0973,-3.0973,-3.0973,-3.0973,-3.0973,-3.0973,-3.0973,-3.0973,-3.0973,-3.0973,-3.0973,-3.0973,-3.0973,-3.0973,-3.0973,-3.0973,-3.0973,-3.0973,-3.0973,-3.0973,-3.0973,-3.0973,-3.0973,-3.0924,-3.0698,-3.0698,-3.0546,-3.0254,-3.0139,-3.0049,-2.9972,-2.9856,-2.9804,-2.9804,-2.9804,-2.9804,-2.9804,-2.9804,-2.9654,-2.9377,-2.8762,-2.8247,-2.7695,-2.7178,-2.6776,-2.6499,-2.6499,-2.6499,-2.6499]}]]